<?xml version="1.0" encoding="UTF-8" standalone="no" ?>
<gpx xmlns="http://www.topografix.com/GPX/1/1" xmlns:xsi="http://www.w3.org/2001/XMLSchema-instance" xsi:schemaLocation="http://www.topografix.com/GPX/1/1 http://www.topografix.com/GPX/1/1/gpx.xsd" version="1.1" creator="VisuGPX - https://www.visugpx.com">
  <metadata>
    <name>Crete de Vaumuse</name>
    <desc><![CDATA[Dqifficulté moyenne]]></desc>
  </metadata>
  <trk>
    <name><![CDATA[VAUMUSE]]></name>
    <trkseg>
      <trkpt lat="44.16377" lon="6.05806">
        <ele>608.17</ele>
        <time>2013-12-15T09:43:14Z</time>
      </trkpt>
      <trkpt lat="44.16377" lon="6.05807">
        <ele>612.02</ele>
        <time>2013-12-15T09:43:15Z</time>
      </trkpt>
      <trkpt lat="44.16377" lon="6.05808">
        <ele>619.71</ele>
        <time>2013-12-15T09:43:16Z</time>
      </trkpt>
      <trkpt lat="44.16376" lon="6.0581">
        <ele>623.55</ele>
        <time>2013-12-15T09:43:17Z</time>
      </trkpt>
      <trkpt lat="44.16376" lon="6.0581">
        <ele>626.92</ele>
        <time>2013-12-15T09:43:18Z</time>
      </trkpt>
      <trkpt lat="44.16375" lon="6.05812">
        <ele>630.76</ele>
        <time>2013-12-15T09:43:19Z</time>
      </trkpt>
      <trkpt lat="44.16375" lon="6.05813">
        <ele>630.28</ele>
        <time>2013-12-15T09:43:20Z</time>
      </trkpt>
      <trkpt lat="44.16375" lon="6.05814">
        <ele>634.13</ele>
        <time>2013-12-15T09:43:21Z</time>
      </trkpt>
      <trkpt lat="44.16375" lon="6.05814">
        <ele>637.49</ele>
        <time>2013-12-15T09:43:22Z</time>
      </trkpt>
      <trkpt lat="44.16374" lon="6.05816">
        <ele>643.26</ele>
        <time>2013-12-15T09:43:24Z</time>
      </trkpt>
      <trkpt lat="44.16373" lon="6.05818">
        <ele>649.03</ele>
        <time>2013-12-15T09:43:26Z</time>
      </trkpt>
      <trkpt lat="44.16372" lon="6.05819">
        <ele>654.31</ele>
        <time>2013-12-15T09:43:28Z</time>
      </trkpt>
      <trkpt lat="44.16371" lon="6.05821">
        <ele>657.2</ele>
        <time>2013-12-15T09:43:29Z</time>
      </trkpt>
      <trkpt lat="44.16369" lon="6.05826">
        <ele>664.41</ele>
        <time>2013-12-15T09:43:32Z</time>
      </trkpt>
      <trkpt lat="44.16367" lon="6.05828">
        <ele>668.73</ele>
        <time>2013-12-15T09:43:34Z</time>
      </trkpt>
      <trkpt lat="44.16368" lon="6.05829">
        <ele>673.06</ele>
        <time>2013-12-15T09:43:36Z</time>
      </trkpt>
      <trkpt lat="44.16368" lon="6.05831">
        <ele>676.91</ele>
        <time>2013-12-15T09:43:38Z</time>
      </trkpt>
      <trkpt lat="44.16366" lon="6.05833">
        <ele>680.75</ele>
        <time>2013-12-15T09:43:40Z</time>
      </trkpt>
      <trkpt lat="44.16365" lon="6.05834">
        <ele>683.63</ele>
        <time>2013-12-15T09:43:42Z</time>
      </trkpt>
      <trkpt lat="44.16364" lon="6.05836">
        <ele>687.48</ele>
        <time>2013-12-15T09:43:44Z</time>
      </trkpt>
      <trkpt lat="44.16363" lon="6.05838">
        <ele>691.33</ele>
        <time>2013-12-15T09:43:47Z</time>
      </trkpt>
      <trkpt lat="44.16363" lon="6.0584">
        <ele>695.65</ele>
        <time>2013-12-15T09:43:50Z</time>
      </trkpt>
      <trkpt lat="44.16362" lon="6.05843">
        <ele>699.5</ele>
        <time>2013-12-15T09:43:53Z</time>
      </trkpt>
      <trkpt lat="44.1636" lon="6.05846">
        <ele>703.82</ele>
        <time>2013-12-15T09:43:57Z</time>
      </trkpt>
      <trkpt lat="44.16358" lon="6.05848">
        <ele>707.19</ele>
        <time>2013-12-15T09:44:01Z</time>
      </trkpt>
      <trkpt lat="44.16356" lon="6.05849">
        <ele>708.63</ele>
        <time>2013-12-15T09:44:03Z</time>
      </trkpt>
      <trkpt lat="44.16355" lon="6.0585">
        <ele>709.59</ele>
        <time>2013-12-15T09:44:04Z</time>
      </trkpt>
      <trkpt lat="44.16351" lon="6.05851">
        <ele>711.99</ele>
        <time>2013-12-15T09:44:08Z</time>
      </trkpt>
      <trkpt lat="44.16346" lon="6.05851">
        <ele>716.32</ele>
        <time>2013-12-15T09:44:14Z</time>
      </trkpt>
      <trkpt lat="44.16344" lon="6.05852">
        <ele>716.8</ele>
        <time>2013-12-15T09:44:16Z</time>
      </trkpt>
      <trkpt lat="44.16342" lon="6.05855">
        <ele>718.24</ele>
        <time>2013-12-15T09:44:19Z</time>
      </trkpt>
      <trkpt lat="44.16338" lon="6.05857">
        <ele>720.65</ele>
        <time>2013-12-15T09:44:23Z</time>
      </trkpt>
      <trkpt lat="44.16332" lon="6.05857">
        <ele>724.97</ele>
        <time>2013-12-15T09:44:31Z</time>
      </trkpt>
      <trkpt lat="44.16327" lon="6.05865">
        <ele>727.86</ele>
        <time>2013-12-15T09:44:42Z</time>
      </trkpt>
      <trkpt lat="44.16322" lon="6.05872">
        <ele>729.3</ele>
        <time>2013-12-15T09:44:51Z</time>
      </trkpt>
      <trkpt lat="44.16321" lon="6.05874">
        <ele>729.78</ele>
        <time>2013-12-15T09:44:52Z</time>
      </trkpt>
      <trkpt lat="44.16315" lon="6.0588">
        <ele>731.22</ele>
        <time>2013-12-15T09:45:03Z</time>
      </trkpt>
      <trkpt lat="44.16307" lon="6.05885">
        <ele>732.18</ele>
        <time>2013-12-15T09:45:12Z</time>
      </trkpt>
      <trkpt lat="44.16304" lon="6.05887">
        <ele>732.66</ele>
        <time>2013-12-15T09:45:16Z</time>
      </trkpt>
      <trkpt lat="44.16299" lon="6.0589">
        <ele>731.7</ele>
        <time>2013-12-15T09:45:24Z</time>
      </trkpt>
      <trkpt lat="44.16293" lon="6.05892">
        <ele>733.62</ele>
        <time>2013-12-15T09:45:35Z</time>
      </trkpt>
      <trkpt lat="44.16288" lon="6.05898">
        <ele>734.1</ele>
        <time>2013-12-15T09:45:44Z</time>
      </trkpt>
      <trkpt lat="44.16285" lon="6.05902">
        <ele>734.58</ele>
        <time>2013-12-15T09:45:54Z</time>
      </trkpt>
      <trkpt lat="44.16285" lon="6.05905">
        <ele>734.58</ele>
        <time>2013-12-15T09:46:03Z</time>
      </trkpt>
      <trkpt lat="44.16278" lon="6.05908">
        <ele>736.03</ele>
        <time>2013-12-15T09:46:13Z</time>
      </trkpt>
      <trkpt lat="44.16279" lon="6.05905">
        <ele>735.07</ele>
        <time>2013-12-15T09:46:23Z</time>
      </trkpt>
      <trkpt lat="44.16277" lon="6.05907">
        <ele>735.55</ele>
        <time>2013-12-15T09:46:49Z</time>
      </trkpt>
      <trkpt lat="44.16274" lon="6.05912">
        <ele>736.03</ele>
        <time>2013-12-15T09:47:04Z</time>
      </trkpt>
      <trkpt lat="44.16268" lon="6.05921">
        <ele>736.51</ele>
        <time>2013-12-15T09:47:14Z</time>
      </trkpt>
      <trkpt lat="44.16262" lon="6.05925">
        <ele>736.51</ele>
        <time>2013-12-15T09:47:25Z</time>
      </trkpt>
      <trkpt lat="44.16258" lon="6.05933">
        <ele>738.43</ele>
        <time>2013-12-15T09:47:35Z</time>
      </trkpt>
      <trkpt lat="44.16255" lon="6.05947">
        <ele>739.39</ele>
        <time>2013-12-15T09:47:47Z</time>
      </trkpt>
      <trkpt lat="44.16249" lon="6.05955">
        <ele>740.83</ele>
        <time>2013-12-15T09:47:59Z</time>
      </trkpt>
      <trkpt lat="44.16248" lon="6.05956">
        <ele>741.31</ele>
        <time>2013-12-15T09:48:00Z</time>
      </trkpt>
      <trkpt lat="44.16247" lon="6.05966">
        <ele>741.79</ele>
        <time>2013-12-15T09:48:10Z</time>
      </trkpt>
      <trkpt lat="44.16245" lon="6.05974">
        <ele>742.76</ele>
        <time>2013-12-15T09:48:21Z</time>
      </trkpt>
      <trkpt lat="44.16245" lon="6.05984">
        <ele>742.76</ele>
        <time>2013-12-15T09:48:31Z</time>
      </trkpt>
      <trkpt lat="44.16249" lon="6.05994">
        <ele>744.2</ele>
        <time>2013-12-15T09:48:42Z</time>
      </trkpt>
      <trkpt lat="44.16251" lon="6.06006">
        <ele>746.12</ele>
        <time>2013-12-15T09:48:56Z</time>
      </trkpt>
      <trkpt lat="44.16251" lon="6.06012">
        <ele>747.08</ele>
        <time>2013-12-15T09:49:06Z</time>
      </trkpt>
      <trkpt lat="44.16248" lon="6.06022">
        <ele>747.08</ele>
        <time>2013-12-15T09:49:18Z</time>
      </trkpt>
      <trkpt lat="44.16244" lon="6.06033">
        <ele>748.04</ele>
        <time>2013-12-15T09:49:30Z</time>
      </trkpt>
      <trkpt lat="44.16246" lon="6.06043">
        <ele>750.93</ele>
        <time>2013-12-15T09:49:41Z</time>
      </trkpt>
      <trkpt lat="44.16252" lon="6.0605">
        <ele>751.41</ele>
        <time>2013-12-15T09:49:53Z</time>
      </trkpt>
      <trkpt lat="44.16257" lon="6.06056">
        <ele>751.89</ele>
        <time>2013-12-15T09:50:02Z</time>
      </trkpt>
      <trkpt lat="44.16266" lon="6.06063">
        <ele>752.85</ele>
        <time>2013-12-15T09:50:15Z</time>
      </trkpt>
      <trkpt lat="44.16271" lon="6.06071">
        <ele>754.29</ele>
        <time>2013-12-15T09:50:25Z</time>
      </trkpt>
      <trkpt lat="44.16269" lon="6.06084">
        <ele>754.77</ele>
        <time>2013-12-15T09:50:36Z</time>
      </trkpt>
      <trkpt lat="44.16268" lon="6.06093">
        <ele>756.21</ele>
        <time>2013-12-15T09:50:47Z</time>
      </trkpt>
      <trkpt lat="44.16269" lon="6.06104">
        <ele>756.69</ele>
        <time>2013-12-15T09:50:59Z</time>
      </trkpt>
      <trkpt lat="44.16272" lon="6.06112">
        <ele>757.66</ele>
        <time>2013-12-15T09:51:10Z</time>
      </trkpt>
      <trkpt lat="44.16272" lon="6.06114">
        <ele>757.66</ele>
        <time>2013-12-15T09:51:12Z</time>
      </trkpt>
      <trkpt lat="44.1627" lon="6.06123">
        <ele>758.62</ele>
        <time>2013-12-15T09:51:22Z</time>
      </trkpt>
      <trkpt lat="44.16271" lon="6.06133">
        <ele>758.14</ele>
        <time>2013-12-15T09:51:32Z</time>
      </trkpt>
      <trkpt lat="44.16266" lon="6.0614">
        <ele>759.1</ele>
        <time>2013-12-15T09:51:42Z</time>
      </trkpt>
      <trkpt lat="44.16262" lon="6.06146">
        <ele>760.54</ele>
        <time>2013-12-15T09:51:52Z</time>
      </trkpt>
      <trkpt lat="44.16259" lon="6.06152">
        <ele>761.98</ele>
        <time>2013-12-15T09:52:02Z</time>
      </trkpt>
      <trkpt lat="44.16258" lon="6.06159">
        <ele>763.42</ele>
        <time>2013-12-15T09:52:12Z</time>
      </trkpt>
      <trkpt lat="44.16262" lon="6.06166">
        <ele>763.9</ele>
        <time>2013-12-15T09:52:22Z</time>
      </trkpt>
      <trkpt lat="44.16267" lon="6.06174">
        <ele>765.35</ele>
        <time>2013-12-15T09:52:32Z</time>
      </trkpt>
      <trkpt lat="44.16269" lon="6.06181">
        <ele>765.83</ele>
        <time>2013-12-15T09:52:42Z</time>
      </trkpt>
      <trkpt lat="44.16273" lon="6.06187">
        <ele>766.79</ele>
        <time>2013-12-15T09:52:53Z</time>
      </trkpt>
      <trkpt lat="44.16278" lon="6.06192">
        <ele>767.27</ele>
        <time>2013-12-15T09:53:05Z</time>
      </trkpt>
      <trkpt lat="44.16283" lon="6.06201">
        <ele>768.23</ele>
        <time>2013-12-15T09:53:14Z</time>
      </trkpt>
      <trkpt lat="44.16287" lon="6.0621">
        <ele>769.19</ele>
        <time>2013-12-15T09:53:25Z</time>
      </trkpt>
      <trkpt lat="44.1629" lon="6.06217">
        <ele>769.67</ele>
        <time>2013-12-15T09:53:36Z</time>
      </trkpt>
      <trkpt lat="44.16289" lon="6.06222">
        <ele>770.15</ele>
        <time>2013-12-15T09:53:47Z</time>
      </trkpt>
      <trkpt lat="44.16284" lon="6.06222">
        <ele>770.15</ele>
        <time>2013-12-15T09:54:01Z</time>
      </trkpt>
      <trkpt lat="44.16282" lon="6.06222">
        <ele>770.15</ele>
        <time>2013-12-15T09:54:08Z</time>
      </trkpt>
      <trkpt lat="44.16279" lon="6.06222">
        <ele>769.67</ele>
        <time>2013-12-15T09:54:17Z</time>
      </trkpt>
      <trkpt lat="44.1628" lon="6.06221">
        <ele>769.67</ele>
        <time>2013-12-15T09:54:33Z</time>
      </trkpt>
      <trkpt lat="44.16278" lon="6.06213">
        <ele>769.67</ele>
        <time>2013-12-15T09:54:44Z</time>
      </trkpt>
      <trkpt lat="44.16279" lon="6.06208">
        <ele>768.71</ele>
        <time>2013-12-15T09:54:55Z</time>
      </trkpt>
      <trkpt lat="44.16278" lon="6.06198">
        <ele>767.75</ele>
        <time>2013-12-15T09:55:04Z</time>
      </trkpt>
      <trkpt lat="44.16276" lon="6.062">
        <ele>767.75</ele>
        <time>2013-12-15T09:55:15Z</time>
      </trkpt>
      <trkpt lat="44.1627" lon="6.06196">
        <ele>766.79</ele>
        <time>2013-12-15T09:55:25Z</time>
      </trkpt>
      <trkpt lat="44.16268" lon="6.06198">
        <ele>768.71</ele>
        <time>2013-12-15T09:55:34Z</time>
      </trkpt>
      <trkpt lat="44.16266" lon="6.06204">
        <ele>768.71</ele>
        <time>2013-12-15T09:55:46Z</time>
      </trkpt>
      <trkpt lat="44.16263" lon="6.0621">
        <ele>770.63</ele>
        <time>2013-12-15T09:55:55Z</time>
      </trkpt>
      <trkpt lat="44.16265" lon="6.06215">
        <ele>771.6</ele>
        <time>2013-12-15T09:56:05Z</time>
      </trkpt>
      <trkpt lat="44.16268" lon="6.0622">
        <ele>773.52</ele>
        <time>2013-12-15T09:56:15Z</time>
      </trkpt>
      <trkpt lat="44.16268" lon="6.06229">
        <ele>774.48</ele>
        <time>2013-12-15T09:56:24Z</time>
      </trkpt>
      <trkpt lat="44.16264" lon="6.06235">
        <ele>774.96</ele>
        <time>2013-12-15T09:56:41Z</time>
      </trkpt>
      <trkpt lat="44.16258" lon="6.06242">
        <ele>775.44</ele>
        <time>2013-12-15T09:56:51Z</time>
      </trkpt>
      <trkpt lat="44.16255" lon="6.06247">
        <ele>777.36</ele>
        <time>2013-12-15T09:57:01Z</time>
      </trkpt>
      <trkpt lat="44.16252" lon="6.06253">
        <ele>777.36</ele>
        <time>2013-12-15T09:57:12Z</time>
      </trkpt>
      <trkpt lat="44.16253" lon="6.06259">
        <ele>779.77</ele>
        <time>2013-12-15T09:57:24Z</time>
      </trkpt>
      <trkpt lat="44.16256" lon="6.06264">
        <ele>779.77</ele>
        <time>2013-12-15T09:57:33Z</time>
      </trkpt>
      <trkpt lat="44.16252" lon="6.06272">
        <ele>780.25</ele>
        <time>2013-12-15T09:57:44Z</time>
      </trkpt>
      <trkpt lat="44.16246" lon="6.06284">
        <ele>781.69</ele>
        <time>2013-12-15T09:57:58Z</time>
      </trkpt>
      <trkpt lat="44.16239" lon="6.06292">
        <ele>782.17</ele>
        <time>2013-12-15T09:58:08Z</time>
      </trkpt>
      <trkpt lat="44.16235" lon="6.06298">
        <ele>782.65</ele>
        <time>2013-12-15T09:58:16Z</time>
      </trkpt>
      <trkpt lat="44.16232" lon="6.06303">
        <ele>783.13</ele>
        <time>2013-12-15T09:58:26Z</time>
      </trkpt>
      <trkpt lat="44.16229" lon="6.06312">
        <ele>784.09</ele>
        <time>2013-12-15T09:58:36Z</time>
      </trkpt>
      <trkpt lat="44.16226" lon="6.06319">
        <ele>783.61</ele>
        <time>2013-12-15T09:58:45Z</time>
      </trkpt>
      <trkpt lat="44.16225" lon="6.06325">
        <ele>785.53</ele>
        <time>2013-12-15T09:58:54Z</time>
      </trkpt>
      <trkpt lat="44.16223" lon="6.0633">
        <ele>786.5</ele>
        <time>2013-12-15T09:59:03Z</time>
      </trkpt>
      <trkpt lat="44.16227" lon="6.06335">
        <ele>786.98</ele>
        <time>2013-12-15T09:59:13Z</time>
      </trkpt>
      <trkpt lat="44.16226" lon="6.06341">
        <ele>787.46</ele>
        <time>2013-12-15T09:59:21Z</time>
      </trkpt>
      <trkpt lat="44.16226" lon="6.06347">
        <ele>788.42</ele>
        <time>2013-12-15T09:59:30Z</time>
      </trkpt>
      <trkpt lat="44.16227" lon="6.0635">
        <ele>789.38</ele>
        <time>2013-12-15T09:59:46Z</time>
      </trkpt>
      <trkpt lat="44.16225" lon="6.06357">
        <ele>791.3</ele>
        <time>2013-12-15T09:59:55Z</time>
      </trkpt>
      <trkpt lat="44.16222" lon="6.06365">
        <ele>792.26</ele>
        <time>2013-12-15T10:00:06Z</time>
      </trkpt>
      <trkpt lat="44.16222" lon="6.06372">
        <ele>793.71</ele>
        <time>2013-12-15T10:00:17Z</time>
      </trkpt>
      <trkpt lat="44.16219" lon="6.06377">
        <ele>795.63</ele>
        <time>2013-12-15T10:00:29Z</time>
      </trkpt>
      <trkpt lat="44.16213" lon="6.06383">
        <ele>795.15</ele>
        <time>2013-12-15T10:00:39Z</time>
      </trkpt>
      <trkpt lat="44.16212" lon="6.06387">
        <ele>794.67</ele>
        <time>2013-12-15T10:00:54Z</time>
      </trkpt>
      <trkpt lat="44.16212" lon="6.06393">
        <ele>795.15</ele>
        <time>2013-12-15T10:01:04Z</time>
      </trkpt>
      <trkpt lat="44.16215" lon="6.06402">
        <ele>796.59</ele>
        <time>2013-12-15T10:01:14Z</time>
      </trkpt>
      <trkpt lat="44.16215" lon="6.06408">
        <ele>797.55</ele>
        <time>2013-12-15T10:01:25Z</time>
      </trkpt>
      <trkpt lat="44.16217" lon="6.06414">
        <ele>799.47</ele>
        <time>2013-12-15T10:01:34Z</time>
      </trkpt>
      <trkpt lat="44.16218" lon="6.06417">
        <ele>799.95</ele>
        <time>2013-12-15T10:01:48Z</time>
      </trkpt>
      <trkpt lat="44.16219" lon="6.06424">
        <ele>800.92</ele>
        <time>2013-12-15T10:01:58Z</time>
      </trkpt>
      <trkpt lat="44.16219" lon="6.06427">
        <ele>802.36</ele>
        <time>2013-12-15T10:02:05Z</time>
      </trkpt>
      <trkpt lat="44.16217" lon="6.06431">
        <ele>801.88</ele>
        <time>2013-12-15T10:02:15Z</time>
      </trkpt>
      <trkpt lat="44.16215" lon="6.06433">
        <ele>802.36</ele>
        <time>2013-12-15T10:02:18Z</time>
      </trkpt>
      <trkpt lat="44.16206" lon="6.06423">
        <ele>801.88</ele>
        <time>2013-12-15T10:02:31Z</time>
      </trkpt>
      <trkpt lat="44.16206" lon="6.06425">
        <ele>801.88</ele>
        <time>2013-12-15T10:02:43Z</time>
      </trkpt>
      <trkpt lat="44.16205" lon="6.06425">
        <ele>801.88</ele>
        <time>2013-12-15T10:02:59Z</time>
      </trkpt>
      <trkpt lat="44.16204" lon="6.0642">
        <ele>801.4</ele>
        <time>2013-12-15T10:03:15Z</time>
      </trkpt>
      <trkpt lat="44.16204" lon="6.06419">
        <ele>802.36</ele>
        <time>2013-12-15T10:03:20Z</time>
      </trkpt>
      <trkpt lat="44.16202" lon="6.06422">
        <ele>801.4</ele>
        <time>2013-12-15T10:03:41Z</time>
      </trkpt>
      <trkpt lat="44.16203" lon="6.06424">
        <ele>801.4</ele>
        <time>2013-12-15T10:04:03Z</time>
      </trkpt>
      <trkpt lat="44.162" lon="6.06425">
        <ele>800.44</ele>
        <time>2013-12-15T10:04:16Z</time>
      </trkpt>
      <trkpt lat="44.16198" lon="6.06422">
        <ele>801.88</ele>
        <time>2013-12-15T10:04:27Z</time>
      </trkpt>
      <trkpt lat="44.16199" lon="6.06422">
        <ele>801.88</ele>
        <time>2013-12-15T10:04:50Z</time>
      </trkpt>
      <trkpt lat="44.16199" lon="6.06421">
        <ele>801.88</ele>
        <time>2013-12-15T10:05:08Z</time>
      </trkpt>
      <trkpt lat="44.16198" lon="6.06419">
        <ele>801.88</ele>
        <time>2013-12-15T10:05:22Z</time>
      </trkpt>
      <trkpt lat="44.16195" lon="6.06424">
        <ele>802.84</ele>
        <time>2013-12-15T10:05:35Z</time>
      </trkpt>
      <trkpt lat="44.16188" lon="6.06429">
        <ele>804.28</ele>
        <time>2013-12-15T10:05:47Z</time>
      </trkpt>
      <trkpt lat="44.16189" lon="6.06433">
        <ele>806.2</ele>
        <time>2013-12-15T10:05:57Z</time>
      </trkpt>
      <trkpt lat="44.16192" lon="6.06441">
        <ele>807.64</ele>
        <time>2013-12-15T10:06:08Z</time>
      </trkpt>
      <trkpt lat="44.16192" lon="6.0644">
        <ele>807.16</ele>
        <time>2013-12-15T10:06:29Z</time>
      </trkpt>
      <trkpt lat="44.16198" lon="6.06437">
        <ele>807.16</ele>
        <time>2013-12-15T10:06:57Z</time>
      </trkpt>
      <trkpt lat="44.16199" lon="6.06437">
        <ele>807.16</ele>
        <time>2013-12-15T10:07:20Z</time>
      </trkpt>
      <trkpt lat="44.16202" lon="6.06443">
        <ele>809.09</ele>
        <time>2013-12-15T10:07:42Z</time>
      </trkpt>
      <trkpt lat="44.16195" lon="6.06455">
        <ele>809.57</ele>
        <time>2013-12-15T10:07:53Z</time>
      </trkpt>
      <trkpt lat="44.16188" lon="6.06465">
        <ele>812.45</ele>
        <time>2013-12-15T10:08:04Z</time>
      </trkpt>
      <trkpt lat="44.16184" lon="6.06457">
        <ele>812.93</ele>
        <time>2013-12-15T10:08:14Z</time>
      </trkpt>
      <trkpt lat="44.16182" lon="6.06452">
        <ele>814.37</ele>
        <time>2013-12-15T10:08:25Z</time>
      </trkpt>
      <trkpt lat="44.1618" lon="6.06453">
        <ele>814.37</ele>
        <time>2013-12-15T10:08:41Z</time>
      </trkpt>
      <trkpt lat="44.16178" lon="6.06461">
        <ele>816.78</ele>
        <time>2013-12-15T10:08:53Z</time>
      </trkpt>
      <trkpt lat="44.16175" lon="6.06467">
        <ele>818.7</ele>
        <time>2013-12-15T10:09:03Z</time>
      </trkpt>
      <trkpt lat="44.1617" lon="6.06461">
        <ele>821.1</ele>
        <time>2013-12-15T10:09:14Z</time>
      </trkpt>
      <trkpt lat="44.16167" lon="6.06463">
        <ele>822.55</ele>
        <time>2013-12-15T10:09:23Z</time>
      </trkpt>
      <trkpt lat="44.16169" lon="6.06471">
        <ele>823.99</ele>
        <time>2013-12-15T10:09:31Z</time>
      </trkpt>
      <trkpt lat="44.16165" lon="6.06475">
        <ele>825.91</ele>
        <time>2013-12-15T10:09:41Z</time>
      </trkpt>
      <trkpt lat="44.16159" lon="6.06468">
        <ele>827.83</ele>
        <time>2013-12-15T10:09:52Z</time>
      </trkpt>
      <trkpt lat="44.16157" lon="6.06477">
        <ele>830.72</ele>
        <time>2013-12-15T10:10:04Z</time>
      </trkpt>
      <trkpt lat="44.16153" lon="6.06479">
        <ele>832.64</ele>
        <time>2013-12-15T10:10:14Z</time>
      </trkpt>
      <trkpt lat="44.16146" lon="6.06476">
        <ele>835.04</ele>
        <time>2013-12-15T10:10:25Z</time>
      </trkpt>
      <trkpt lat="44.16143" lon="6.06478">
        <ele>836.48</ele>
        <time>2013-12-15T10:10:35Z</time>
      </trkpt>
      <trkpt lat="44.16147" lon="6.06483">
        <ele>837.45</ele>
        <time>2013-12-15T10:10:46Z</time>
      </trkpt>
      <trkpt lat="44.16146" lon="6.06488">
        <ele>837.45</ele>
        <time>2013-12-15T10:10:57Z</time>
      </trkpt>
      <trkpt lat="44.16146" lon="6.06487">
        <ele>838.41</ele>
        <time>2013-12-15T10:11:17Z</time>
      </trkpt>
      <trkpt lat="44.16145" lon="6.06489">
        <ele>838.41</ele>
        <time>2013-12-15T10:11:29Z</time>
      </trkpt>
      <trkpt lat="44.16147" lon="6.06489">
        <ele>838.41</ele>
        <time>2013-12-15T10:11:43Z</time>
      </trkpt>
      <trkpt lat="44.16145" lon="6.06488">
        <ele>837.93</ele>
        <time>2013-12-15T10:12:02Z</time>
      </trkpt>
      <trkpt lat="44.16145" lon="6.0649">
        <ele>837.93</ele>
        <time>2013-12-15T10:12:21Z</time>
      </trkpt>
      <trkpt lat="44.16145" lon="6.06492">
        <ele>837.93</ele>
        <time>2013-12-15T10:12:47Z</time>
      </trkpt>
      <trkpt lat="44.16144" lon="6.06492">
        <ele>838.41</ele>
        <time>2013-12-15T10:13:05Z</time>
      </trkpt>
      <trkpt lat="44.16144" lon="6.06495">
        <ele>838.41</ele>
        <time>2013-12-15T10:13:15Z</time>
      </trkpt>
      <trkpt lat="44.16139" lon="6.06492">
        <ele>840.81</ele>
        <time>2013-12-15T10:13:25Z</time>
      </trkpt>
      <trkpt lat="44.16134" lon="6.06495">
        <ele>842.73</ele>
        <time>2013-12-15T10:13:34Z</time>
      </trkpt>
      <trkpt lat="44.16132" lon="6.06498">
        <ele>844.18</ele>
        <time>2013-12-15T10:13:39Z</time>
      </trkpt>
      <trkpt lat="44.16128" lon="6.06504">
        <ele>846.1</ele>
        <time>2013-12-15T10:13:50Z</time>
      </trkpt>
      <trkpt lat="44.16128" lon="6.06507">
        <ele>846.58</ele>
        <time>2013-12-15T10:13:52Z</time>
      </trkpt>
      <trkpt lat="44.16123" lon="6.06505">
        <ele>848.98</ele>
        <time>2013-12-15T10:14:01Z</time>
      </trkpt>
      <trkpt lat="44.1612" lon="6.0651">
        <ele>850.42</ele>
        <time>2013-12-15T10:14:12Z</time>
      </trkpt>
      <trkpt lat="44.16121" lon="6.06512">
        <ele>850.42</ele>
        <time>2013-12-15T10:14:20Z</time>
      </trkpt>
      <trkpt lat="44.16119" lon="6.06515">
        <ele>852.35</ele>
        <time>2013-12-15T10:14:30Z</time>
      </trkpt>
      <trkpt lat="44.16111" lon="6.06516">
        <ele>854.75</ele>
        <time>2013-12-15T10:14:42Z</time>
      </trkpt>
      <trkpt lat="44.16108" lon="6.0652">
        <ele>856.67</ele>
        <time>2013-12-15T10:14:52Z</time>
      </trkpt>
      <trkpt lat="44.16105" lon="6.06525">
        <ele>859.56</ele>
        <time>2013-12-15T10:15:03Z</time>
      </trkpt>
      <trkpt lat="44.16105" lon="6.06531">
        <ele>861.96</ele>
        <time>2013-12-15T10:15:14Z</time>
      </trkpt>
      <trkpt lat="44.16102" lon="6.06536">
        <ele>861.96</ele>
        <time>2013-12-15T10:15:24Z</time>
      </trkpt>
      <trkpt lat="44.16102" lon="6.06536">
        <ele>865.8</ele>
        <time>2013-12-15T10:15:25Z</time>
      </trkpt>
      <trkpt lat="44.16104" lon="6.06544">
        <ele>866.29</ele>
        <time>2013-12-15T10:15:36Z</time>
      </trkpt>
      <trkpt lat="44.16103" lon="6.06553">
        <ele>867.25</ele>
        <time>2013-12-15T10:15:46Z</time>
      </trkpt>
      <trkpt lat="44.16103" lon="6.06553">
        <ele>867.73</ele>
        <time>2013-12-15T10:16:01Z</time>
      </trkpt>
      <trkpt lat="44.16104" lon="6.06553">
        <ele>867.73</ele>
        <time>2013-12-15T10:16:21Z</time>
      </trkpt>
      <trkpt lat="44.16106" lon="6.06553">
        <ele>867.73</ele>
        <time>2013-12-15T10:16:46Z</time>
      </trkpt>
      <trkpt lat="44.16106" lon="6.06555">
        <ele>867.73</ele>
        <time>2013-12-15T10:17:07Z</time>
      </trkpt>
      <trkpt lat="44.16105" lon="6.06555">
        <ele>867.73</ele>
        <time>2013-12-15T10:17:31Z</time>
      </trkpt>
      <trkpt lat="44.16104" lon="6.06556">
        <ele>867.73</ele>
        <time>2013-12-15T10:17:44Z</time>
      </trkpt>
      <trkpt lat="44.16099" lon="6.06552">
        <ele>869.65</ele>
        <time>2013-12-15T10:17:54Z</time>
      </trkpt>
      <trkpt lat="44.16093" lon="6.06549">
        <ele>871.09</ele>
        <time>2013-12-15T10:18:03Z</time>
      </trkpt>
      <trkpt lat="44.16086" lon="6.06552">
        <ele>874.94</ele>
        <time>2013-12-15T10:18:14Z</time>
      </trkpt>
      <trkpt lat="44.16085" lon="6.06555">
        <ele>875.9</ele>
        <time>2013-12-15T10:18:21Z</time>
      </trkpt>
      <trkpt lat="44.16089" lon="6.06562">
        <ele>877.34</ele>
        <time>2013-12-15T10:18:31Z</time>
      </trkpt>
      <trkpt lat="44.16083" lon="6.06568">
        <ele>879.26</ele>
        <time>2013-12-15T10:18:43Z</time>
      </trkpt>
      <trkpt lat="44.16078" lon="6.06574">
        <ele>880.71</ele>
        <time>2013-12-15T10:18:53Z</time>
      </trkpt>
      <trkpt lat="44.16076" lon="6.06568">
        <ele>883.11</ele>
        <time>2013-12-15T10:19:03Z</time>
      </trkpt>
      <trkpt lat="44.16069" lon="6.06569">
        <ele>885.03</ele>
        <time>2013-12-15T10:19:15Z</time>
      </trkpt>
      <trkpt lat="44.16063" lon="6.06576">
        <ele>886.47</ele>
        <time>2013-12-15T10:19:27Z</time>
      </trkpt>
      <trkpt lat="44.16063" lon="6.06576">
        <ele>887.91</ele>
        <time>2013-12-15T10:19:28Z</time>
      </trkpt>
      <trkpt lat="44.16056" lon="6.06574">
        <ele>889.36</ele>
        <time>2013-12-15T10:19:38Z</time>
      </trkpt>
      <trkpt lat="44.1605" lon="6.06577">
        <ele>890.8</ele>
        <time>2013-12-15T10:19:48Z</time>
      </trkpt>
      <trkpt lat="44.16044" lon="6.0658">
        <ele>893.2</ele>
        <time>2013-12-15T10:19:57Z</time>
      </trkpt>
      <trkpt lat="44.16036" lon="6.06585">
        <ele>894.64</ele>
        <time>2013-12-15T10:20:09Z</time>
      </trkpt>
      <trkpt lat="44.1603" lon="6.06586">
        <ele>896.09</ele>
        <time>2013-12-15T10:20:19Z</time>
      </trkpt>
      <trkpt lat="44.16025" lon="6.06586">
        <ele>897.53</ele>
        <time>2013-12-15T10:20:29Z</time>
      </trkpt>
      <trkpt lat="44.16019" lon="6.06589">
        <ele>898.97</ele>
        <time>2013-12-15T10:20:39Z</time>
      </trkpt>
      <trkpt lat="44.16014" lon="6.06594">
        <ele>899.93</ele>
        <time>2013-12-15T10:20:48Z</time>
      </trkpt>
      <trkpt lat="44.16009" lon="6.06591">
        <ele>901.85</ele>
        <time>2013-12-15T10:20:58Z</time>
      </trkpt>
      <trkpt lat="44.16004" lon="6.06592">
        <ele>902.33</ele>
        <time>2013-12-15T10:21:07Z</time>
      </trkpt>
      <trkpt lat="44.15997" lon="6.06592">
        <ele>904.74</ele>
        <time>2013-12-15T10:21:18Z</time>
      </trkpt>
      <trkpt lat="44.15992" lon="6.06594">
        <ele>907.14</ele>
        <time>2013-12-15T10:21:29Z</time>
      </trkpt>
      <trkpt lat="44.15988" lon="6.06595">
        <ele>909.06</ele>
        <time>2013-12-15T10:21:38Z</time>
      </trkpt>
      <trkpt lat="44.15985" lon="6.06601">
        <ele>910.51</ele>
        <time>2013-12-15T10:21:48Z</time>
      </trkpt>
      <trkpt lat="44.15979" lon="6.06605">
        <ele>911.95</ele>
        <time>2013-12-15T10:21:58Z</time>
      </trkpt>
      <trkpt lat="44.15974" lon="6.06599">
        <ele>913.87</ele>
        <time>2013-12-15T10:22:10Z</time>
      </trkpt>
      <trkpt lat="44.15968" lon="6.06601">
        <ele>916.75</ele>
        <time>2013-12-15T10:22:21Z</time>
      </trkpt>
      <trkpt lat="44.15966" lon="6.06603">
        <ele>917.72</ele>
        <time>2013-12-15T10:22:31Z</time>
      </trkpt>
      <trkpt lat="44.15968" lon="6.06605">
        <ele>918.68</ele>
        <time>2013-12-15T10:22:43Z</time>
      </trkpt>
      <trkpt lat="44.15969" lon="6.06606">
        <ele>918.68</ele>
        <time>2013-12-15T10:22:54Z</time>
      </trkpt>
      <trkpt lat="44.15969" lon="6.06606">
        <ele>918.68</ele>
        <time>2013-12-15T10:23:09Z</time>
      </trkpt>
      <trkpt lat="44.15968" lon="6.06609">
        <ele>919.64</ele>
        <time>2013-12-15T10:23:28Z</time>
      </trkpt>
      <trkpt lat="44.15961" lon="6.06617">
        <ele>921.08</ele>
        <time>2013-12-15T10:23:39Z</time>
      </trkpt>
      <trkpt lat="44.15957" lon="6.0661">
        <ele>923</ele>
        <time>2013-12-15T10:23:50Z</time>
      </trkpt>
      <trkpt lat="44.1595" lon="6.0661">
        <ele>923.96</ele>
        <time>2013-12-15T10:24:00Z</time>
      </trkpt>
      <trkpt lat="44.15948" lon="6.06613">
        <ele>925.89</ele>
        <time>2013-12-15T10:24:10Z</time>
      </trkpt>
      <trkpt lat="44.15948" lon="6.06619">
        <ele>927.81</ele>
        <time>2013-12-15T10:24:21Z</time>
      </trkpt>
      <trkpt lat="44.15941" lon="6.06616">
        <ele>929.73</ele>
        <time>2013-12-15T10:24:31Z</time>
      </trkpt>
      <trkpt lat="44.15935" lon="6.06617">
        <ele>931.65</ele>
        <time>2013-12-15T10:24:42Z</time>
      </trkpt>
      <trkpt lat="44.15934" lon="6.06621">
        <ele>933.58</ele>
        <time>2013-12-15T10:24:53Z</time>
      </trkpt>
      <trkpt lat="44.15928" lon="6.06624">
        <ele>935.98</ele>
        <time>2013-12-15T10:25:04Z</time>
      </trkpt>
      <trkpt lat="44.15919" lon="6.06622">
        <ele>937.42</ele>
        <time>2013-12-15T10:25:16Z</time>
      </trkpt>
      <trkpt lat="44.15911" lon="6.06624">
        <ele>939.83</ele>
        <time>2013-12-15T10:25:27Z</time>
      </trkpt>
      <trkpt lat="44.15909" lon="6.06626">
        <ele>941.27</ele>
        <time>2013-12-15T10:25:37Z</time>
      </trkpt>
      <trkpt lat="44.15913" lon="6.0663">
        <ele>942.71</ele>
        <time>2013-12-15T10:25:47Z</time>
      </trkpt>
      <trkpt lat="44.15909" lon="6.0664">
        <ele>945.11</ele>
        <time>2013-12-15T10:25:58Z</time>
      </trkpt>
      <trkpt lat="44.15904" lon="6.06641">
        <ele>945.11</ele>
        <time>2013-12-15T10:26:07Z</time>
      </trkpt>
      <trkpt lat="44.15901" lon="6.06636">
        <ele>948</ele>
        <time>2013-12-15T10:26:17Z</time>
      </trkpt>
      <trkpt lat="44.15895" lon="6.0664">
        <ele>948.96</ele>
        <time>2013-12-15T10:26:27Z</time>
      </trkpt>
      <trkpt lat="44.15891" lon="6.06647">
        <ele>951.36</ele>
        <time>2013-12-15T10:26:38Z</time>
      </trkpt>
      <trkpt lat="44.15888" lon="6.06653">
        <ele>952.8</ele>
        <time>2013-12-15T10:26:50Z</time>
      </trkpt>
      <trkpt lat="44.15883" lon="6.06649">
        <ele>954.25</ele>
        <time>2013-12-15T10:27:00Z</time>
      </trkpt>
      <trkpt lat="44.15875" lon="6.06651">
        <ele>957.13</ele>
        <time>2013-12-15T10:27:14Z</time>
      </trkpt>
      <trkpt lat="44.15872" lon="6.06652">
        <ele>958.09</ele>
        <time>2013-12-15T10:27:20Z</time>
      </trkpt>
      <trkpt lat="44.15868" lon="6.06654">
        <ele>960.01</ele>
        <time>2013-12-15T10:27:30Z</time>
      </trkpt>
      <trkpt lat="44.15866" lon="6.06654">
        <ele>962.42</ele>
        <time>2013-12-15T10:27:39Z</time>
      </trkpt>
      <trkpt lat="44.15861" lon="6.06657">
        <ele>963.38</ele>
        <time>2013-12-15T10:27:50Z</time>
      </trkpt>
      <trkpt lat="44.15864" lon="6.06663">
        <ele>964.34</ele>
        <time>2013-12-15T10:28:01Z</time>
      </trkpt>
      <trkpt lat="44.15861" lon="6.06667">
        <ele>966.74</ele>
        <time>2013-12-15T10:28:11Z</time>
      </trkpt>
      <trkpt lat="44.15861" lon="6.06666">
        <ele>966.74</ele>
        <time>2013-12-15T10:28:29Z</time>
      </trkpt>
      <trkpt lat="44.1586" lon="6.06668">
        <ele>967.7</ele>
        <time>2013-12-15T10:28:44Z</time>
      </trkpt>
      <trkpt lat="44.15854" lon="6.0667">
        <ele>968.67</ele>
        <time>2013-12-15T10:28:53Z</time>
      </trkpt>
      <trkpt lat="44.15852" lon="6.0667">
        <ele>969.63</ele>
        <time>2013-12-15T10:28:55Z</time>
      </trkpt>
      <trkpt lat="44.15846" lon="6.06673">
        <ele>971.07</ele>
        <time>2013-12-15T10:29:07Z</time>
      </trkpt>
      <trkpt lat="44.15838" lon="6.06673">
        <ele>972.99</ele>
        <time>2013-12-15T10:29:17Z</time>
      </trkpt>
      <trkpt lat="44.1583" lon="6.06676">
        <ele>974.43</ele>
        <time>2013-12-15T10:29:27Z</time>
      </trkpt>
      <trkpt lat="44.1582" lon="6.06679">
        <ele>975.88</ele>
        <time>2013-12-15T10:29:39Z</time>
      </trkpt>
      <trkpt lat="44.15812" lon="6.06681">
        <ele>977.8</ele>
        <time>2013-12-15T10:29:51Z</time>
      </trkpt>
      <trkpt lat="44.15806" lon="6.06681">
        <ele>978.76</ele>
        <time>2013-12-15T10:30:00Z</time>
      </trkpt>
      <trkpt lat="44.15799" lon="6.06684">
        <ele>980.2</ele>
        <time>2013-12-15T10:30:10Z</time>
      </trkpt>
      <trkpt lat="44.15792" lon="6.06684">
        <ele>980.2</ele>
        <time>2013-12-15T10:30:18Z</time>
      </trkpt>
      <trkpt lat="44.15789" lon="6.06684">
        <ele>980.68</ele>
        <time>2013-12-15T10:30:28Z</time>
      </trkpt>
      <trkpt lat="44.15782" lon="6.06689">
        <ele>981.16</ele>
        <time>2013-12-15T10:30:38Z</time>
      </trkpt>
      <trkpt lat="44.15774" lon="6.06694">
        <ele>981.64</ele>
        <time>2013-12-15T10:30:47Z</time>
      </trkpt>
      <trkpt lat="44.15764" lon="6.06699">
        <ele>984.05</ele>
        <time>2013-12-15T10:30:59Z</time>
      </trkpt>
      <trkpt lat="44.15759" lon="6.06697">
        <ele>985.97</ele>
        <time>2013-12-15T10:31:09Z</time>
      </trkpt>
      <trkpt lat="44.15754" lon="6.06703">
        <ele>987.41</ele>
        <time>2013-12-15T10:31:22Z</time>
      </trkpt>
      <trkpt lat="44.15751" lon="6.06702">
        <ele>989.33</ele>
        <time>2013-12-15T10:31:32Z</time>
      </trkpt>
      <trkpt lat="44.15748" lon="6.06706">
        <ele>989.81</ele>
        <time>2013-12-15T10:31:43Z</time>
      </trkpt>
      <trkpt lat="44.15741" lon="6.06704">
        <ele>992.7</ele>
        <time>2013-12-15T10:31:54Z</time>
      </trkpt>
      <trkpt lat="44.15734" lon="6.06706">
        <ele>994.62</ele>
        <time>2013-12-15T10:32:03Z</time>
      </trkpt>
      <trkpt lat="44.15729" lon="6.06705">
        <ele>995.1</ele>
        <time>2013-12-15T10:32:12Z</time>
      </trkpt>
      <trkpt lat="44.15721" lon="6.06709">
        <ele>997.02</ele>
        <time>2013-12-15T10:32:24Z</time>
      </trkpt>
      <trkpt lat="44.15715" lon="6.06711">
        <ele>999.91</ele>
        <time>2013-12-15T10:32:36Z</time>
      </trkpt>
      <trkpt lat="44.15709" lon="6.0671">
        <ele>1001.83</ele>
        <time>2013-12-15T10:32:47Z</time>
      </trkpt>
      <trkpt lat="44.15702" lon="6.06706">
        <ele>1004.23</ele>
        <time>2013-12-15T10:33:00Z</time>
      </trkpt>
      <trkpt lat="44.15701" lon="6.06707">
        <ele>1005.68</ele>
        <time>2013-12-15T10:33:10Z</time>
      </trkpt>
      <trkpt lat="44.15705" lon="6.06713">
        <ele>1006.64</ele>
        <time>2013-12-15T10:33:19Z</time>
      </trkpt>
      <trkpt lat="44.157" lon="6.0672">
        <ele>1008.56</ele>
        <time>2013-12-15T10:33:30Z</time>
      </trkpt>
      <trkpt lat="44.15694" lon="6.06719">
        <ele>1010.48</ele>
        <time>2013-12-15T10:33:41Z</time>
      </trkpt>
      <trkpt lat="44.15688" lon="6.06713">
        <ele>1012.89</ele>
        <time>2013-12-15T10:33:53Z</time>
      </trkpt>
      <trkpt lat="44.15683" lon="6.06709">
        <ele>1013.85</ele>
        <time>2013-12-15T10:34:02Z</time>
      </trkpt>
      <trkpt lat="44.15677" lon="6.06706">
        <ele>1016.25</ele>
        <time>2013-12-15T10:34:13Z</time>
      </trkpt>
      <trkpt lat="44.15671" lon="6.06702">
        <ele>1018.17</ele>
        <time>2013-12-15T10:34:23Z</time>
      </trkpt>
      <trkpt lat="44.15665" lon="6.06696">
        <ele>1019.62</ele>
        <time>2013-12-15T10:34:35Z</time>
      </trkpt>
      <trkpt lat="44.15659" lon="6.06694">
        <ele>1022.02</ele>
        <time>2013-12-15T10:34:45Z</time>
      </trkpt>
      <trkpt lat="44.15652" lon="6.0669">
        <ele>1023.46</ele>
        <time>2013-12-15T10:34:56Z</time>
      </trkpt>
      <trkpt lat="44.15645" lon="6.06684">
        <ele>1025.38</ele>
        <time>2013-12-15T10:35:07Z</time>
      </trkpt>
      <trkpt lat="44.15642" lon="6.06682">
        <ele>1025.86</ele>
        <time>2013-12-15T10:35:12Z</time>
      </trkpt>
      <trkpt lat="44.15637" lon="6.06678">
        <ele>1026.83</ele>
        <time>2013-12-15T10:35:22Z</time>
      </trkpt>
      <trkpt lat="44.15637" lon="6.06668">
        <ele>1026.83</ele>
        <time>2013-12-15T10:35:37Z</time>
      </trkpt>
      <trkpt lat="44.15636" lon="6.06662">
        <ele>1026.83</ele>
        <time>2013-12-15T10:35:53Z</time>
      </trkpt>
      <trkpt lat="44.15634" lon="6.06659">
        <ele>1027.31</ele>
        <time>2013-12-15T10:36:08Z</time>
      </trkpt>
      <trkpt lat="44.15628" lon="6.06656">
        <ele>1027.31</ele>
        <time>2013-12-15T10:36:29Z</time>
      </trkpt>
      <trkpt lat="44.15633" lon="6.06656">
        <ele>1027.31</ele>
        <time>2013-12-15T10:36:54Z</time>
      </trkpt>
      <trkpt lat="44.15636" lon="6.06655">
        <ele>1027.31</ele>
        <time>2013-12-15T10:37:13Z</time>
      </trkpt>
      <trkpt lat="44.15638" lon="6.06653">
        <ele>1027.79</ele>
        <time>2013-12-15T10:37:33Z</time>
      </trkpt>
      <trkpt lat="44.15638" lon="6.06654">
        <ele>1027.31</ele>
        <time>2013-12-15T10:37:57Z</time>
      </trkpt>
      <trkpt lat="44.15633" lon="6.06655">
        <ele>1027.79</ele>
        <time>2013-12-15T10:38:08Z</time>
      </trkpt>
      <trkpt lat="44.15635" lon="6.06649">
        <ele>1027.31</ele>
        <time>2013-12-15T10:38:16Z</time>
      </trkpt>
      <trkpt lat="44.15637" lon="6.06641">
        <ele>1029.23</ele>
        <time>2013-12-15T10:38:27Z</time>
      </trkpt>
      <trkpt lat="44.15637" lon="6.06628">
        <ele>1031.63</ele>
        <time>2013-12-15T10:38:40Z</time>
      </trkpt>
      <trkpt lat="44.15637" lon="6.06619">
        <ele>1033.07</ele>
        <time>2013-12-15T10:38:50Z</time>
      </trkpt>
      <trkpt lat="44.15644" lon="6.06609">
        <ele>1035.48</ele>
        <time>2013-12-15T10:39:02Z</time>
      </trkpt>
      <trkpt lat="44.1565" lon="6.06599">
        <ele>1035.96</ele>
        <time>2013-12-15T10:39:12Z</time>
      </trkpt>
      <trkpt lat="44.15654" lon="6.06588">
        <ele>1037.88</ele>
        <time>2013-12-15T10:39:23Z</time>
      </trkpt>
      <trkpt lat="44.15658" lon="6.06584">
        <ele>1038.84</ele>
        <time>2013-12-15T10:39:35Z</time>
      </trkpt>
      <trkpt lat="44.1566" lon="6.06577">
        <ele>1039.8</ele>
        <time>2013-12-15T10:39:46Z</time>
      </trkpt>
      <trkpt lat="44.15661" lon="6.06577">
        <ele>1039.8</ele>
        <time>2013-12-15T10:39:57Z</time>
      </trkpt>
      <trkpt lat="44.15662" lon="6.06576">
        <ele>1039.8</ele>
        <time>2013-12-15T10:40:15Z</time>
      </trkpt>
      <trkpt lat="44.15662" lon="6.06575">
        <ele>1040.28</ele>
        <time>2013-12-15T10:40:26Z</time>
      </trkpt>
      <trkpt lat="44.15665" lon="6.06572">
        <ele>1040.76</ele>
        <time>2013-12-15T10:40:42Z</time>
      </trkpt>
      <trkpt lat="44.15664" lon="6.06566">
        <ele>1041.25</ele>
        <time>2013-12-15T10:41:01Z</time>
      </trkpt>
      <trkpt lat="44.15664" lon="6.06562">
        <ele>1041.73</ele>
        <time>2013-12-15T10:41:12Z</time>
      </trkpt>
      <trkpt lat="44.15665" lon="6.0656">
        <ele>1042.21</ele>
        <time>2013-12-15T10:41:14Z</time>
      </trkpt>
      <trkpt lat="44.15665" lon="6.06549">
        <ele>1043.17</ele>
        <time>2013-12-15T10:41:24Z</time>
      </trkpt>
      <trkpt lat="44.15665" lon="6.06547">
        <ele>1043.17</ele>
        <time>2013-12-15T10:41:39Z</time>
      </trkpt>
      <trkpt lat="44.15662" lon="6.06536">
        <ele>1045.57</ele>
        <time>2013-12-15T10:41:50Z</time>
      </trkpt>
      <trkpt lat="44.15661" lon="6.06524">
        <ele>1046.53</ele>
        <time>2013-12-15T10:42:02Z</time>
      </trkpt>
      <trkpt lat="44.1566" lon="6.06521">
        <ele>1046.53</ele>
        <time>2013-12-15T10:42:21Z</time>
      </trkpt>
      <trkpt lat="44.15659" lon="6.0652">
        <ele>1048.45</ele>
        <time>2013-12-15T10:42:30Z</time>
      </trkpt>
      <trkpt lat="44.15658" lon="6.06513">
        <ele>1050.38</ele>
        <time>2013-12-15T10:42:41Z</time>
      </trkpt>
      <trkpt lat="44.15655" lon="6.06508">
        <ele>1053.26</ele>
        <time>2013-12-15T10:42:51Z</time>
      </trkpt>
      <trkpt lat="44.15654" lon="6.06503">
        <ele>1054.7</ele>
        <time>2013-12-15T10:43:01Z</time>
      </trkpt>
      <trkpt lat="44.15655" lon="6.06495">
        <ele>1055.18</ele>
        <time>2013-12-15T10:43:15Z</time>
      </trkpt>
      <trkpt lat="44.15654" lon="6.06487">
        <ele>1058.55</ele>
        <time>2013-12-15T10:43:26Z</time>
      </trkpt>
      <trkpt lat="44.15657" lon="6.06476">
        <ele>1059.03</ele>
        <time>2013-12-15T10:43:36Z</time>
      </trkpt>
      <trkpt lat="44.15658" lon="6.0647">
        <ele>1060.95</ele>
        <time>2013-12-15T10:43:49Z</time>
      </trkpt>
      <trkpt lat="44.15656" lon="6.06458">
        <ele>1063.36</ele>
        <time>2013-12-15T10:43:59Z</time>
      </trkpt>
      <trkpt lat="44.15658" lon="6.06445">
        <ele>1065.76</ele>
        <time>2013-12-15T10:44:09Z</time>
      </trkpt>
      <trkpt lat="44.15658" lon="6.06437">
        <ele>1066.24</ele>
        <time>2013-12-15T10:44:21Z</time>
      </trkpt>
      <trkpt lat="44.15656" lon="6.06429">
        <ele>1068.64</ele>
        <time>2013-12-15T10:44:32Z</time>
      </trkpt>
      <trkpt lat="44.1565" lon="6.06432">
        <ele>1070.08</ele>
        <time>2013-12-15T10:44:42Z</time>
      </trkpt>
      <trkpt lat="44.15644" lon="6.06429">
        <ele>1072.01</ele>
        <time>2013-12-15T10:44:53Z</time>
      </trkpt>
      <trkpt lat="44.15644" lon="6.06425">
        <ele>1072.97</ele>
        <time>2013-12-15T10:45:04Z</time>
      </trkpt>
      <trkpt lat="44.15645" lon="6.06421">
        <ele>1072.49</ele>
        <time>2013-12-15T10:45:27Z</time>
      </trkpt>
      <trkpt lat="44.15639" lon="6.06426">
        <ele>1073.45</ele>
        <time>2013-12-15T10:45:44Z</time>
      </trkpt>
      <trkpt lat="44.15632" lon="6.06435">
        <ele>1074.89</ele>
        <time>2013-12-15T10:45:56Z</time>
      </trkpt>
      <trkpt lat="44.15633" lon="6.06444">
        <ele>1077.29</ele>
        <time>2013-12-15T10:46:07Z</time>
      </trkpt>
      <trkpt lat="44.15628" lon="6.06448">
        <ele>1078.74</ele>
        <time>2013-12-15T10:46:17Z</time>
      </trkpt>
      <trkpt lat="44.15629" lon="6.06455">
        <ele>1080.18</ele>
        <time>2013-12-15T10:46:27Z</time>
      </trkpt>
      <trkpt lat="44.15621" lon="6.06458">
        <ele>1081.62</ele>
        <time>2013-12-15T10:46:37Z</time>
      </trkpt>
      <trkpt lat="44.15618" lon="6.06455">
        <ele>1080.66</ele>
        <time>2013-12-15T10:46:50Z</time>
      </trkpt>
      <trkpt lat="44.15618" lon="6.06458">
        <ele>1080.66</ele>
        <time>2013-12-15T10:47:11Z</time>
      </trkpt>
      <trkpt lat="44.15617" lon="6.06456">
        <ele>1081.14</ele>
        <time>2013-12-15T10:47:35Z</time>
      </trkpt>
      <trkpt lat="44.15618" lon="6.0646">
        <ele>1081.14</ele>
        <time>2013-12-15T10:48:01Z</time>
      </trkpt>
      <trkpt lat="44.15622" lon="6.06463">
        <ele>1081.14</ele>
        <time>2013-12-15T10:48:10Z</time>
      </trkpt>
      <trkpt lat="44.15621" lon="6.06467">
        <ele>1083.06</ele>
        <time>2013-12-15T10:48:21Z</time>
      </trkpt>
      <trkpt lat="44.1562" lon="6.06465">
        <ele>1083.06</ele>
        <time>2013-12-15T10:48:37Z</time>
      </trkpt>
      <trkpt lat="44.15617" lon="6.06469">
        <ele>1084.02</ele>
        <time>2013-12-15T10:49:01Z</time>
      </trkpt>
      <trkpt lat="44.15614" lon="6.06475">
        <ele>1084.99</ele>
        <time>2013-12-15T10:49:11Z</time>
      </trkpt>
      <trkpt lat="44.15607" lon="6.0648">
        <ele>1087.39</ele>
        <time>2013-12-15T10:49:22Z</time>
      </trkpt>
      <trkpt lat="44.15599" lon="6.06482">
        <ele>1087.39</ele>
        <time>2013-12-15T10:49:32Z</time>
      </trkpt>
      <trkpt lat="44.15591" lon="6.06489">
        <ele>1088.83</ele>
        <time>2013-12-15T10:49:43Z</time>
      </trkpt>
      <trkpt lat="44.15586" lon="6.06494">
        <ele>1088.35</ele>
        <time>2013-12-15T10:49:53Z</time>
      </trkpt>
      <trkpt lat="44.15591" lon="6.06508">
        <ele>1087.39</ele>
        <time>2013-12-15T10:50:06Z</time>
      </trkpt>
      <trkpt lat="44.15596" lon="6.06519">
        <ele>1084.99</ele>
        <time>2013-12-15T10:50:19Z</time>
      </trkpt>
      <trkpt lat="44.15594" lon="6.06524">
        <ele>1083.06</ele>
        <time>2013-12-15T10:50:29Z</time>
      </trkpt>
      <trkpt lat="44.15587" lon="6.0653">
        <ele>1082.1</ele>
        <time>2013-12-15T10:50:41Z</time>
      </trkpt>
      <trkpt lat="44.15576" lon="6.06539">
        <ele>1083.54</ele>
        <time>2013-12-15T10:50:53Z</time>
      </trkpt>
      <trkpt lat="44.15567" lon="6.0655">
        <ele>1085.95</ele>
        <time>2013-12-15T10:51:04Z</time>
      </trkpt>
      <trkpt lat="44.15565" lon="6.06548">
        <ele>1086.91</ele>
        <time>2013-12-15T10:51:17Z</time>
      </trkpt>
      <trkpt lat="44.15562" lon="6.06553">
        <ele>1087.39</ele>
        <time>2013-12-15T10:51:29Z</time>
      </trkpt>
      <trkpt lat="44.15554" lon="6.06562">
        <ele>1089.31</ele>
        <time>2013-12-15T10:51:41Z</time>
      </trkpt>
      <trkpt lat="44.15548" lon="6.06569">
        <ele>1091.23</ele>
        <time>2013-12-15T10:51:51Z</time>
      </trkpt>
      <trkpt lat="44.15541" lon="6.06579">
        <ele>1094.12</ele>
        <time>2013-12-15T10:52:02Z</time>
      </trkpt>
      <trkpt lat="44.15536" lon="6.06587">
        <ele>1096.52</ele>
        <time>2013-12-15T10:52:15Z</time>
      </trkpt>
      <trkpt lat="44.15532" lon="6.06594">
        <ele>1097.48</ele>
        <time>2013-12-15T10:52:24Z</time>
      </trkpt>
      <trkpt lat="44.1553" lon="6.06599">
        <ele>1097.48</ele>
        <time>2013-12-15T10:52:28Z</time>
      </trkpt>
      <trkpt lat="44.15525" lon="6.06607">
        <ele>1098.44</ele>
        <time>2013-12-15T10:52:38Z</time>
      </trkpt>
      <trkpt lat="44.1552" lon="6.06623">
        <ele>1099.4</ele>
        <time>2013-12-15T10:52:50Z</time>
      </trkpt>
      <trkpt lat="44.15512" lon="6.06632">
        <ele>1099.89</ele>
        <time>2013-12-15T10:52:59Z</time>
      </trkpt>
      <trkpt lat="44.15509" lon="6.0664">
        <ele>1101.33</ele>
        <time>2013-12-15T10:53:08Z</time>
      </trkpt>
      <trkpt lat="44.15503" lon="6.06647">
        <ele>1103.25</ele>
        <time>2013-12-15T10:53:19Z</time>
      </trkpt>
      <trkpt lat="44.15492" lon="6.06645">
        <ele>1105.17</ele>
        <time>2013-12-15T10:53:30Z</time>
      </trkpt>
      <trkpt lat="44.15481" lon="6.0665">
        <ele>1106.61</ele>
        <time>2013-12-15T10:53:41Z</time>
      </trkpt>
      <trkpt lat="44.15481" lon="6.06653">
        <ele>1108.54</ele>
        <time>2013-12-15T10:53:51Z</time>
      </trkpt>
      <trkpt lat="44.15487" lon="6.06654">
        <ele>1109.5</ele>
        <time>2013-12-15T10:54:00Z</time>
      </trkpt>
      <trkpt lat="44.15493" lon="6.0666">
        <ele>1110.94</ele>
        <time>2013-12-15T10:54:09Z</time>
      </trkpt>
      <trkpt lat="44.15488" lon="6.06668">
        <ele>1113.34</ele>
        <time>2013-12-15T10:54:20Z</time>
      </trkpt>
      <trkpt lat="44.15487" lon="6.06667">
        <ele>1113.82</ele>
        <time>2013-12-15T10:54:21Z</time>
      </trkpt>
      <trkpt lat="44.15479" lon="6.06668">
        <ele>1114.79</ele>
        <time>2013-12-15T10:54:30Z</time>
      </trkpt>
      <trkpt lat="44.15472" lon="6.06674">
        <ele>1116.71</ele>
        <time>2013-12-15T10:54:41Z</time>
      </trkpt>
      <trkpt lat="44.15472" lon="6.06678">
        <ele>1118.63</ele>
        <time>2013-12-15T10:54:52Z</time>
      </trkpt>
      <trkpt lat="44.15476" lon="6.06681">
        <ele>1120.55</ele>
        <time>2013-12-15T10:55:02Z</time>
      </trkpt>
      <trkpt lat="44.15482" lon="6.06687">
        <ele>1122.96</ele>
        <time>2013-12-15T10:55:12Z</time>
      </trkpt>
      <trkpt lat="44.1548" lon="6.06693">
        <ele>1123.92</ele>
        <time>2013-12-15T10:55:22Z</time>
      </trkpt>
      <trkpt lat="44.1548" lon="6.06703">
        <ele>1124.88</ele>
        <time>2013-12-15T10:55:36Z</time>
      </trkpt>
      <trkpt lat="44.15479" lon="6.06713">
        <ele>1127.28</ele>
        <time>2013-12-15T10:55:49Z</time>
      </trkpt>
      <trkpt lat="44.15476" lon="6.06715">
        <ele>1129.21</ele>
        <time>2013-12-15T10:56:04Z</time>
      </trkpt>
      <trkpt lat="44.15473" lon="6.06713">
        <ele>1128.73</ele>
        <time>2013-12-15T10:56:33Z</time>
      </trkpt>
      <trkpt lat="44.15474" lon="6.06712">
        <ele>1129.21</ele>
        <time>2013-12-15T10:57:04Z</time>
      </trkpt>
      <trkpt lat="44.15471" lon="6.06717">
        <ele>1130.65</ele>
        <time>2013-12-15T10:57:17Z</time>
      </trkpt>
      <trkpt lat="44.15468" lon="6.0672">
        <ele>1132.57</ele>
        <time>2013-12-15T10:57:26Z</time>
      </trkpt>
      <trkpt lat="44.15466" lon="6.0672">
        <ele>1134.01</ele>
        <time>2013-12-15T10:57:30Z</time>
      </trkpt>
      <trkpt lat="44.1546" lon="6.06722">
        <ele>1135.94</ele>
        <time>2013-12-15T10:57:41Z</time>
      </trkpt>
      <trkpt lat="44.15461" lon="6.06726">
        <ele>1138.82</ele>
        <time>2013-12-15T10:57:52Z</time>
      </trkpt>
      <trkpt lat="44.15463" lon="6.06729">
        <ele>1140.26</ele>
        <time>2013-12-15T10:57:56Z</time>
      </trkpt>
      <trkpt lat="44.15458" lon="6.06733">
        <ele>1141.7</ele>
        <time>2013-12-15T10:58:06Z</time>
      </trkpt>
      <trkpt lat="44.15454" lon="6.06737">
        <ele>1143.63</ele>
        <time>2013-12-15T10:58:12Z</time>
      </trkpt>
      <trkpt lat="44.15455" lon="6.06743">
        <ele>1146.51</ele>
        <time>2013-12-15T10:58:22Z</time>
      </trkpt>
      <trkpt lat="44.15452" lon="6.06749">
        <ele>1148.43</ele>
        <time>2013-12-15T10:58:33Z</time>
      </trkpt>
      <trkpt lat="44.15448" lon="6.06755">
        <ele>1151.8</ele>
        <time>2013-12-15T10:58:46Z</time>
      </trkpt>
      <trkpt lat="44.15447" lon="6.06758">
        <ele>1152.76</ele>
        <time>2013-12-15T10:58:51Z</time>
      </trkpt>
      <trkpt lat="44.15441" lon="6.06764">
        <ele>1155.16</ele>
        <time>2013-12-15T10:59:02Z</time>
      </trkpt>
      <trkpt lat="44.15434" lon="6.06762">
        <ele>1155.64</ele>
        <time>2013-12-15T10:59:13Z</time>
      </trkpt>
      <trkpt lat="44.15434" lon="6.06762">
        <ele>1155.16</ele>
        <time>2013-12-15T10:59:36Z</time>
      </trkpt>
      <trkpt lat="44.15436" lon="6.0676">
        <ele>1155.16</ele>
        <time>2013-12-15T10:59:58Z</time>
      </trkpt>
      <trkpt lat="44.15436" lon="6.06759">
        <ele>1155.16</ele>
        <time>2013-12-15T11:00:17Z</time>
      </trkpt>
      <trkpt lat="44.15436" lon="6.06756">
        <ele>1155.16</ele>
        <time>2013-12-15T11:00:31Z</time>
      </trkpt>
      <trkpt lat="44.15433" lon="6.06755">
        <ele>1155.16</ele>
        <time>2013-12-15T11:00:49Z</time>
      </trkpt>
      <trkpt lat="44.15434" lon="6.06755">
        <ele>1155.64</ele>
        <time>2013-12-15T11:01:08Z</time>
      </trkpt>
      <trkpt lat="44.15432" lon="6.06757">
        <ele>1156.12</ele>
        <time>2013-12-15T11:01:19Z</time>
      </trkpt>
      <trkpt lat="44.15431" lon="6.06759">
        <ele>1155.64</ele>
        <time>2013-12-15T11:01:38Z</time>
      </trkpt>
      <trkpt lat="44.1543" lon="6.06761">
        <ele>1155.16</ele>
        <time>2013-12-15T11:02:02Z</time>
      </trkpt>
      <trkpt lat="44.1543" lon="6.06762">
        <ele>1155.64</ele>
        <time>2013-12-15T11:02:15Z</time>
      </trkpt>
      <trkpt lat="44.15431" lon="6.06759">
        <ele>1156.12</ele>
        <time>2013-12-15T11:02:36Z</time>
      </trkpt>
      <trkpt lat="44.15431" lon="6.06758">
        <ele>1156.12</ele>
        <time>2013-12-15T11:02:55Z</time>
      </trkpt>
      <trkpt lat="44.15432" lon="6.06762">
        <ele>1156.6</ele>
        <time>2013-12-15T11:03:08Z</time>
      </trkpt>
      <trkpt lat="44.15433" lon="6.06772">
        <ele>1158.53</ele>
        <time>2013-12-15T11:03:19Z</time>
      </trkpt>
      <trkpt lat="44.15429" lon="6.06775">
        <ele>1159.97</ele>
        <time>2013-12-15T11:03:29Z</time>
      </trkpt>
      <trkpt lat="44.1542" lon="6.06775">
        <ele>1160.93</ele>
        <time>2013-12-15T11:03:39Z</time>
      </trkpt>
      <trkpt lat="44.15417" lon="6.06778">
        <ele>1162.37</ele>
        <time>2013-12-15T11:03:49Z</time>
      </trkpt>
      <trkpt lat="44.15419" lon="6.06786">
        <ele>1164.29</ele>
        <time>2013-12-15T11:03:59Z</time>
      </trkpt>
      <trkpt lat="44.15416" lon="6.06788">
        <ele>1165.74</ele>
        <time>2013-12-15T11:04:09Z</time>
      </trkpt>
      <trkpt lat="44.1541" lon="6.06794">
        <ele>1167.66</ele>
        <time>2013-12-15T11:04:20Z</time>
      </trkpt>
      <trkpt lat="44.15405" lon="6.06798">
        <ele>1171.02</ele>
        <time>2013-12-15T11:04:28Z</time>
      </trkpt>
      <trkpt lat="44.15404" lon="6.06807">
        <ele>1172.95</ele>
        <time>2013-12-15T11:04:39Z</time>
      </trkpt>
      <trkpt lat="44.15402" lon="6.06816">
        <ele>1174.87</ele>
        <time>2013-12-15T11:04:50Z</time>
      </trkpt>
      <trkpt lat="44.15396" lon="6.06822">
        <ele>1176.31</ele>
        <time>2013-12-15T11:05:00Z</time>
      </trkpt>
      <trkpt lat="44.15391" lon="6.06827">
        <ele>1179.67</ele>
        <time>2013-12-15T11:05:11Z</time>
      </trkpt>
      <trkpt lat="44.15384" lon="6.06829">
        <ele>1181.6</ele>
        <time>2013-12-15T11:05:23Z</time>
      </trkpt>
      <trkpt lat="44.15379" lon="6.06831">
        <ele>1184.48</ele>
        <time>2013-12-15T11:05:34Z</time>
      </trkpt>
      <trkpt lat="44.15378" lon="6.06837">
        <ele>1186.88</ele>
        <time>2013-12-15T11:05:46Z</time>
      </trkpt>
      <trkpt lat="44.15375" lon="6.06842">
        <ele>1187.85</ele>
        <time>2013-12-15T11:05:55Z</time>
      </trkpt>
      <trkpt lat="44.15371" lon="6.06849">
        <ele>1191.69</ele>
        <time>2013-12-15T11:06:08Z</time>
      </trkpt>
      <trkpt lat="44.15369" lon="6.06852">
        <ele>1192.65</ele>
        <time>2013-12-15T11:06:19Z</time>
      </trkpt>
      <trkpt lat="44.15365" lon="6.06857">
        <ele>1194.09</ele>
        <time>2013-12-15T11:06:30Z</time>
      </trkpt>
      <trkpt lat="44.15357" lon="6.06857">
        <ele>1197.46</ele>
        <time>2013-12-15T11:06:41Z</time>
      </trkpt>
      <trkpt lat="44.15352" lon="6.06858">
        <ele>1198.42</ele>
        <time>2013-12-15T11:06:50Z</time>
      </trkpt>
      <trkpt lat="44.15346" lon="6.0686">
        <ele>1200.34</ele>
        <time>2013-12-15T11:07:00Z</time>
      </trkpt>
      <trkpt lat="44.15339" lon="6.06865">
        <ele>1202.75</ele>
        <time>2013-12-15T11:07:12Z</time>
      </trkpt>
      <trkpt lat="44.1534" lon="6.06868">
        <ele>1205.15</ele>
        <time>2013-12-15T11:07:24Z</time>
      </trkpt>
      <trkpt lat="44.15346" lon="6.06872">
        <ele>1207.55</ele>
        <time>2013-12-15T11:07:34Z</time>
      </trkpt>
      <trkpt lat="44.15348" lon="6.06878">
        <ele>1208.51</ele>
        <time>2013-12-15T11:07:46Z</time>
      </trkpt>
      <trkpt lat="44.15348" lon="6.06886">
        <ele>1210.44</ele>
        <time>2013-12-15T11:07:57Z</time>
      </trkpt>
      <trkpt lat="44.15345" lon="6.06888">
        <ele>1209.96</ele>
        <time>2013-12-15T11:08:11Z</time>
      </trkpt>
      <trkpt lat="44.15344" lon="6.06887">
        <ele>1209.96</ele>
        <time>2013-12-15T11:08:27Z</time>
      </trkpt>
      <trkpt lat="44.1534" lon="6.06887">
        <ele>1211.4</ele>
        <time>2013-12-15T11:08:39Z</time>
      </trkpt>
      <trkpt lat="44.15333" lon="6.06889">
        <ele>1213.32</ele>
        <time>2013-12-15T11:08:49Z</time>
      </trkpt>
      <trkpt lat="44.1533" lon="6.06895">
        <ele>1215.72</ele>
        <time>2013-12-15T11:09:02Z</time>
      </trkpt>
      <trkpt lat="44.15325" lon="6.06899">
        <ele>1217.17</ele>
        <time>2013-12-15T11:09:13Z</time>
      </trkpt>
      <trkpt lat="44.15317" lon="6.06906">
        <ele>1220.05</ele>
        <time>2013-12-15T11:09:25Z</time>
      </trkpt>
      <trkpt lat="44.15311" lon="6.06912">
        <ele>1221.97</ele>
        <time>2013-12-15T11:09:36Z</time>
      </trkpt>
      <trkpt lat="44.15306" lon="6.06919">
        <ele>1223.42</ele>
        <time>2013-12-15T11:09:47Z</time>
      </trkpt>
      <trkpt lat="44.15304" lon="6.06929">
        <ele>1226.78</ele>
        <time>2013-12-15T11:09:59Z</time>
      </trkpt>
      <trkpt lat="44.153" lon="6.06933">
        <ele>1228.22</ele>
        <time>2013-12-15T11:10:07Z</time>
      </trkpt>
      <trkpt lat="44.15297" lon="6.06939">
        <ele>1229.66</ele>
        <time>2013-12-15T11:10:18Z</time>
      </trkpt>
      <trkpt lat="44.15296" lon="6.06942">
        <ele>1232.07</ele>
        <time>2013-12-15T11:10:23Z</time>
      </trkpt>
      <trkpt lat="44.15296" lon="6.06946">
        <ele>1232.55</ele>
        <time>2013-12-15T11:10:33Z</time>
      </trkpt>
      <trkpt lat="44.15292" lon="6.06952">
        <ele>1234.47</ele>
        <time>2013-12-15T11:10:42Z</time>
      </trkpt>
      <trkpt lat="44.15287" lon="6.06958">
        <ele>1236.39</ele>
        <time>2013-12-15T11:10:51Z</time>
      </trkpt>
      <trkpt lat="44.15284" lon="6.06965">
        <ele>1238.8</ele>
        <time>2013-12-15T11:11:01Z</time>
      </trkpt>
      <trkpt lat="44.15278" lon="6.0697">
        <ele>1240.72</ele>
        <time>2013-12-15T11:11:11Z</time>
      </trkpt>
      <trkpt lat="44.15276" lon="6.06971">
        <ele>1241.68</ele>
        <time>2013-12-15T11:11:14Z</time>
      </trkpt>
      <trkpt lat="44.15272" lon="6.06977">
        <ele>1242.64</ele>
        <time>2013-12-15T11:11:24Z</time>
      </trkpt>
      <trkpt lat="44.15265" lon="6.06982">
        <ele>1244.56</ele>
        <time>2013-12-15T11:11:33Z</time>
      </trkpt>
      <trkpt lat="44.15259" lon="6.06989">
        <ele>1246.49</ele>
        <time>2013-12-15T11:11:43Z</time>
      </trkpt>
      <trkpt lat="44.15252" lon="6.06995">
        <ele>1248.41</ele>
        <time>2013-12-15T11:11:54Z</time>
      </trkpt>
      <trkpt lat="44.15244" lon="6.07003">
        <ele>1249.85</ele>
        <time>2013-12-15T11:12:05Z</time>
      </trkpt>
      <trkpt lat="44.1524" lon="6.0701">
        <ele>1252.74</ele>
        <time>2013-12-15T11:12:18Z</time>
      </trkpt>
      <trkpt lat="44.15231" lon="6.07017">
        <ele>1255.14</ele>
        <time>2013-12-15T11:12:31Z</time>
      </trkpt>
      <trkpt lat="44.15224" lon="6.07021">
        <ele>1257.54</ele>
        <time>2013-12-15T11:12:42Z</time>
      </trkpt>
      <trkpt lat="44.15214" lon="6.07027">
        <ele>1258.5</ele>
        <time>2013-12-15T11:12:52Z</time>
      </trkpt>
      <trkpt lat="44.15207" lon="6.07032">
        <ele>1259.46</ele>
        <time>2013-12-15T11:13:02Z</time>
      </trkpt>
      <trkpt lat="44.15203" lon="6.07036">
        <ele>1262.83</ele>
        <time>2013-12-15T11:13:13Z</time>
      </trkpt>
      <trkpt lat="44.15203" lon="6.07036">
        <ele>1262.35</ele>
        <time>2013-12-15T11:13:14Z</time>
      </trkpt>
      <trkpt lat="44.15203" lon="6.0704">
        <ele>1265.71</ele>
        <time>2013-12-15T11:13:24Z</time>
      </trkpt>
      <trkpt lat="44.152" lon="6.07048">
        <ele>1268.12</ele>
        <time>2013-12-15T11:13:35Z</time>
      </trkpt>
      <trkpt lat="44.15195" lon="6.07055">
        <ele>1270.04</ele>
        <time>2013-12-15T11:13:46Z</time>
      </trkpt>
      <trkpt lat="44.15188" lon="6.07059">
        <ele>1272.44</ele>
        <time>2013-12-15T11:13:58Z</time>
      </trkpt>
      <trkpt lat="44.15186" lon="6.07068">
        <ele>1274.36</ele>
        <time>2013-12-15T11:14:09Z</time>
      </trkpt>
      <trkpt lat="44.15179" lon="6.07075">
        <ele>1276.29</ele>
        <time>2013-12-15T11:14:19Z</time>
      </trkpt>
      <trkpt lat="44.15174" lon="6.07079">
        <ele>1276.29</ele>
        <time>2013-12-15T11:14:25Z</time>
      </trkpt>
      <trkpt lat="44.15169" lon="6.07084">
        <ele>1276.77</ele>
        <time>2013-12-15T11:14:31Z</time>
      </trkpt>
      <trkpt lat="44.15167" lon="6.07092">
        <ele>1278.21</ele>
        <time>2013-12-15T11:14:41Z</time>
      </trkpt>
      <trkpt lat="44.15167" lon="6.07095">
        <ele>1277.73</ele>
        <time>2013-12-15T11:14:51Z</time>
      </trkpt>
      <trkpt lat="44.15167" lon="6.07095">
        <ele>1275.81</ele>
        <time>2013-12-15T11:14:57Z</time>
      </trkpt>
      <trkpt lat="44.15168" lon="6.07095">
        <ele>1276.77</ele>
        <time>2013-12-15T11:15:09Z</time>
      </trkpt>
      <trkpt lat="44.15169" lon="6.07097">
        <ele>1277.73</ele>
        <time>2013-12-15T11:15:21Z</time>
      </trkpt>
      <trkpt lat="44.15169" lon="6.07096">
        <ele>1277.73</ele>
        <time>2013-12-15T11:15:43Z</time>
      </trkpt>
      <trkpt lat="44.15169" lon="6.07095">
        <ele>1278.21</ele>
        <time>2013-12-15T11:16:04Z</time>
      </trkpt>
      <trkpt lat="44.15168" lon="6.07094">
        <ele>1277.73</ele>
        <time>2013-12-15T11:16:27Z</time>
      </trkpt>
      <trkpt lat="44.15168" lon="6.07096">
        <ele>1277.73</ele>
        <time>2013-12-15T11:16:50Z</time>
      </trkpt>
      <trkpt lat="44.15168" lon="6.07097">
        <ele>1277.73</ele>
        <time>2013-12-15T11:17:10Z</time>
      </trkpt>
      <trkpt lat="44.15173" lon="6.07098">
        <ele>1278.21</ele>
        <time>2013-12-15T11:17:29Z</time>
      </trkpt>
      <trkpt lat="44.1518" lon="6.071">
        <ele>1278.69</ele>
        <time>2013-12-15T11:17:39Z</time>
      </trkpt>
      <trkpt lat="44.15185" lon="6.07101">
        <ele>1278.69</ele>
        <time>2013-12-15T11:17:48Z</time>
      </trkpt>
      <trkpt lat="44.15187" lon="6.07101">
        <ele>1278.69</ele>
        <time>2013-12-15T11:17:58Z</time>
      </trkpt>
      <trkpt lat="44.15191" lon="6.07104">
        <ele>1279.17</ele>
        <time>2013-12-15T11:18:07Z</time>
      </trkpt>
      <trkpt lat="44.15199" lon="6.07105">
        <ele>1278.69</ele>
        <time>2013-12-15T11:18:21Z</time>
      </trkpt>
      <trkpt lat="44.152" lon="6.07105">
        <ele>1279.65</ele>
        <time>2013-12-15T11:18:22Z</time>
      </trkpt>
      <trkpt lat="44.15202" lon="6.07105">
        <ele>1279.17</ele>
        <time>2013-12-15T11:18:24Z</time>
      </trkpt>
      <trkpt lat="44.15205" lon="6.07105">
        <ele>1280.13</ele>
        <time>2013-12-15T11:18:28Z</time>
      </trkpt>
      <trkpt lat="44.15217" lon="6.0711">
        <ele>1280.13</ele>
        <time>2013-12-15T11:18:39Z</time>
      </trkpt>
      <trkpt lat="44.15227" lon="6.07113">
        <ele>1280.61</ele>
        <time>2013-12-15T11:18:51Z</time>
      </trkpt>
      <trkpt lat="44.15227" lon="6.07113">
        <ele>1280.61</ele>
        <time>2013-12-15T11:19:06Z</time>
      </trkpt>
      <trkpt lat="44.15227" lon="6.07114">
        <ele>1280.61</ele>
        <time>2013-12-15T11:19:28Z</time>
      </trkpt>
      <trkpt lat="44.15227" lon="6.07115">
        <ele>1280.61</ele>
        <time>2013-12-15T11:19:40Z</time>
      </trkpt>
      <trkpt lat="44.15228" lon="6.07115">
        <ele>1280.61</ele>
        <time>2013-12-15T11:20:00Z</time>
      </trkpt>
      <trkpt lat="44.15228" lon="6.07114">
        <ele>1277.25</ele>
        <time>2013-12-15T11:20:07Z</time>
      </trkpt>
      <trkpt lat="44.15229" lon="6.07114">
        <ele>1283.02</ele>
        <time>2013-12-15T11:20:08Z</time>
      </trkpt>
      <trkpt lat="44.15231" lon="6.07117">
        <ele>1280.61</ele>
        <time>2013-12-15T11:20:12Z</time>
      </trkpt>
      <trkpt lat="44.15235" lon="6.07121">
        <ele>1280.13</ele>
        <time>2013-12-15T11:20:18Z</time>
      </trkpt>
      <trkpt lat="44.15246" lon="6.07131">
        <ele>1279.17</ele>
        <time>2013-12-15T11:20:29Z</time>
      </trkpt>
      <trkpt lat="44.15257" lon="6.07146">
        <ele>1276.77</ele>
        <time>2013-12-15T11:20:41Z</time>
      </trkpt>
      <trkpt lat="44.1526" lon="6.07149">
        <ele>1275.81</ele>
        <time>2013-12-15T11:20:44Z</time>
      </trkpt>
      <trkpt lat="44.15266" lon="6.07164">
        <ele>1273.88</ele>
        <time>2013-12-15T11:20:56Z</time>
      </trkpt>
      <trkpt lat="44.15269" lon="6.0717">
        <ele>1273.4</ele>
        <time>2013-12-15T11:21:06Z</time>
      </trkpt>
      <trkpt lat="44.15269" lon="6.07176">
        <ele>1272.92</ele>
        <time>2013-12-15T11:21:10Z</time>
      </trkpt>
      <trkpt lat="44.1527" lon="6.07182">
        <ele>1272.44</ele>
        <time>2013-12-15T11:21:19Z</time>
      </trkpt>
      <trkpt lat="44.15271" lon="6.07179">
        <ele>1271.96</ele>
        <time>2013-12-15T11:21:31Z</time>
      </trkpt>
      <trkpt lat="44.15271" lon="6.07179">
        <ele>1272.44</ele>
        <time>2013-12-15T11:21:48Z</time>
      </trkpt>
      <trkpt lat="44.1527" lon="6.07178">
        <ele>1272.44</ele>
        <time>2013-12-15T11:22:12Z</time>
      </trkpt>
      <trkpt lat="44.15271" lon="6.07178">
        <ele>1271.96</ele>
        <time>2013-12-15T11:22:25Z</time>
      </trkpt>
      <trkpt lat="44.15272" lon="6.0718">
        <ele>1272.44</ele>
        <time>2013-12-15T11:22:47Z</time>
      </trkpt>
      <trkpt lat="44.15272" lon="6.07194">
        <ele>1271.96</ele>
        <time>2013-12-15T11:22:57Z</time>
      </trkpt>
      <trkpt lat="44.15274" lon="6.07202">
        <ele>1272.44</ele>
        <time>2013-12-15T11:23:04Z</time>
      </trkpt>
      <trkpt lat="44.15276" lon="6.07218">
        <ele>1273.88</ele>
        <time>2013-12-15T11:23:16Z</time>
      </trkpt>
      <trkpt lat="44.15278" lon="6.07233">
        <ele>1275.81</ele>
        <time>2013-12-15T11:23:28Z</time>
      </trkpt>
      <trkpt lat="44.15281" lon="6.07248">
        <ele>1277.25</ele>
        <time>2013-12-15T11:23:40Z</time>
      </trkpt>
      <trkpt lat="44.15283" lon="6.07259">
        <ele>1279.17</ele>
        <time>2013-12-15T11:23:50Z</time>
      </trkpt>
      <trkpt lat="44.15287" lon="6.07272">
        <ele>1281.09</ele>
        <time>2013-12-15T11:24:01Z</time>
      </trkpt>
      <trkpt lat="44.1529" lon="6.07291">
        <ele>1283.5</ele>
        <time>2013-12-15T11:24:15Z</time>
      </trkpt>
      <trkpt lat="44.15292" lon="6.073">
        <ele>1284.46</ele>
        <time>2013-12-15T11:24:25Z</time>
      </trkpt>
      <trkpt lat="44.15294" lon="6.07314">
        <ele>1286.38</ele>
        <time>2013-12-15T11:24:36Z</time>
      </trkpt>
      <trkpt lat="44.15295" lon="6.0732">
        <ele>1287.34</ele>
        <time>2013-12-15T11:24:41Z</time>
      </trkpt>
      <trkpt lat="44.15299" lon="6.07333">
        <ele>1288.78</ele>
        <time>2013-12-15T11:24:53Z</time>
      </trkpt>
      <trkpt lat="44.15301" lon="6.0734">
        <ele>1289.75</ele>
        <time>2013-12-15T11:24:59Z</time>
      </trkpt>
      <trkpt lat="44.15304" lon="6.07352">
        <ele>1291.67</ele>
        <time>2013-12-15T11:25:09Z</time>
      </trkpt>
      <trkpt lat="44.15306" lon="6.0736">
        <ele>1293.11</ele>
        <time>2013-12-15T11:25:18Z</time>
      </trkpt>
      <trkpt lat="44.15307" lon="6.07363">
        <ele>1293.59</ele>
        <time>2013-12-15T11:25:20Z</time>
      </trkpt>
      <trkpt lat="44.15307" lon="6.07368">
        <ele>1294.07</ele>
        <time>2013-12-15T11:25:24Z</time>
      </trkpt>
      <trkpt lat="44.15312" lon="6.07384">
        <ele>1295.99</ele>
        <time>2013-12-15T11:25:37Z</time>
      </trkpt>
      <trkpt lat="44.15317" lon="6.074">
        <ele>1297.92</ele>
        <time>2013-12-15T11:25:48Z</time>
      </trkpt>
      <trkpt lat="44.1532" lon="6.07408">
        <ele>1298.4</ele>
        <time>2013-12-15T11:25:57Z</time>
      </trkpt>
      <trkpt lat="44.15324" lon="6.07413">
        <ele>1299.36</ele>
        <time>2013-12-15T11:26:18Z</time>
      </trkpt>
      <trkpt lat="44.15334" lon="6.07423">
        <ele>1298.88</ele>
        <time>2013-12-15T11:26:30Z</time>
      </trkpt>
      <trkpt lat="44.15347" lon="6.07434">
        <ele>1296.96</ele>
        <time>2013-12-15T11:26:42Z</time>
      </trkpt>
      <trkpt lat="44.15359" lon="6.07445">
        <ele>1294.07</ele>
        <time>2013-12-15T11:26:54Z</time>
      </trkpt>
      <trkpt lat="44.15371" lon="6.07457">
        <ele>1291.19</ele>
        <time>2013-12-15T11:27:07Z</time>
      </trkpt>
      <trkpt lat="44.15381" lon="6.07464">
        <ele>1289.27</ele>
        <time>2013-12-15T11:27:18Z</time>
      </trkpt>
      <trkpt lat="44.15384" lon="6.07475">
        <ele>1286.38</ele>
        <time>2013-12-15T11:27:27Z</time>
      </trkpt>
      <trkpt lat="44.15388" lon="6.07487">
        <ele>1283.02</ele>
        <time>2013-12-15T11:27:39Z</time>
      </trkpt>
      <trkpt lat="44.15389" lon="6.07492">
        <ele>1281.57</ele>
        <time>2013-12-15T11:27:44Z</time>
      </trkpt>
      <trkpt lat="44.15398" lon="6.075">
        <ele>1280.13</ele>
        <time>2013-12-15T11:27:56Z</time>
      </trkpt>
      <trkpt lat="44.15402" lon="6.07508">
        <ele>1279.17</ele>
        <time>2013-12-15T11:28:07Z</time>
      </trkpt>
      <trkpt lat="44.15406" lon="6.07515">
        <ele>1277.25</ele>
        <time>2013-12-15T11:28:14Z</time>
      </trkpt>
      <trkpt lat="44.15409" lon="6.07528">
        <ele>1274.36</ele>
        <time>2013-12-15T11:28:25Z</time>
      </trkpt>
      <trkpt lat="44.15411" lon="6.07531">
        <ele>1273.88</ele>
        <time>2013-12-15T11:28:28Z</time>
      </trkpt>
      <trkpt lat="44.15413" lon="6.07534">
        <ele>1273.4</ele>
        <time>2013-12-15T11:28:31Z</time>
      </trkpt>
      <trkpt lat="44.15419" lon="6.07548">
        <ele>1270.52</ele>
        <time>2013-12-15T11:28:43Z</time>
      </trkpt>
      <trkpt lat="44.15422" lon="6.07554">
        <ele>1271</ele>
        <time>2013-12-15T11:28:49Z</time>
      </trkpt>
      <trkpt lat="44.15425" lon="6.07562">
        <ele>1268.6</ele>
        <time>2013-12-15T11:28:57Z</time>
      </trkpt>
      <trkpt lat="44.15426" lon="6.07574">
        <ele>1267.16</ele>
        <time>2013-12-15T11:29:08Z</time>
      </trkpt>
      <trkpt lat="44.15425" lon="6.07582">
        <ele>1265.71</ele>
        <time>2013-12-15T11:29:17Z</time>
      </trkpt>
      <trkpt lat="44.15426" lon="6.07591">
        <ele>1264.27</ele>
        <time>2013-12-15T11:29:28Z</time>
      </trkpt>
      <trkpt lat="44.15427" lon="6.07592">
        <ele>1264.27</ele>
        <time>2013-12-15T11:29:41Z</time>
      </trkpt>
      <trkpt lat="44.15429" lon="6.07598">
        <ele>1263.31</ele>
        <time>2013-12-15T11:29:55Z</time>
      </trkpt>
      <trkpt lat="44.15429" lon="6.07602">
        <ele>1263.31</ele>
        <time>2013-12-15T11:30:00Z</time>
      </trkpt>
      <trkpt lat="44.15433" lon="6.07608">
        <ele>1263.31</ele>
        <time>2013-12-15T11:30:09Z</time>
      </trkpt>
      <trkpt lat="44.15435" lon="6.07615">
        <ele>1263.79</ele>
        <time>2013-12-15T11:30:18Z</time>
      </trkpt>
      <trkpt lat="44.15434" lon="6.07621">
        <ele>1261.87</ele>
        <time>2013-12-15T11:30:27Z</time>
      </trkpt>
      <trkpt lat="44.15435" lon="6.07626">
        <ele>1263.31</ele>
        <time>2013-12-15T11:30:32Z</time>
      </trkpt>
      <trkpt lat="44.15437" lon="6.07638">
        <ele>1262.35</ele>
        <time>2013-12-15T11:30:42Z</time>
      </trkpt>
      <trkpt lat="44.15435" lon="6.07646">
        <ele>1261.87</ele>
        <time>2013-12-15T11:30:51Z</time>
      </trkpt>
      <trkpt lat="44.15433" lon="6.07651">
        <ele>1261.39</ele>
        <time>2013-12-15T11:31:01Z</time>
      </trkpt>
      <trkpt lat="44.1543" lon="6.07665">
        <ele>1259.46</ele>
        <time>2013-12-15T11:31:13Z</time>
      </trkpt>
      <trkpt lat="44.15429" lon="6.07676">
        <ele>1258.98</ele>
        <time>2013-12-15T11:31:22Z</time>
      </trkpt>
      <trkpt lat="44.15428" lon="6.07687">
        <ele>1258.5</ele>
        <time>2013-12-15T11:31:31Z</time>
      </trkpt>
      <trkpt lat="44.15424" lon="6.0769">
        <ele>1257.06</ele>
        <time>2013-12-15T11:31:41Z</time>
      </trkpt>
      <trkpt lat="44.15422" lon="6.07693">
        <ele>1254.66</ele>
        <time>2013-12-15T11:31:50Z</time>
      </trkpt>
      <trkpt lat="44.15423" lon="6.07704">
        <ele>1255.14</ele>
        <time>2013-12-15T11:32:01Z</time>
      </trkpt>
      <trkpt lat="44.15422" lon="6.0772">
        <ele>1254.18</ele>
        <time>2013-12-15T11:32:13Z</time>
      </trkpt>
      <trkpt lat="44.15423" lon="6.07728">
        <ele>1254.18</ele>
        <time>2013-12-15T11:32:24Z</time>
      </trkpt>
      <trkpt lat="44.15424" lon="6.0773">
        <ele>1254.18</ele>
        <time>2013-12-15T11:32:43Z</time>
      </trkpt>
      <trkpt lat="44.15423" lon="6.07745">
        <ele>1253.22</ele>
        <time>2013-12-15T11:32:55Z</time>
      </trkpt>
      <trkpt lat="44.15421" lon="6.07749">
        <ele>1252.74</ele>
        <time>2013-12-15T11:33:07Z</time>
      </trkpt>
      <trkpt lat="44.1542" lon="6.0775">
        <ele>1253.22</ele>
        <time>2013-12-15T11:33:08Z</time>
      </trkpt>
      <trkpt lat="44.1542" lon="6.07753">
        <ele>1252.74</ele>
        <time>2013-12-15T11:33:10Z</time>
      </trkpt>
      <trkpt lat="44.15421" lon="6.07766">
        <ele>1252.74</ele>
        <time>2013-12-15T11:33:20Z</time>
      </trkpt>
      <trkpt lat="44.1542" lon="6.07763">
        <ele>1252.25</ele>
        <time>2013-12-15T11:33:37Z</time>
      </trkpt>
      <trkpt lat="44.15418" lon="6.07759">
        <ele>1252.74</ele>
        <time>2013-12-15T11:33:48Z</time>
      </trkpt>
      <trkpt lat="44.15415" lon="6.07751">
        <ele>1253.22</ele>
        <time>2013-12-15T11:34:01Z</time>
      </trkpt>
      <trkpt lat="44.15419" lon="6.07754">
        <ele>1252.74</ele>
        <time>2013-12-15T11:34:16Z</time>
      </trkpt>
      <trkpt lat="44.15424" lon="6.0776">
        <ele>1252.74</ele>
        <time>2013-12-15T11:34:35Z</time>
      </trkpt>
      <trkpt lat="44.15422" lon="6.07766">
        <ele>1253.22</ele>
        <time>2013-12-15T11:34:54Z</time>
      </trkpt>
      <trkpt lat="44.1541" lon="6.07753">
        <ele>1253.22</ele>
        <time>2013-12-15T11:35:18Z</time>
      </trkpt>
      <trkpt lat="44.15401" lon="6.07714">
        <ele>1253.22</ele>
        <time>2013-12-15T11:35:34Z</time>
      </trkpt>
      <trkpt lat="44.1541" lon="6.07725">
        <ele>1253.22</ele>
        <time>2013-12-15T11:35:45Z</time>
      </trkpt>
      <trkpt lat="44.15391" lon="6.07742">
        <ele>1253.7</ele>
        <time>2013-12-15T11:36:14Z</time>
      </trkpt>
      <trkpt lat="44.1541" lon="6.07755">
        <ele>1253.7</ele>
        <time>2013-12-15T11:37:21Z</time>
      </trkpt>
      <trkpt lat="44.15417" lon="6.07755">
        <ele>1253.22</ele>
        <time>2013-12-15T11:37:40Z</time>
      </trkpt>
      <trkpt lat="44.15415" lon="6.07754">
        <ele>1253.22</ele>
        <time>2013-12-15T11:38:06Z</time>
      </trkpt>
      <trkpt lat="44.15412" lon="6.07755">
        <ele>1253.22</ele>
        <time>2013-12-15T11:38:12Z</time>
      </trkpt>
      <trkpt lat="44.15394" lon="6.07758">
        <ele>1254.66</ele>
        <time>2013-12-15T11:38:37Z</time>
      </trkpt>
      <trkpt lat="44.15394" lon="6.07757">
        <ele>1253.22</ele>
        <time>2013-12-15T11:38:38Z</time>
      </trkpt>
      <trkpt lat="44.15412" lon="6.0776">
        <ele>1253.22</ele>
        <time>2013-12-15T11:38:50Z</time>
      </trkpt>
      <trkpt lat="44.15415" lon="6.07765">
        <ele>1252.74</ele>
        <time>2013-12-15T11:39:02Z</time>
      </trkpt>
      <trkpt lat="44.15417" lon="6.07772">
        <ele>1252.74</ele>
        <time>2013-12-15T11:39:08Z</time>
      </trkpt>
      <trkpt lat="44.15422" lon="6.07792">
        <ele>1254.18</ele>
        <time>2013-12-15T11:39:21Z</time>
      </trkpt>
      <trkpt lat="44.15426" lon="6.07791">
        <ele>1255.14</ele>
        <time>2013-12-15T11:39:30Z</time>
      </trkpt>
      <trkpt lat="44.15425" lon="6.0779">
        <ele>1255.62</ele>
        <time>2013-12-15T11:39:49Z</time>
      </trkpt>
      <trkpt lat="44.15425" lon="6.0779">
        <ele>1255.62</ele>
        <time>2013-12-15T11:40:09Z</time>
      </trkpt>
      <trkpt lat="44.15425" lon="6.07791">
        <ele>1255.62</ele>
        <time>2013-12-15T11:40:21Z</time>
      </trkpt>
      <trkpt lat="44.15425" lon="6.07787">
        <ele>1256.1</ele>
        <time>2013-12-15T11:40:38Z</time>
      </trkpt>
      <trkpt lat="44.15425" lon="6.07788">
        <ele>1256.1</ele>
        <time>2013-12-15T11:40:54Z</time>
      </trkpt>
      <trkpt lat="44.15426" lon="6.0779">
        <ele>1256.1</ele>
        <time>2013-12-15T11:41:09Z</time>
      </trkpt>
      <trkpt lat="44.15426" lon="6.0779">
        <ele>1255.62</ele>
        <time>2013-12-15T11:41:10Z</time>
      </trkpt>
      <trkpt lat="44.15421" lon="6.07793">
        <ele>1255.14</ele>
        <time>2013-12-15T11:41:13Z</time>
      </trkpt>
      <trkpt lat="44.15422" lon="6.07783">
        <ele>1253.7</ele>
        <time>2013-12-15T11:41:23Z</time>
      </trkpt>
      <trkpt lat="44.15423" lon="6.07784">
        <ele>1253.7</ele>
        <time>2013-12-15T11:41:32Z</time>
      </trkpt>
      <trkpt lat="44.15424" lon="6.07782">
        <ele>1253.7</ele>
        <time>2013-12-15T11:41:43Z</time>
      </trkpt>
      <trkpt lat="44.15422" lon="6.07782">
        <ele>1254.18</ele>
        <time>2013-12-15T11:41:52Z</time>
      </trkpt>
      <trkpt lat="44.15422" lon="6.07782">
        <ele>1253.7</ele>
        <time>2013-12-15T11:42:06Z</time>
      </trkpt>
      <trkpt lat="44.15423" lon="6.07782">
        <ele>1249.85</ele>
        <time>2013-12-15T11:42:15Z</time>
      </trkpt>
      <trkpt lat="44.15423" lon="6.07782">
        <ele>1255.14</ele>
        <time>2013-12-15T11:42:16Z</time>
      </trkpt>
      <trkpt lat="44.15422" lon="6.07784">
        <ele>1253.7</ele>
        <time>2013-12-15T11:42:34Z</time>
      </trkpt>
      <trkpt lat="44.15422" lon="6.07784">
        <ele>1253.7</ele>
        <time>2013-12-15T11:42:57Z</time>
      </trkpt>
      <trkpt lat="44.1542" lon="6.07785">
        <ele>1253.7</ele>
        <time>2013-12-15T11:43:21Z</time>
      </trkpt>
      <trkpt lat="44.15419" lon="6.07785">
        <ele>1253.7</ele>
        <time>2013-12-15T11:43:48Z</time>
      </trkpt>
      <trkpt lat="44.15421" lon="6.07784">
        <ele>1253.7</ele>
        <time>2013-12-15T11:44:15Z</time>
      </trkpt>
      <trkpt lat="44.15421" lon="6.07784">
        <ele>1253.22</ele>
        <time>2013-12-15T11:44:39Z</time>
      </trkpt>
      <trkpt lat="44.15421" lon="6.07785">
        <ele>1253.7</ele>
        <time>2013-12-15T11:45:05Z</time>
      </trkpt>
      <trkpt lat="44.1542" lon="6.07786">
        <ele>1253.7</ele>
        <time>2013-12-15T11:45:33Z</time>
      </trkpt>
      <trkpt lat="44.1542" lon="6.07785">
        <ele>1252.74</ele>
        <time>2013-12-15T11:46:03Z</time>
      </trkpt>
      <trkpt lat="44.1542" lon="6.07785">
        <ele>1253.7</ele>
        <time>2013-12-15T11:46:05Z</time>
      </trkpt>
      <trkpt lat="44.15421" lon="6.07785">
        <ele>1257.06</ele>
        <time>2013-12-15T11:46:16Z</time>
      </trkpt>
      <trkpt lat="44.15422" lon="6.07785">
        <ele>1253.7</ele>
        <time>2013-12-15T11:46:18Z</time>
      </trkpt>
      <trkpt lat="44.15422" lon="6.07785">
        <ele>1250.81</ele>
        <time>2013-12-15T11:46:19Z</time>
      </trkpt>
      <trkpt lat="44.15422" lon="6.07785">
        <ele>1254.18</ele>
        <time>2013-12-15T11:46:20Z</time>
      </trkpt>
      <trkpt lat="44.15423" lon="6.07783">
        <ele>1253.7</ele>
        <time>2013-12-15T11:46:45Z</time>
      </trkpt>
      <trkpt lat="44.15423" lon="6.07783">
        <ele>1253.7</ele>
        <time>2013-12-15T11:47:17Z</time>
      </trkpt>
      <trkpt lat="44.15424" lon="6.07783">
        <ele>1253.7</ele>
        <time>2013-12-15T11:47:41Z</time>
      </trkpt>
      <trkpt lat="44.15423" lon="6.07784">
        <ele>1253.7</ele>
        <time>2013-12-15T11:48:08Z</time>
      </trkpt>
      <trkpt lat="44.15423" lon="6.07784">
        <ele>1254.18</ele>
        <time>2013-12-15T11:48:26Z</time>
      </trkpt>
      <trkpt lat="44.15422" lon="6.07786">
        <ele>1254.18</ele>
        <time>2013-12-15T11:48:49Z</time>
      </trkpt>
      <trkpt lat="44.15422" lon="6.07788">
        <ele>1253.7</ele>
        <time>2013-12-15T11:49:18Z</time>
      </trkpt>
      <trkpt lat="44.15422" lon="6.07788">
        <ele>1253.7</ele>
        <time>2013-12-15T11:49:47Z</time>
      </trkpt>
      <trkpt lat="44.15424" lon="6.07788">
        <ele>1254.18</ele>
        <time>2013-12-15T11:50:14Z</time>
      </trkpt>
      <trkpt lat="44.15424" lon="6.07787">
        <ele>1254.18</ele>
        <time>2013-12-15T11:50:38Z</time>
      </trkpt>
      <trkpt lat="44.15424" lon="6.07787">
        <ele>1254.18</ele>
        <time>2013-12-15T11:51:02Z</time>
      </trkpt>
      <trkpt lat="44.15425" lon="6.07786">
        <ele>1253.22</ele>
        <time>2013-12-15T11:51:26Z</time>
      </trkpt>
      <trkpt lat="44.15423" lon="6.07785">
        <ele>1253.7</ele>
        <time>2013-12-15T11:51:52Z</time>
      </trkpt>
      <trkpt lat="44.15427" lon="6.07786">
        <ele>1253.7</ele>
        <time>2013-12-15T11:52:16Z</time>
      </trkpt>
      <trkpt lat="44.15427" lon="6.07785">
        <ele>1254.18</ele>
        <time>2013-12-15T11:52:39Z</time>
      </trkpt>
      <trkpt lat="44.15426" lon="6.07784">
        <ele>1253.22</ele>
        <time>2013-12-15T11:53:12Z</time>
      </trkpt>
      <trkpt lat="44.15424" lon="6.07785">
        <ele>1253.7</ele>
        <time>2013-12-15T11:53:31Z</time>
      </trkpt>
      <trkpt lat="44.15424" lon="6.07786">
        <ele>1253.7</ele>
        <time>2013-12-15T11:54:10Z</time>
      </trkpt>
      <trkpt lat="44.15425" lon="6.07786">
        <ele>1253.7</ele>
        <time>2013-12-15T11:54:39Z</time>
      </trkpt>
      <trkpt lat="44.15425" lon="6.07788">
        <ele>1253.7</ele>
        <time>2013-12-15T11:55:13Z</time>
      </trkpt>
      <trkpt lat="44.15425" lon="6.07787">
        <ele>1253.7</ele>
        <time>2013-12-15T11:55:47Z</time>
      </trkpt>
      <trkpt lat="44.15425" lon="6.07788">
        <ele>1253.22</ele>
        <time>2013-12-15T11:56:24Z</time>
      </trkpt>
      <trkpt lat="44.15425" lon="6.07788">
        <ele>1254.66</ele>
        <time>2013-12-15T11:56:27Z</time>
      </trkpt>
      <trkpt lat="44.15424" lon="6.07786">
        <ele>1255.14</ele>
        <time>2013-12-15T11:56:56Z</time>
      </trkpt>
      <trkpt lat="44.15422" lon="6.07787">
        <ele>1253.7</ele>
        <time>2013-12-15T11:57:22Z</time>
      </trkpt>
      <trkpt lat="44.15423" lon="6.07785">
        <ele>1253.22</ele>
        <time>2013-12-15T11:57:50Z</time>
      </trkpt>
      <trkpt lat="44.15426" lon="6.07784">
        <ele>1253.7</ele>
        <time>2013-12-15T11:58:16Z</time>
      </trkpt>
      <trkpt lat="44.15425" lon="6.07785">
        <ele>1253.7</ele>
        <time>2013-12-15T11:58:34Z</time>
      </trkpt>
      <trkpt lat="44.15426" lon="6.07784">
        <ele>1253.22</ele>
        <time>2013-12-15T11:58:57Z</time>
      </trkpt>
      <trkpt lat="44.15423" lon="6.07788">
        <ele>1253.7</ele>
        <time>2013-12-15T11:59:27Z</time>
      </trkpt>
      <trkpt lat="44.15422" lon="6.07787">
        <ele>1253.7</ele>
        <time>2013-12-15T11:59:52Z</time>
      </trkpt>
      <trkpt lat="44.15424" lon="6.07785">
        <ele>1253.22</ele>
        <time>2013-12-15T12:00:11Z</time>
      </trkpt>
      <trkpt lat="44.15425" lon="6.07785">
        <ele>1253.22</ele>
        <time>2013-12-15T12:00:45Z</time>
      </trkpt>
      <trkpt lat="44.15425" lon="6.07784">
        <ele>1253.22</ele>
        <time>2013-12-15T12:01:15Z</time>
      </trkpt>
      <trkpt lat="44.15425" lon="6.07783">
        <ele>1253.22</ele>
        <time>2013-12-15T12:01:36Z</time>
      </trkpt>
      <trkpt lat="44.15427" lon="6.07783">
        <ele>1253.22</ele>
        <time>2013-12-15T12:02:05Z</time>
      </trkpt>
      <trkpt lat="44.15425" lon="6.07783">
        <ele>1253.22</ele>
        <time>2013-12-15T12:02:38Z</time>
      </trkpt>
      <trkpt lat="44.15423" lon="6.07785">
        <ele>1253.7</ele>
        <time>2013-12-15T12:03:12Z</time>
      </trkpt>
      <trkpt lat="44.15423" lon="6.07786">
        <ele>1253.22</ele>
        <time>2013-12-15T12:03:32Z</time>
      </trkpt>
      <trkpt lat="44.15424" lon="6.07787">
        <ele>1253.22</ele>
        <time>2013-12-15T12:03:54Z</time>
      </trkpt>
      <trkpt lat="44.15424" lon="6.07788">
        <ele>1253.22</ele>
        <time>2013-12-15T12:04:14Z</time>
      </trkpt>
      <trkpt lat="44.15423" lon="6.07788">
        <ele>1253.22</ele>
        <time>2013-12-15T12:04:38Z</time>
      </trkpt>
      <trkpt lat="44.15421" lon="6.07787">
        <ele>1253.22</ele>
        <time>2013-12-15T12:05:12Z</time>
      </trkpt>
      <trkpt lat="44.15423" lon="6.07786">
        <ele>1253.22</ele>
        <time>2013-12-15T12:05:45Z</time>
      </trkpt>
      <trkpt lat="44.15424" lon="6.07784">
        <ele>1253.22</ele>
        <time>2013-12-15T12:06:09Z</time>
      </trkpt>
      <trkpt lat="44.15424" lon="6.07784">
        <ele>1252.74</ele>
        <time>2013-12-15T12:06:34Z</time>
      </trkpt>
      <trkpt lat="44.15423" lon="6.07786">
        <ele>1253.22</ele>
        <time>2013-12-15T12:07:03Z</time>
      </trkpt>
      <trkpt lat="44.15423" lon="6.07785">
        <ele>1252.74</ele>
        <time>2013-12-15T12:07:29Z</time>
      </trkpt>
      <trkpt lat="44.15423" lon="6.07787">
        <ele>1253.22</ele>
        <time>2013-12-15T12:07:54Z</time>
      </trkpt>
      <trkpt lat="44.1542" lon="6.07789">
        <ele>1254.18</ele>
        <time>2013-12-15T12:08:23Z</time>
      </trkpt>
      <trkpt lat="44.15422" lon="6.07788">
        <ele>1251.77</ele>
        <time>2013-12-15T12:08:38Z</time>
      </trkpt>
      <trkpt lat="44.15423" lon="6.07787">
        <ele>1252.74</ele>
        <time>2013-12-15T12:09:01Z</time>
      </trkpt>
      <trkpt lat="44.1542" lon="6.07791">
        <ele>1252.74</ele>
        <time>2013-12-15T12:09:26Z</time>
      </trkpt>
      <trkpt lat="44.15421" lon="6.0779">
        <ele>1248.89</ele>
        <time>2013-12-15T12:09:32Z</time>
      </trkpt>
      <trkpt lat="44.15421" lon="6.0779">
        <ele>1252.25</ele>
        <time>2013-12-15T12:09:33Z</time>
      </trkpt>
      <trkpt lat="44.15421" lon="6.0779">
        <ele>1256.1</ele>
        <time>2013-12-15T12:09:37Z</time>
      </trkpt>
      <trkpt lat="44.15421" lon="6.0779">
        <ele>1252.25</ele>
        <time>2013-12-15T12:09:38Z</time>
      </trkpt>
      <trkpt lat="44.1542" lon="6.07788">
        <ele>1253.22</ele>
        <time>2013-12-15T12:10:00Z</time>
      </trkpt>
      <trkpt lat="44.15422" lon="6.07787">
        <ele>1253.22</ele>
        <time>2013-12-15T12:10:18Z</time>
      </trkpt>
      <trkpt lat="44.15421" lon="6.07791">
        <ele>1253.22</ele>
        <time>2013-12-15T12:10:47Z</time>
      </trkpt>
      <trkpt lat="44.15424" lon="6.07788">
        <ele>1253.22</ele>
        <time>2013-12-15T12:11:10Z</time>
      </trkpt>
      <trkpt lat="44.15421" lon="6.07786">
        <ele>1253.22</ele>
        <time>2013-12-15T12:11:38Z</time>
      </trkpt>
      <trkpt lat="44.15421" lon="6.07786">
        <ele>1251.77</ele>
        <time>2013-12-15T12:11:40Z</time>
      </trkpt>
      <trkpt lat="44.15423" lon="6.07786">
        <ele>1253.22</ele>
        <time>2013-12-15T12:12:01Z</time>
      </trkpt>
      <trkpt lat="44.15424" lon="6.07786">
        <ele>1253.22</ele>
        <time>2013-12-15T12:12:08Z</time>
      </trkpt>
      <trkpt lat="44.15421" lon="6.07786">
        <ele>1253.22</ele>
        <time>2013-12-15T12:12:29Z</time>
      </trkpt>
      <trkpt lat="44.1542" lon="6.07787">
        <ele>1252.74</ele>
        <time>2013-12-15T12:12:49Z</time>
      </trkpt>
      <trkpt lat="44.15421" lon="6.07785">
        <ele>1253.22</ele>
        <time>2013-12-15T12:13:17Z</time>
      </trkpt>
      <trkpt lat="44.15422" lon="6.07785">
        <ele>1253.22</ele>
        <time>2013-12-15T12:13:36Z</time>
      </trkpt>
      <trkpt lat="44.15422" lon="6.07786">
        <ele>1253.22</ele>
        <time>2013-12-15T12:13:59Z</time>
      </trkpt>
      <trkpt lat="44.1542" lon="6.07788">
        <ele>1253.22</ele>
        <time>2013-12-15T12:14:27Z</time>
      </trkpt>
      <trkpt lat="44.1542" lon="6.07787">
        <ele>1253.22</ele>
        <time>2013-12-15T12:14:57Z</time>
      </trkpt>
      <trkpt lat="44.1542" lon="6.07788">
        <ele>1253.22</ele>
        <time>2013-12-15T12:15:19Z</time>
      </trkpt>
      <trkpt lat="44.15422" lon="6.07785">
        <ele>1253.22</ele>
        <time>2013-12-15T12:15:38Z</time>
      </trkpt>
      <trkpt lat="44.1542" lon="6.07787">
        <ele>1253.22</ele>
        <time>2013-12-15T12:16:00Z</time>
      </trkpt>
      <trkpt lat="44.1542" lon="6.07786">
        <ele>1252.25</ele>
        <time>2013-12-15T12:16:09Z</time>
      </trkpt>
      <trkpt lat="44.15421" lon="6.07786">
        <ele>1253.7</ele>
        <time>2013-12-15T12:16:11Z</time>
      </trkpt>
      <trkpt lat="44.15422" lon="6.07786">
        <ele>1253.22</ele>
        <time>2013-12-15T12:16:28Z</time>
      </trkpt>
      <trkpt lat="44.15422" lon="6.07786">
        <ele>1253.22</ele>
        <time>2013-12-15T12:16:53Z</time>
      </trkpt>
      <trkpt lat="44.15422" lon="6.07786">
        <ele>1253.22</ele>
        <time>2013-12-15T12:17:19Z</time>
      </trkpt>
      <trkpt lat="44.15424" lon="6.07783">
        <ele>1253.22</ele>
        <time>2013-12-15T12:17:45Z</time>
      </trkpt>
      <trkpt lat="44.15422" lon="6.07784">
        <ele>1253.7</ele>
        <time>2013-12-15T12:18:06Z</time>
      </trkpt>
      <trkpt lat="44.1542" lon="6.07786">
        <ele>1253.7</ele>
        <time>2013-12-15T12:18:33Z</time>
      </trkpt>
      <trkpt lat="44.1542" lon="6.07786">
        <ele>1253.7</ele>
        <time>2013-12-15T12:18:58Z</time>
      </trkpt>
      <trkpt lat="44.1542" lon="6.07787">
        <ele>1253.7</ele>
        <time>2013-12-15T12:19:23Z</time>
      </trkpt>
      <trkpt lat="44.1542" lon="6.07787">
        <ele>1253.22</ele>
        <time>2013-12-15T12:19:47Z</time>
      </trkpt>
      <trkpt lat="44.15421" lon="6.07786">
        <ele>1253.7</ele>
        <time>2013-12-15T12:20:14Z</time>
      </trkpt>
      <trkpt lat="44.15419" lon="6.07789">
        <ele>1253.7</ele>
        <time>2013-12-15T12:20:49Z</time>
      </trkpt>
      <trkpt lat="44.1542" lon="6.07788">
        <ele>1253.7</ele>
        <time>2013-12-15T12:21:12Z</time>
      </trkpt>
      <trkpt lat="44.1542" lon="6.07787">
        <ele>1253.7</ele>
        <time>2013-12-15T12:21:42Z</time>
      </trkpt>
      <trkpt lat="44.1542" lon="6.07787">
        <ele>1253.7</ele>
        <time>2013-12-15T12:22:06Z</time>
      </trkpt>
      <trkpt lat="44.15419" lon="6.07787">
        <ele>1253.7</ele>
        <time>2013-12-15T12:22:35Z</time>
      </trkpt>
      <trkpt lat="44.1542" lon="6.07787">
        <ele>1253.7</ele>
        <time>2013-12-15T12:23:01Z</time>
      </trkpt>
      <trkpt lat="44.1542" lon="6.07788">
        <ele>1253.7</ele>
        <time>2013-12-15T12:23:26Z</time>
      </trkpt>
      <trkpt lat="44.15419" lon="6.0779">
        <ele>1253.7</ele>
        <time>2013-12-15T12:23:52Z</time>
      </trkpt>
      <trkpt lat="44.1542" lon="6.0779">
        <ele>1253.7</ele>
        <time>2013-12-15T12:24:25Z</time>
      </trkpt>
      <trkpt lat="44.15419" lon="6.0779">
        <ele>1253.7</ele>
        <time>2013-12-15T12:24:47Z</time>
      </trkpt>
      <trkpt lat="44.1542" lon="6.0779">
        <ele>1253.7</ele>
        <time>2013-12-15T12:25:09Z</time>
      </trkpt>
      <trkpt lat="44.1542" lon="6.0779">
        <ele>1254.18</ele>
        <time>2013-12-15T12:25:35Z</time>
      </trkpt>
      <trkpt lat="44.15418" lon="6.0779">
        <ele>1253.7</ele>
        <time>2013-12-15T12:25:55Z</time>
      </trkpt>
      <trkpt lat="44.15419" lon="6.0779">
        <ele>1253.7</ele>
        <time>2013-12-15T12:26:15Z</time>
      </trkpt>
      <trkpt lat="44.15417" lon="6.0779">
        <ele>1253.7</ele>
        <time>2013-12-15T12:26:38Z</time>
      </trkpt>
      <trkpt lat="44.15419" lon="6.0779">
        <ele>1253.7</ele>
        <time>2013-12-15T12:26:56Z</time>
      </trkpt>
      <trkpt lat="44.15421" lon="6.07788">
        <ele>1253.7</ele>
        <time>2013-12-15T12:27:26Z</time>
      </trkpt>
      <trkpt lat="44.1542" lon="6.07788">
        <ele>1253.7</ele>
        <time>2013-12-15T12:27:48Z</time>
      </trkpt>
      <trkpt lat="44.15419" lon="6.07789">
        <ele>1253.7</ele>
        <time>2013-12-15T12:28:17Z</time>
      </trkpt>
      <trkpt lat="44.15419" lon="6.07788">
        <ele>1254.18</ele>
        <time>2013-12-15T12:28:46Z</time>
      </trkpt>
      <trkpt lat="44.1542" lon="6.07788">
        <ele>1253.7</ele>
        <time>2013-12-15T12:29:14Z</time>
      </trkpt>
      <trkpt lat="44.15421" lon="6.07787">
        <ele>1254.18</ele>
        <time>2013-12-15T12:29:43Z</time>
      </trkpt>
      <trkpt lat="44.15423" lon="6.07787">
        <ele>1254.18</ele>
        <time>2013-12-15T12:30:03Z</time>
      </trkpt>
      <trkpt lat="44.15422" lon="6.07786">
        <ele>1254.18</ele>
        <time>2013-12-15T12:30:24Z</time>
      </trkpt>
      <trkpt lat="44.15421" lon="6.07784">
        <ele>1254.18</ele>
        <time>2013-12-15T12:30:39Z</time>
      </trkpt>
      <trkpt lat="44.15424" lon="6.07785">
        <ele>1254.18</ele>
        <time>2013-12-15T12:31:10Z</time>
      </trkpt>
      <trkpt lat="44.15423" lon="6.07785">
        <ele>1254.18</ele>
        <time>2013-12-15T12:31:25Z</time>
      </trkpt>
      <trkpt lat="44.15423" lon="6.07787">
        <ele>1254.18</ele>
        <time>2013-12-15T12:31:42Z</time>
      </trkpt>
      <trkpt lat="44.15423" lon="6.07784">
        <ele>1254.66</ele>
        <time>2013-12-15T12:32:01Z</time>
      </trkpt>
      <trkpt lat="44.15422" lon="6.07784">
        <ele>1254.18</ele>
        <time>2013-12-15T12:32:20Z</time>
      </trkpt>
      <trkpt lat="44.15421" lon="6.07786">
        <ele>1254.18</ele>
        <time>2013-12-15T12:32:47Z</time>
      </trkpt>
      <trkpt lat="44.1542" lon="6.07785">
        <ele>1254.18</ele>
        <time>2013-12-15T12:33:09Z</time>
      </trkpt>
      <trkpt lat="44.1542" lon="6.07785">
        <ele>1253.7</ele>
        <time>2013-12-15T12:33:26Z</time>
      </trkpt>
      <trkpt lat="44.15419" lon="6.07784">
        <ele>1254.18</ele>
        <time>2013-12-15T12:33:48Z</time>
      </trkpt>
      <trkpt lat="44.15418" lon="6.07783">
        <ele>1254.18</ele>
        <time>2013-12-15T12:34:15Z</time>
      </trkpt>
      <trkpt lat="44.1542" lon="6.07783">
        <ele>1253.7</ele>
        <time>2013-12-15T12:34:35Z</time>
      </trkpt>
      <trkpt lat="44.1542" lon="6.07784">
        <ele>1253.7</ele>
        <time>2013-12-15T12:34:57Z</time>
      </trkpt>
      <trkpt lat="44.1542" lon="6.07783">
        <ele>1253.7</ele>
        <time>2013-12-15T12:35:21Z</time>
      </trkpt>
      <trkpt lat="44.15421" lon="6.07781">
        <ele>1253.7</ele>
        <time>2013-12-15T12:35:41Z</time>
      </trkpt>
      <trkpt lat="44.15423" lon="6.07787">
        <ele>1253.7</ele>
        <time>2013-12-15T12:36:01Z</time>
      </trkpt>
      <trkpt lat="44.15421" lon="6.07789">
        <ele>1255.14</ele>
        <time>2013-12-15T12:36:23Z</time>
      </trkpt>
      <trkpt lat="44.15421" lon="6.07787">
        <ele>1254.66</ele>
        <time>2013-12-15T12:36:45Z</time>
      </trkpt>
      <trkpt lat="44.15419" lon="6.07786">
        <ele>1254.18</ele>
        <time>2013-12-15T12:36:55Z</time>
      </trkpt>
      <trkpt lat="44.15422" lon="6.07783">
        <ele>1254.66</ele>
        <time>2013-12-15T12:37:14Z</time>
      </trkpt>
      <trkpt lat="44.15421" lon="6.07784">
        <ele>1254.66</ele>
        <time>2013-12-15T12:37:37Z</time>
      </trkpt>
      <trkpt lat="44.15423" lon="6.07784">
        <ele>1254.66</ele>
        <time>2013-12-15T12:38:01Z</time>
      </trkpt>
      <trkpt lat="44.1542" lon="6.07787">
        <ele>1257.54</ele>
        <time>2013-12-15T12:38:22Z</time>
      </trkpt>
      <trkpt lat="44.1542" lon="6.07787">
        <ele>1257.54</ele>
        <time>2013-12-15T12:38:23Z</time>
      </trkpt>
      <trkpt lat="44.1542" lon="6.07788">
        <ele>1254.66</ele>
        <time>2013-12-15T12:38:25Z</time>
      </trkpt>
      <trkpt lat="44.15416" lon="6.07789">
        <ele>1254.66</ele>
        <time>2013-12-15T12:38:46Z</time>
      </trkpt>
      <trkpt lat="44.15414" lon="6.0779">
        <ele>1254.66</ele>
        <time>2013-12-15T12:39:06Z</time>
      </trkpt>
      <trkpt lat="44.1542" lon="6.07787">
        <ele>1254.66</ele>
        <time>2013-12-15T12:39:24Z</time>
      </trkpt>
      <trkpt lat="44.15424" lon="6.07779">
        <ele>1254.66</ele>
        <time>2013-12-15T12:39:38Z</time>
      </trkpt>
      <trkpt lat="44.15427" lon="6.07779">
        <ele>1255.62</ele>
        <time>2013-12-15T12:39:52Z</time>
      </trkpt>
      <trkpt lat="44.15431" lon="6.07786">
        <ele>1254.66</ele>
        <time>2013-12-15T12:40:08Z</time>
      </trkpt>
      <trkpt lat="44.15425" lon="6.07787">
        <ele>1255.14</ele>
        <time>2013-12-15T12:40:19Z</time>
      </trkpt>
      <trkpt lat="44.15421" lon="6.07794">
        <ele>1254.18</ele>
        <time>2013-12-15T12:40:34Z</time>
      </trkpt>
      <trkpt lat="44.15423" lon="6.07803">
        <ele>1254.66</ele>
        <time>2013-12-15T12:40:49Z</time>
      </trkpt>
      <trkpt lat="44.15428" lon="6.0781">
        <ele>1258.5</ele>
        <time>2013-12-15T12:40:59Z</time>
      </trkpt>
      <trkpt lat="44.15436" lon="6.07823">
        <ele>1258.5</ele>
        <time>2013-12-15T12:41:16Z</time>
      </trkpt>
      <trkpt lat="44.15447" lon="6.07822">
        <ele>1261.87</ele>
        <time>2013-12-15T12:41:30Z</time>
      </trkpt>
      <trkpt lat="44.15455" lon="6.07825">
        <ele>1260.91</ele>
        <time>2013-12-15T12:41:43Z</time>
      </trkpt>
      <trkpt lat="44.15461" lon="6.07827">
        <ele>1264.75</ele>
        <time>2013-12-15T12:41:51Z</time>
      </trkpt>
      <trkpt lat="44.15472" lon="6.07833">
        <ele>1266.19</ele>
        <time>2013-12-15T12:42:09Z</time>
      </trkpt>
      <trkpt lat="44.15484" lon="6.07835">
        <ele>1267.64</ele>
        <time>2013-12-15T12:42:27Z</time>
      </trkpt>
      <trkpt lat="44.15493" lon="6.07835">
        <ele>1270.52</ele>
        <time>2013-12-15T12:42:43Z</time>
      </trkpt>
      <trkpt lat="44.15501" lon="6.07836">
        <ele>1271.48</ele>
        <time>2013-12-15T12:42:59Z</time>
      </trkpt>
      <trkpt lat="44.15502" lon="6.07838">
        <ele>1271.48</ele>
        <time>2013-12-15T12:43:16Z</time>
      </trkpt>
      <trkpt lat="44.15503" lon="6.07836">
        <ele>1271.48</ele>
        <time>2013-12-15T12:43:40Z</time>
      </trkpt>
      <trkpt lat="44.15502" lon="6.07837">
        <ele>1271.48</ele>
        <time>2013-12-15T12:44:03Z</time>
      </trkpt>
      <trkpt lat="44.15508" lon="6.07829">
        <ele>1274.36</ele>
        <time>2013-12-15T12:44:17Z</time>
      </trkpt>
      <trkpt lat="44.15517" lon="6.07824">
        <ele>1276.77</ele>
        <time>2013-12-15T12:44:32Z</time>
      </trkpt>
      <trkpt lat="44.15527" lon="6.07821">
        <ele>1278.69</ele>
        <time>2013-12-15T12:44:49Z</time>
      </trkpt>
      <trkpt lat="44.15535" lon="6.07817">
        <ele>1282.06</ele>
        <time>2013-12-15T12:45:03Z</time>
      </trkpt>
      <trkpt lat="44.15546" lon="6.07813">
        <ele>1283.98</ele>
        <time>2013-12-15T12:45:20Z</time>
      </trkpt>
      <trkpt lat="44.15553" lon="6.07811">
        <ele>1287.34</ele>
        <time>2013-12-15T12:45:32Z</time>
      </trkpt>
      <trkpt lat="44.15564" lon="6.07806">
        <ele>1289.75</ele>
        <time>2013-12-15T12:45:49Z</time>
      </trkpt>
      <trkpt lat="44.15574" lon="6.07803">
        <ele>1294.07</ele>
        <time>2013-12-15T12:46:06Z</time>
      </trkpt>
      <trkpt lat="44.15583" lon="6.07797">
        <ele>1295.99</ele>
        <time>2013-12-15T12:46:23Z</time>
      </trkpt>
      <trkpt lat="44.15591" lon="6.07791">
        <ele>1297.92</ele>
        <time>2013-12-15T12:46:37Z</time>
      </trkpt>
      <trkpt lat="44.15599" lon="6.07791">
        <ele>1301.28</ele>
        <time>2013-12-15T12:46:49Z</time>
      </trkpt>
      <trkpt lat="44.15611" lon="6.07791">
        <ele>1301.76</ele>
        <time>2013-12-15T12:47:06Z</time>
      </trkpt>
      <trkpt lat="44.15619" lon="6.07791">
        <ele>1305.13</ele>
        <time>2013-12-15T12:47:17Z</time>
      </trkpt>
      <trkpt lat="44.1563" lon="6.07797">
        <ele>1306.09</ele>
        <time>2013-12-15T12:47:32Z</time>
      </trkpt>
      <trkpt lat="44.15637" lon="6.07798">
        <ele>1309.45</ele>
        <time>2013-12-15T12:47:39Z</time>
      </trkpt>
      <trkpt lat="44.1565" lon="6.07808">
        <ele>1312.34</ele>
        <time>2013-12-15T12:47:58Z</time>
      </trkpt>
      <trkpt lat="44.15662" lon="6.07815">
        <ele>1315.22</ele>
        <time>2013-12-15T12:48:16Z</time>
      </trkpt>
      <trkpt lat="44.15674" lon="6.07823">
        <ele>1314.74</ele>
        <time>2013-12-15T12:48:31Z</time>
      </trkpt>
      <trkpt lat="44.15678" lon="6.07826">
        <ele>1317.62</ele>
        <time>2013-12-15T12:48:37Z</time>
      </trkpt>
      <trkpt lat="44.15688" lon="6.07835">
        <ele>1319.07</ele>
        <time>2013-12-15T12:48:52Z</time>
      </trkpt>
      <trkpt lat="44.15696" lon="6.07838">
        <ele>1319.55</ele>
        <time>2013-12-15T12:49:10Z</time>
      </trkpt>
      <trkpt lat="44.15697" lon="6.0784">
        <ele>1320.03</ele>
        <time>2013-12-15T12:49:37Z</time>
      </trkpt>
      <trkpt lat="44.15696" lon="6.0784">
        <ele>1319.55</ele>
        <time>2013-12-15T12:50:02Z</time>
      </trkpt>
      <trkpt lat="44.15699" lon="6.0784">
        <ele>1320.03</ele>
        <time>2013-12-15T12:50:30Z</time>
      </trkpt>
      <trkpt lat="44.15698" lon="6.0784">
        <ele>1320.03</ele>
        <time>2013-12-15T12:51:02Z</time>
      </trkpt>
      <trkpt lat="44.15698" lon="6.07841">
        <ele>1320.51</ele>
        <time>2013-12-15T12:51:37Z</time>
      </trkpt>
      <trkpt lat="44.15697" lon="6.07841">
        <ele>1320.03</ele>
        <time>2013-12-15T12:52:08Z</time>
      </trkpt>
      <trkpt lat="44.15701" lon="6.07839">
        <ele>1320.51</ele>
        <time>2013-12-15T12:52:38Z</time>
      </trkpt>
      <trkpt lat="44.157" lon="6.07839">
        <ele>1320.51</ele>
        <time>2013-12-15T12:53:00Z</time>
      </trkpt>
      <trkpt lat="44.15705" lon="6.07842">
        <ele>1322.43</ele>
        <time>2013-12-15T12:53:15Z</time>
      </trkpt>
      <trkpt lat="44.15715" lon="6.07846">
        <ele>1323.87</ele>
        <time>2013-12-15T12:53:29Z</time>
      </trkpt>
      <trkpt lat="44.15721" lon="6.07847">
        <ele>1323.87</ele>
        <time>2013-12-15T12:53:38Z</time>
      </trkpt>
      <trkpt lat="44.1573" lon="6.0785">
        <ele>1325.31</ele>
        <time>2013-12-15T12:53:50Z</time>
      </trkpt>
      <trkpt lat="44.15741" lon="6.07857">
        <ele>1326.76</ele>
        <time>2013-12-15T12:54:03Z</time>
      </trkpt>
      <trkpt lat="44.15749" lon="6.07869">
        <ele>1325.8</ele>
        <time>2013-12-15T12:54:15Z</time>
      </trkpt>
      <trkpt lat="44.15762" lon="6.07885">
        <ele>1326.28</ele>
        <time>2013-12-15T12:54:32Z</time>
      </trkpt>
      <trkpt lat="44.15772" lon="6.07902">
        <ele>1327.24</ele>
        <time>2013-12-15T12:54:49Z</time>
      </trkpt>
      <trkpt lat="44.15779" lon="6.07912">
        <ele>1327.72</ele>
        <time>2013-12-15T12:55:04Z</time>
      </trkpt>
      <trkpt lat="44.15788" lon="6.07926">
        <ele>1327.72</ele>
        <time>2013-12-15T12:55:16Z</time>
      </trkpt>
      <trkpt lat="44.15803" lon="6.07941">
        <ele>1327.72</ele>
        <time>2013-12-15T12:55:32Z</time>
      </trkpt>
      <trkpt lat="44.15813" lon="6.07948">
        <ele>1329.16</ele>
        <time>2013-12-15T12:55:42Z</time>
      </trkpt>
      <trkpt lat="44.15827" lon="6.0796">
        <ele>1329.16</ele>
        <time>2013-12-15T12:55:57Z</time>
      </trkpt>
      <trkpt lat="44.15847" lon="6.07971">
        <ele>1329.16</ele>
        <time>2013-12-15T12:56:16Z</time>
      </trkpt>
      <trkpt lat="44.15853" lon="6.07976">
        <ele>1328.2</ele>
        <time>2013-12-15T12:56:22Z</time>
      </trkpt>
      <trkpt lat="44.15856" lon="6.07977">
        <ele>1329.16</ele>
        <time>2013-12-15T12:56:24Z</time>
      </trkpt>
      <trkpt lat="44.15873" lon="6.07986">
        <ele>1329.64</ele>
        <time>2013-12-15T12:56:39Z</time>
      </trkpt>
      <trkpt lat="44.15878" lon="6.07989">
        <ele>1330.6</ele>
        <time>2013-12-15T12:56:44Z</time>
      </trkpt>
      <trkpt lat="44.15892" lon="6.07996">
        <ele>1330.12</ele>
        <time>2013-12-15T12:56:57Z</time>
      </trkpt>
      <trkpt lat="44.159" lon="6.07998">
        <ele>1333.49</ele>
        <time>2013-12-15T12:57:05Z</time>
      </trkpt>
      <trkpt lat="44.15909" lon="6.08004">
        <ele>1332.52</ele>
        <time>2013-12-15T12:57:17Z</time>
      </trkpt>
      <trkpt lat="44.15917" lon="6.08009">
        <ele>1331.08</ele>
        <time>2013-12-15T12:57:30Z</time>
      </trkpt>
      <trkpt lat="44.15921" lon="6.08013">
        <ele>1331.08</ele>
        <time>2013-12-15T12:57:36Z</time>
      </trkpt>
      <trkpt lat="44.15936" lon="6.08027">
        <ele>1330.6</ele>
        <time>2013-12-15T12:57:50Z</time>
      </trkpt>
      <trkpt lat="44.15937" lon="6.0803">
        <ele>1332.04</ele>
        <time>2013-12-15T12:57:52Z</time>
      </trkpt>
      <trkpt lat="44.15945" lon="6.08043">
        <ele>1332.04</ele>
        <time>2013-12-15T12:58:02Z</time>
      </trkpt>
      <trkpt lat="44.15951" lon="6.08055">
        <ele>1333.97</ele>
        <time>2013-12-15T12:58:14Z</time>
      </trkpt>
      <trkpt lat="44.15959" lon="6.08064">
        <ele>1338.29</ele>
        <time>2013-12-15T12:58:27Z</time>
      </trkpt>
      <trkpt lat="44.1597" lon="6.08076">
        <ele>1338.77</ele>
        <time>2013-12-15T12:58:44Z</time>
      </trkpt>
      <trkpt lat="44.15979" lon="6.08079">
        <ele>1342.62</ele>
        <time>2013-12-15T12:58:55Z</time>
      </trkpt>
      <trkpt lat="44.1599" lon="6.08082">
        <ele>1343.58</ele>
        <time>2013-12-15T12:59:08Z</time>
      </trkpt>
      <trkpt lat="44.15992" lon="6.08082">
        <ele>1343.58</ele>
        <time>2013-12-15T12:59:26Z</time>
      </trkpt>
      <trkpt lat="44.15999" lon="6.08084">
        <ele>1343.58</ele>
        <time>2013-12-15T12:59:42Z</time>
      </trkpt>
      <trkpt lat="44.16002" lon="6.08079">
        <ele>1343.58</ele>
        <time>2013-12-15T13:00:03Z</time>
      </trkpt>
      <trkpt lat="44.16006" lon="6.08082">
        <ele>1342.62</ele>
        <time>2013-12-15T13:00:15Z</time>
      </trkpt>
      <trkpt lat="44.16006" lon="6.08082">
        <ele>1342.62</ele>
        <time>2013-12-15T13:00:23Z</time>
      </trkpt>
      <trkpt lat="44.16019" lon="6.08084">
        <ele>1342.14</ele>
        <time>2013-12-15T13:00:35Z</time>
      </trkpt>
      <trkpt lat="44.16031" lon="6.08085">
        <ele>1342.62</ele>
        <time>2013-12-15T13:00:46Z</time>
      </trkpt>
      <trkpt lat="44.16037" lon="6.08085">
        <ele>1342.14</ele>
        <time>2013-12-15T13:00:57Z</time>
      </trkpt>
      <trkpt lat="44.1605" lon="6.08085">
        <ele>1339.73</ele>
        <time>2013-12-15T13:01:08Z</time>
      </trkpt>
      <trkpt lat="44.16058" lon="6.08089">
        <ele>1339.25</ele>
        <time>2013-12-15T13:01:21Z</time>
      </trkpt>
      <trkpt lat="44.16059" lon="6.08088">
        <ele>1339.25</ele>
        <time>2013-12-15T13:01:41Z</time>
      </trkpt>
      <trkpt lat="44.16061" lon="6.08088">
        <ele>1338.29</ele>
        <time>2013-12-15T13:02:06Z</time>
      </trkpt>
      <trkpt lat="44.16083" lon="6.08085">
        <ele>1337.33</ele>
        <time>2013-12-15T13:02:24Z</time>
      </trkpt>
      <trkpt lat="44.16096" lon="6.08088">
        <ele>1334.93</ele>
        <time>2013-12-15T13:02:33Z</time>
      </trkpt>
      <trkpt lat="44.16118" lon="6.08086">
        <ele>1332.52</ele>
        <time>2013-12-15T13:02:52Z</time>
      </trkpt>
      <trkpt lat="44.16136" lon="6.08089">
        <ele>1330.6</ele>
        <time>2013-12-15T13:03:07Z</time>
      </trkpt>
      <trkpt lat="44.16152" lon="6.0809">
        <ele>1329.16</ele>
        <time>2013-12-15T13:03:20Z</time>
      </trkpt>
      <trkpt lat="44.16165" lon="6.08089">
        <ele>1329.64</ele>
        <time>2013-12-15T13:03:31Z</time>
      </trkpt>
      <trkpt lat="44.16182" lon="6.08086">
        <ele>1329.16</ele>
        <time>2013-12-15T13:03:45Z</time>
      </trkpt>
      <trkpt lat="44.162" lon="6.08084">
        <ele>1326.76</ele>
        <time>2013-12-15T13:03:59Z</time>
      </trkpt>
      <trkpt lat="44.16203" lon="6.08083">
        <ele>1328.2</ele>
        <time>2013-12-15T13:04:02Z</time>
      </trkpt>
      <trkpt lat="44.16222" lon="6.08081">
        <ele>1327.24</ele>
        <time>2013-12-15T13:04:17Z</time>
      </trkpt>
      <trkpt lat="44.1624" lon="6.08078">
        <ele>1328.68</ele>
        <time>2013-12-15T13:04:32Z</time>
      </trkpt>
      <trkpt lat="44.16256" lon="6.08076">
        <ele>1331.08</ele>
        <time>2013-12-15T13:04:45Z</time>
      </trkpt>
      <trkpt lat="44.16275" lon="6.08072">
        <ele>1328.68</ele>
        <time>2013-12-15T13:05:00Z</time>
      </trkpt>
      <trkpt lat="44.16277" lon="6.08072">
        <ele>1332.04</ele>
        <time>2013-12-15T13:05:02Z</time>
      </trkpt>
      <trkpt lat="44.16285" lon="6.08072">
        <ele>1331.08</ele>
        <time>2013-12-15T13:05:09Z</time>
      </trkpt>
      <trkpt lat="44.16301" lon="6.08069">
        <ele>1332.04</ele>
        <time>2013-12-15T13:05:23Z</time>
      </trkpt>
      <trkpt lat="44.16314" lon="6.08068">
        <ele>1333.49</ele>
        <time>2013-12-15T13:05:36Z</time>
      </trkpt>
      <trkpt lat="44.16326" lon="6.08068">
        <ele>1333.97</ele>
        <time>2013-12-15T13:05:48Z</time>
      </trkpt>
      <trkpt lat="44.16328" lon="6.08068">
        <ele>1335.41</ele>
        <time>2013-12-15T13:05:50Z</time>
      </trkpt>
      <trkpt lat="44.16342" lon="6.0807">
        <ele>1339.25</ele>
        <time>2013-12-15T13:06:05Z</time>
      </trkpt>
      <trkpt lat="44.16359" lon="6.08073">
        <ele>1340.7</ele>
        <time>2013-12-15T13:06:22Z</time>
      </trkpt>
      <trkpt lat="44.16369" lon="6.08074">
        <ele>1344.06</ele>
        <time>2013-12-15T13:06:32Z</time>
      </trkpt>
      <trkpt lat="44.1638" lon="6.08076">
        <ele>1343.1</ele>
        <time>2013-12-15T13:06:47Z</time>
      </trkpt>
      <trkpt lat="44.16383" lon="6.08076">
        <ele>1346.46</ele>
        <time>2013-12-15T13:06:51Z</time>
      </trkpt>
      <trkpt lat="44.16389" lon="6.08078">
        <ele>1347.43</ele>
        <time>2013-12-15T13:06:59Z</time>
      </trkpt>
      <trkpt lat="44.16399" lon="6.08082">
        <ele>1349.83</ele>
        <time>2013-12-15T13:07:15Z</time>
      </trkpt>
      <trkpt lat="44.16409" lon="6.08086">
        <ele>1353.67</ele>
        <time>2013-12-15T13:07:28Z</time>
      </trkpt>
      <trkpt lat="44.16418" lon="6.08089">
        <ele>1356.08</ele>
        <time>2013-12-15T13:07:44Z</time>
      </trkpt>
      <trkpt lat="44.16429" lon="6.08098">
        <ele>1358</ele>
        <time>2013-12-15T13:08:02Z</time>
      </trkpt>
      <trkpt lat="44.16432" lon="6.08096">
        <ele>1358.96</ele>
        <time>2013-12-15T13:08:13Z</time>
      </trkpt>
      <trkpt lat="44.16435" lon="6.08096">
        <ele>1361.84</ele>
        <time>2013-12-15T13:08:20Z</time>
      </trkpt>
      <trkpt lat="44.16446" lon="6.08101">
        <ele>1365.21</ele>
        <time>2013-12-15T13:08:39Z</time>
      </trkpt>
      <trkpt lat="44.16452" lon="6.08106">
        <ele>1368.09</ele>
        <time>2013-12-15T13:08:54Z</time>
      </trkpt>
      <trkpt lat="44.1646" lon="6.08113">
        <ele>1370.98</ele>
        <time>2013-12-15T13:09:09Z</time>
      </trkpt>
      <trkpt lat="44.16463" lon="6.08116">
        <ele>1371.94</ele>
        <time>2013-12-15T13:09:16Z</time>
      </trkpt>
      <trkpt lat="44.16468" lon="6.08121">
        <ele>1374.82</ele>
        <time>2013-12-15T13:09:25Z</time>
      </trkpt>
      <trkpt lat="44.16474" lon="6.08129">
        <ele>1376.75</ele>
        <time>2013-12-15T13:09:43Z</time>
      </trkpt>
      <trkpt lat="44.16478" lon="6.08134">
        <ele>1379.63</ele>
        <time>2013-12-15T13:09:52Z</time>
      </trkpt>
      <trkpt lat="44.16484" lon="6.08137">
        <ele>1381.07</ele>
        <time>2013-12-15T13:10:05Z</time>
      </trkpt>
      <trkpt lat="44.16491" lon="6.08139">
        <ele>1384.92</ele>
        <time>2013-12-15T13:10:17Z</time>
      </trkpt>
      <trkpt lat="44.16499" lon="6.08142">
        <ele>1386.36</ele>
        <time>2013-12-15T13:10:32Z</time>
      </trkpt>
      <trkpt lat="44.16504" lon="6.08144">
        <ele>1389.72</ele>
        <time>2013-12-15T13:10:40Z</time>
      </trkpt>
      <trkpt lat="44.16512" lon="6.08145">
        <ele>1391.17</ele>
        <time>2013-12-15T13:10:53Z</time>
      </trkpt>
      <trkpt lat="44.1652" lon="6.0815">
        <ele>1394.53</ele>
        <time>2013-12-15T13:11:06Z</time>
      </trkpt>
      <trkpt lat="44.16534" lon="6.08153">
        <ele>1395.97</ele>
        <time>2013-12-15T13:11:22Z</time>
      </trkpt>
      <trkpt lat="44.1655" lon="6.08167">
        <ele>1399.34</ele>
        <time>2013-12-15T13:11:39Z</time>
      </trkpt>
      <trkpt lat="44.16551" lon="6.08168">
        <ele>1397.89</ele>
        <time>2013-12-15T13:11:40Z</time>
      </trkpt>
      <trkpt lat="44.16564" lon="6.08172">
        <ele>1397.89</ele>
        <time>2013-12-15T13:11:54Z</time>
      </trkpt>
      <trkpt lat="44.16567" lon="6.08177">
        <ele>1397.89</ele>
        <time>2013-12-15T13:12:06Z</time>
      </trkpt>
      <trkpt lat="44.16567" lon="6.08177">
        <ele>1398.37</ele>
        <time>2013-12-15T13:12:33Z</time>
      </trkpt>
      <trkpt lat="44.16569" lon="6.08177">
        <ele>1397.89</ele>
        <time>2013-12-15T13:12:57Z</time>
      </trkpt>
      <trkpt lat="44.1657" lon="6.08179">
        <ele>1397.89</ele>
        <time>2013-12-15T13:13:11Z</time>
      </trkpt>
      <trkpt lat="44.16566" lon="6.0818">
        <ele>1398.37</ele>
        <time>2013-12-15T13:13:37Z</time>
      </trkpt>
      <trkpt lat="44.16569" lon="6.08183">
        <ele>1398.37</ele>
        <time>2013-12-15T13:14:05Z</time>
      </trkpt>
      <trkpt lat="44.16569" lon="6.08182">
        <ele>1397.89</ele>
        <time>2013-12-15T13:14:26Z</time>
      </trkpt>
      <trkpt lat="44.16586" lon="6.08193">
        <ele>1397.41</ele>
        <time>2013-12-15T13:14:41Z</time>
      </trkpt>
      <trkpt lat="44.16596" lon="6.08208">
        <ele>1395.49</ele>
        <time>2013-12-15T13:14:53Z</time>
      </trkpt>
      <trkpt lat="44.16598" lon="6.0821">
        <ele>1396.45</ele>
        <time>2013-12-15T13:14:55Z</time>
      </trkpt>
      <trkpt lat="44.16612" lon="6.08222">
        <ele>1393.57</ele>
        <time>2013-12-15T13:15:07Z</time>
      </trkpt>
      <trkpt lat="44.16621" lon="6.08231">
        <ele>1394.05</ele>
        <time>2013-12-15T13:15:14Z</time>
      </trkpt>
      <trkpt lat="44.16632" lon="6.08258">
        <ele>1392.13</ele>
        <time>2013-12-15T13:15:30Z</time>
      </trkpt>
      <trkpt lat="44.16636" lon="6.0827">
        <ele>1393.57</ele>
        <time>2013-12-15T13:15:38Z</time>
      </trkpt>
      <trkpt lat="44.16644" lon="6.08286">
        <ele>1392.13</ele>
        <time>2013-12-15T13:15:51Z</time>
      </trkpt>
      <trkpt lat="44.16644" lon="6.08288">
        <ele>1395.97</ele>
        <time>2013-12-15T13:15:52Z</time>
      </trkpt>
      <trkpt lat="44.16652" lon="6.08305">
        <ele>1396.45</ele>
        <time>2013-12-15T13:16:07Z</time>
      </trkpt>
      <trkpt lat="44.16655" lon="6.08314">
        <ele>1399.82</ele>
        <time>2013-12-15T13:16:14Z</time>
      </trkpt>
      <trkpt lat="44.16657" lon="6.0832">
        <ele>1399.82</ele>
        <time>2013-12-15T13:16:19Z</time>
      </trkpt>
      <trkpt lat="44.16659" lon="6.08328">
        <ele>1399.82</ele>
        <time>2013-12-15T13:16:25Z</time>
      </trkpt>
      <trkpt lat="44.16661" lon="6.08333">
        <ele>1401.74</ele>
        <time>2013-12-15T13:16:30Z</time>
      </trkpt>
      <trkpt lat="44.16664" lon="6.08347">
        <ele>1402.7</ele>
        <time>2013-12-15T13:16:45Z</time>
      </trkpt>
      <trkpt lat="44.16667" lon="6.08354">
        <ele>1406.07</ele>
        <time>2013-12-15T13:16:53Z</time>
      </trkpt>
      <trkpt lat="44.16667" lon="6.08357">
        <ele>1406.07</ele>
        <time>2013-12-15T13:16:57Z</time>
      </trkpt>
      <trkpt lat="44.16666" lon="6.08369">
        <ele>1408.47</ele>
        <time>2013-12-15T13:17:10Z</time>
      </trkpt>
      <trkpt lat="44.16666" lon="6.08376">
        <ele>1411.83</ele>
        <time>2013-12-15T13:17:19Z</time>
      </trkpt>
      <trkpt lat="44.16667" lon="6.08383">
        <ele>1412.31</ele>
        <time>2013-12-15T13:17:27Z</time>
      </trkpt>
      <trkpt lat="44.16669" lon="6.08388">
        <ele>1413.76</ele>
        <time>2013-12-15T13:17:34Z</time>
      </trkpt>
      <trkpt lat="44.16672" lon="6.08401">
        <ele>1416.64</ele>
        <time>2013-12-15T13:17:47Z</time>
      </trkpt>
      <trkpt lat="44.16674" lon="6.08411">
        <ele>1420</ele>
        <time>2013-12-15T13:18:03Z</time>
      </trkpt>
      <trkpt lat="44.16673" lon="6.08423">
        <ele>1421.45</ele>
        <time>2013-12-15T13:18:18Z</time>
      </trkpt>
      <trkpt lat="44.16674" lon="6.0843">
        <ele>1424.81</ele>
        <time>2013-12-15T13:18:29Z</time>
      </trkpt>
      <trkpt lat="44.16675" lon="6.08443">
        <ele>1428.66</ele>
        <time>2013-12-15T13:18:45Z</time>
      </trkpt>
      <trkpt lat="44.16675" lon="6.08452">
        <ele>1429.14</ele>
        <time>2013-12-15T13:18:58Z</time>
      </trkpt>
      <trkpt lat="44.16678" lon="6.0846">
        <ele>1431.54</ele>
        <time>2013-12-15T13:19:08Z</time>
      </trkpt>
      <trkpt lat="44.1668" lon="6.08468">
        <ele>1432.02</ele>
        <time>2013-12-15T13:19:18Z</time>
      </trkpt>
      <trkpt lat="44.16682" lon="6.08469">
        <ele>1432.5</ele>
        <time>2013-12-15T13:19:31Z</time>
      </trkpt>
      <trkpt lat="44.16683" lon="6.0847">
        <ele>1433.46</ele>
        <time>2013-12-15T13:19:32Z</time>
      </trkpt>
      <trkpt lat="44.16687" lon="6.08473">
        <ele>1432.98</ele>
        <time>2013-12-15T13:19:36Z</time>
      </trkpt>
      <trkpt lat="44.16693" lon="6.08476">
        <ele>1432.02</ele>
        <time>2013-12-15T13:19:51Z</time>
      </trkpt>
      <trkpt lat="44.1669" lon="6.08475">
        <ele>1432.02</ele>
        <time>2013-12-15T13:20:10Z</time>
      </trkpt>
      <trkpt lat="44.16688" lon="6.08474">
        <ele>1432.02</ele>
        <time>2013-12-15T13:20:34Z</time>
      </trkpt>
      <trkpt lat="44.16689" lon="6.08477">
        <ele>1432.02</ele>
        <time>2013-12-15T13:20:55Z</time>
      </trkpt>
      <trkpt lat="44.16687" lon="6.08477">
        <ele>1432.02</ele>
        <time>2013-12-15T13:21:22Z</time>
      </trkpt>
      <trkpt lat="44.16688" lon="6.08477">
        <ele>1432.02</ele>
        <time>2013-12-15T13:21:46Z</time>
      </trkpt>
      <trkpt lat="44.16687" lon="6.08477">
        <ele>1432.02</ele>
        <time>2013-12-15T13:22:15Z</time>
      </trkpt>
      <trkpt lat="44.16688" lon="6.08477">
        <ele>1432.02</ele>
        <time>2013-12-15T13:22:37Z</time>
      </trkpt>
      <trkpt lat="44.16687" lon="6.08477">
        <ele>1432.02</ele>
        <time>2013-12-15T13:23:04Z</time>
      </trkpt>
      <trkpt lat="44.16688" lon="6.08478">
        <ele>1432.02</ele>
        <time>2013-12-15T13:23:26Z</time>
      </trkpt>
      <trkpt lat="44.16688" lon="6.08475">
        <ele>1432.02</ele>
        <time>2013-12-15T13:23:49Z</time>
      </trkpt>
      <trkpt lat="44.1669" lon="6.08475">
        <ele>1431.54</ele>
        <time>2013-12-15T13:24:14Z</time>
      </trkpt>
      <trkpt lat="44.16689" lon="6.08479">
        <ele>1431.54</ele>
        <time>2013-12-15T13:24:45Z</time>
      </trkpt>
      <trkpt lat="44.16695" lon="6.08477">
        <ele>1430.1</ele>
        <time>2013-12-15T13:24:58Z</time>
      </trkpt>
      <trkpt lat="44.16711" lon="6.08477">
        <ele>1427.7</ele>
        <time>2013-12-15T13:25:14Z</time>
      </trkpt>
      <trkpt lat="44.16722" lon="6.08475">
        <ele>1425.29</ele>
        <time>2013-12-15T13:25:23Z</time>
      </trkpt>
      <trkpt lat="44.16737" lon="6.08479">
        <ele>1424.81</ele>
        <time>2013-12-15T13:25:37Z</time>
      </trkpt>
      <trkpt lat="44.16751" lon="6.08482">
        <ele>1421.45</ele>
        <time>2013-12-15T13:25:49Z</time>
      </trkpt>
      <trkpt lat="44.16769" lon="6.0849">
        <ele>1419.52</ele>
        <time>2013-12-15T13:26:05Z</time>
      </trkpt>
      <trkpt lat="44.16785" lon="6.085">
        <ele>1417.12</ele>
        <time>2013-12-15T13:26:19Z</time>
      </trkpt>
      <trkpt lat="44.16793" lon="6.08503">
        <ele>1415.68</ele>
        <time>2013-12-15T13:26:31Z</time>
      </trkpt>
      <trkpt lat="44.16803" lon="6.08507">
        <ele>1414.24</ele>
        <time>2013-12-15T13:26:42Z</time>
      </trkpt>
      <trkpt lat="44.16816" lon="6.08517">
        <ele>1410.87</ele>
        <time>2013-12-15T13:26:57Z</time>
      </trkpt>
      <trkpt lat="44.16824" lon="6.08521">
        <ele>1408.95</ele>
        <time>2013-12-15T13:27:09Z</time>
      </trkpt>
      <trkpt lat="44.16834" lon="6.0853">
        <ele>1405.58</ele>
        <time>2013-12-15T13:27:21Z</time>
      </trkpt>
      <trkpt lat="44.16842" lon="6.08538">
        <ele>1404.62</ele>
        <time>2013-12-15T13:27:30Z</time>
      </trkpt>
      <trkpt lat="44.16846" lon="6.08544">
        <ele>1402.7</ele>
        <time>2013-12-15T13:27:35Z</time>
      </trkpt>
      <trkpt lat="44.16861" lon="6.08558">
        <ele>1401.26</ele>
        <time>2013-12-15T13:27:50Z</time>
      </trkpt>
      <trkpt lat="44.1687" lon="6.08566">
        <ele>1400.78</ele>
        <time>2013-12-15T13:28:01Z</time>
      </trkpt>
      <trkpt lat="44.1688" lon="6.08577">
        <ele>1397.41</ele>
        <time>2013-12-15T13:28:13Z</time>
      </trkpt>
      <trkpt lat="44.16895" lon="6.08591">
        <ele>1397.41</ele>
        <time>2013-12-15T13:28:28Z</time>
      </trkpt>
      <trkpt lat="44.16896" lon="6.08592">
        <ele>1397.41</ele>
        <time>2013-12-15T13:28:29Z</time>
      </trkpt>
      <trkpt lat="44.16898" lon="6.08602">
        <ele>1397.89</ele>
        <time>2013-12-15T13:28:43Z</time>
      </trkpt>
      <trkpt lat="44.169" lon="6.08606">
        <ele>1398.86</ele>
        <time>2013-12-15T13:28:48Z</time>
      </trkpt>
      <trkpt lat="44.16907" lon="6.08613">
        <ele>1399.34</ele>
        <time>2013-12-15T13:28:54Z</time>
      </trkpt>
      <trkpt lat="44.16917" lon="6.08624">
        <ele>1400.78</ele>
        <time>2013-12-15T13:29:06Z</time>
      </trkpt>
      <trkpt lat="44.16928" lon="6.08639">
        <ele>1399.82</ele>
        <time>2013-12-15T13:29:19Z</time>
      </trkpt>
      <trkpt lat="44.1694" lon="6.08652">
        <ele>1400.78</ele>
        <time>2013-12-15T13:29:32Z</time>
      </trkpt>
      <trkpt lat="44.16944" lon="6.08655">
        <ele>1401.26</ele>
        <time>2013-12-15T13:29:36Z</time>
      </trkpt>
      <trkpt lat="44.1696" lon="6.08665">
        <ele>1399.82</ele>
        <time>2013-12-15T13:29:50Z</time>
      </trkpt>
      <trkpt lat="44.16966" lon="6.08668">
        <ele>1400.78</ele>
        <time>2013-12-15T13:29:55Z</time>
      </trkpt>
      <trkpt lat="44.16983" lon="6.08678">
        <ele>1399.34</ele>
        <time>2013-12-15T13:30:11Z</time>
      </trkpt>
      <trkpt lat="44.16995" lon="6.08679">
        <ele>1398.37</ele>
        <time>2013-12-15T13:30:24Z</time>
      </trkpt>
      <trkpt lat="44.17015" lon="6.08682">
        <ele>1397.41</ele>
        <time>2013-12-15T13:30:40Z</time>
      </trkpt>
      <trkpt lat="44.17034" lon="6.08688">
        <ele>1395.49</ele>
        <time>2013-12-15T13:30:56Z</time>
      </trkpt>
      <trkpt lat="44.17052" lon="6.08697">
        <ele>1393.09</ele>
        <time>2013-12-15T13:31:11Z</time>
      </trkpt>
      <trkpt lat="44.17068" lon="6.08704">
        <ele>1393.09</ele>
        <time>2013-12-15T13:31:25Z</time>
      </trkpt>
      <trkpt lat="44.17079" lon="6.08711">
        <ele>1390.68</ele>
        <time>2013-12-15T13:31:36Z</time>
      </trkpt>
      <trkpt lat="44.17096" lon="6.0872">
        <ele>1390.2</ele>
        <time>2013-12-15T13:31:50Z</time>
      </trkpt>
      <trkpt lat="44.17116" lon="6.08727">
        <ele>1390.68</ele>
        <time>2013-12-15T13:32:07Z</time>
      </trkpt>
      <trkpt lat="44.1713" lon="6.08736">
        <ele>1391.65</ele>
        <time>2013-12-15T13:32:21Z</time>
      </trkpt>
      <trkpt lat="44.17144" lon="6.08748">
        <ele>1392.13</ele>
        <time>2013-12-15T13:32:35Z</time>
      </trkpt>
      <trkpt lat="44.17145" lon="6.08749">
        <ele>1393.09</ele>
        <time>2013-12-15T13:32:36Z</time>
      </trkpt>
      <trkpt lat="44.17155" lon="6.0877">
        <ele>1392.13</ele>
        <time>2013-12-15T13:32:51Z</time>
      </trkpt>
      <trkpt lat="44.17156" lon="6.08772">
        <ele>1391.65</ele>
        <time>2013-12-15T13:32:52Z</time>
      </trkpt>
      <trkpt lat="44.17157" lon="6.08778">
        <ele>1390.2</ele>
        <time>2013-12-15T13:32:55Z</time>
      </trkpt>
      <trkpt lat="44.17157" lon="6.08781">
        <ele>1391.65</ele>
        <time>2013-12-15T13:32:57Z</time>
      </trkpt>
      <trkpt lat="44.17167" lon="6.088">
        <ele>1389.72</ele>
        <time>2013-12-15T13:33:11Z</time>
      </trkpt>
      <trkpt lat="44.17174" lon="6.08811">
        <ele>1391.65</ele>
        <time>2013-12-15T13:33:23Z</time>
      </trkpt>
      <trkpt lat="44.17184" lon="6.08819">
        <ele>1394.53</ele>
        <time>2013-12-15T13:33:38Z</time>
      </trkpt>
      <trkpt lat="44.17197" lon="6.08828">
        <ele>1394.53</ele>
        <time>2013-12-15T13:33:53Z</time>
      </trkpt>
      <trkpt lat="44.17202" lon="6.08838">
        <ele>1394.53</ele>
        <time>2013-12-15T13:34:03Z</time>
      </trkpt>
      <trkpt lat="44.17217" lon="6.08849">
        <ele>1397.41</ele>
        <time>2013-12-15T13:34:18Z</time>
      </trkpt>
      <trkpt lat="44.17223" lon="6.08855">
        <ele>1396.45</ele>
        <time>2013-12-15T13:34:25Z</time>
      </trkpt>
      <trkpt lat="44.17235" lon="6.08869">
        <ele>1397.41</ele>
        <time>2013-12-15T13:34:40Z</time>
      </trkpt>
      <trkpt lat="44.1725" lon="6.08876">
        <ele>1397.41</ele>
        <time>2013-12-15T13:34:57Z</time>
      </trkpt>
      <trkpt lat="44.17266" lon="6.08895">
        <ele>1398.37</ele>
        <time>2013-12-15T13:35:12Z</time>
      </trkpt>
      <trkpt lat="44.1728" lon="6.08911">
        <ele>1397.41</ele>
        <time>2013-12-15T13:35:27Z</time>
      </trkpt>
      <trkpt lat="44.17294" lon="6.0893">
        <ele>1397.41</ele>
        <time>2013-12-15T13:35:43Z</time>
      </trkpt>
      <trkpt lat="44.17297" lon="6.08935">
        <ele>1396.45</ele>
        <time>2013-12-15T13:35:48Z</time>
      </trkpt>
      <trkpt lat="44.17298" lon="6.08937">
        <ele>1397.89</ele>
        <time>2013-12-15T13:35:50Z</time>
      </trkpt>
      <trkpt lat="44.17299" lon="6.08937">
        <ele>1396.93</ele>
        <time>2013-12-15T13:36:01Z</time>
      </trkpt>
      <trkpt lat="44.17299" lon="6.08937">
        <ele>1397.89</ele>
        <time>2013-12-15T13:36:13Z</time>
      </trkpt>
      <trkpt lat="44.17314" lon="6.08954">
        <ele>1397.89</ele>
        <time>2013-12-15T13:36:27Z</time>
      </trkpt>
      <trkpt lat="44.17327" lon="6.08963">
        <ele>1395.97</ele>
        <time>2013-12-15T13:36:40Z</time>
      </trkpt>
      <trkpt lat="44.17328" lon="6.08964">
        <ele>1395.97</ele>
        <time>2013-12-15T13:36:41Z</time>
      </trkpt>
      <trkpt lat="44.17338" lon="6.08973">
        <ele>1395.97</ele>
        <time>2013-12-15T13:36:55Z</time>
      </trkpt>
      <trkpt lat="44.17337" lon="6.08974">
        <ele>1394.53</ele>
        <time>2013-12-15T13:36:56Z</time>
      </trkpt>
      <trkpt lat="44.1732" lon="6.08978">
        <ele>1397.89</ele>
        <time>2013-12-15T13:37:10Z</time>
      </trkpt>
      <trkpt lat="44.17318" lon="6.08978">
        <ele>1396.45</ele>
        <time>2013-12-15T13:37:12Z</time>
      </trkpt>
      <trkpt lat="44.17302" lon="6.08979">
        <ele>1398.37</ele>
        <time>2013-12-15T13:37:25Z</time>
      </trkpt>
      <trkpt lat="44.17303" lon="6.08983">
        <ele>1398.86</ele>
        <time>2013-12-15T13:37:37Z</time>
      </trkpt>
      <trkpt lat="44.17303" lon="6.08983">
        <ele>1399.34</ele>
        <time>2013-12-15T13:37:53Z</time>
      </trkpt>
      <trkpt lat="44.17299" lon="6.08979">
        <ele>1398.37</ele>
        <time>2013-12-15T13:38:05Z</time>
      </trkpt>
      <trkpt lat="44.17299" lon="6.08972">
        <ele>1397.89</ele>
        <time>2013-12-15T13:38:10Z</time>
      </trkpt>
      <trkpt lat="44.17302" lon="6.08963">
        <ele>1396.93</ele>
        <time>2013-12-15T13:38:15Z</time>
      </trkpt>
      <trkpt lat="44.173" lon="6.08955">
        <ele>1397.41</ele>
        <time>2013-12-15T13:38:26Z</time>
      </trkpt>
      <trkpt lat="44.17299" lon="6.08952">
        <ele>1396.93</ele>
        <time>2013-12-15T13:38:41Z</time>
      </trkpt>
      <trkpt lat="44.17297" lon="6.08933">
        <ele>1396.45</ele>
        <time>2013-12-15T13:38:55Z</time>
      </trkpt>
      <trkpt lat="44.17295" lon="6.08916">
        <ele>1395.49</ele>
        <time>2013-12-15T13:39:07Z</time>
      </trkpt>
      <trkpt lat="44.17288" lon="6.08903">
        <ele>1391.65</ele>
        <time>2013-12-15T13:39:19Z</time>
      </trkpt>
      <trkpt lat="44.17284" lon="6.08897">
        <ele>1390.2</ele>
        <time>2013-12-15T13:39:24Z</time>
      </trkpt>
      <trkpt lat="44.17284" lon="6.08896">
        <ele>1391.65</ele>
        <time>2013-12-15T13:39:25Z</time>
      </trkpt>
      <trkpt lat="44.17274" lon="6.08872">
        <ele>1388.76</ele>
        <time>2013-12-15T13:39:42Z</time>
      </trkpt>
      <trkpt lat="44.17268" lon="6.0886">
        <ele>1388.28</ele>
        <time>2013-12-15T13:39:49Z</time>
      </trkpt>
      <trkpt lat="44.17255" lon="6.08836">
        <ele>1389.72</ele>
        <time>2013-12-15T13:40:06Z</time>
      </trkpt>
      <trkpt lat="44.17256" lon="6.08808">
        <ele>1387.32</ele>
        <time>2013-12-15T13:40:21Z</time>
      </trkpt>
      <trkpt lat="44.17254" lon="6.08787">
        <ele>1384.44</ele>
        <time>2013-12-15T13:40:36Z</time>
      </trkpt>
      <trkpt lat="44.17248" lon="6.08769">
        <ele>1382.51</ele>
        <time>2013-12-15T13:40:51Z</time>
      </trkpt>
      <trkpt lat="44.17247" lon="6.08766">
        <ele>1382.03</ele>
        <time>2013-12-15T13:41:05Z</time>
      </trkpt>
      <trkpt lat="44.1724" lon="6.08745">
        <ele>1378.67</ele>
        <time>2013-12-15T13:41:18Z</time>
      </trkpt>
      <trkpt lat="44.17236" lon="6.08726">
        <ele>1375.78</ele>
        <time>2013-12-15T13:41:31Z</time>
      </trkpt>
      <trkpt lat="44.17235" lon="6.08709">
        <ele>1372.42</ele>
        <time>2013-12-15T13:41:45Z</time>
      </trkpt>
      <trkpt lat="44.17236" lon="6.08708">
        <ele>1372.42</ele>
        <time>2013-12-15T13:41:46Z</time>
      </trkpt>
      <trkpt lat="44.17238" lon="6.08699">
        <ele>1368.57</ele>
        <time>2013-12-15T13:41:57Z</time>
      </trkpt>
      <trkpt lat="44.17237" lon="6.0869">
        <ele>1367.61</ele>
        <time>2013-12-15T13:42:06Z</time>
      </trkpt>
      <trkpt lat="44.17232" lon="6.08684">
        <ele>1366.17</ele>
        <time>2013-12-15T13:42:19Z</time>
      </trkpt>
      <trkpt lat="44.17221" lon="6.0868">
        <ele>1363.77</ele>
        <time>2013-12-15T13:42:33Z</time>
      </trkpt>
      <trkpt lat="44.17218" lon="6.08673">
        <ele>1362.33</ele>
        <time>2013-12-15T13:42:45Z</time>
      </trkpt>
      <trkpt lat="44.17226" lon="6.08668">
        <ele>1363.29</ele>
        <time>2013-12-15T13:42:59Z</time>
      </trkpt>
      <trkpt lat="44.17227" lon="6.0867">
        <ele>1362.33</ele>
        <time>2013-12-15T13:43:21Z</time>
      </trkpt>
      <trkpt lat="44.17234" lon="6.08666">
        <ele>1361.36</ele>
        <time>2013-12-15T13:43:35Z</time>
      </trkpt>
      <trkpt lat="44.17246" lon="6.08665">
        <ele>1358.48</ele>
        <time>2013-12-15T13:43:50Z</time>
      </trkpt>
      <trkpt lat="44.17254" lon="6.08669">
        <ele>1355.6</ele>
        <time>2013-12-15T13:43:59Z</time>
      </trkpt>
      <trkpt lat="44.17257" lon="6.08665">
        <ele>1353.67</ele>
        <time>2013-12-15T13:44:11Z</time>
      </trkpt>
      <trkpt lat="44.17252" lon="6.08655">
        <ele>1350.31</ele>
        <time>2013-12-15T13:44:22Z</time>
      </trkpt>
      <trkpt lat="44.17259" lon="6.08647">
        <ele>1347.91</ele>
        <time>2013-12-15T13:44:35Z</time>
      </trkpt>
      <trkpt lat="44.17264" lon="6.08644">
        <ele>1345.02</ele>
        <time>2013-12-15T13:44:45Z</time>
      </trkpt>
      <trkpt lat="44.17258" lon="6.08635">
        <ele>1341.66</ele>
        <time>2013-12-15T13:44:56Z</time>
      </trkpt>
      <trkpt lat="44.17261" lon="6.08628">
        <ele>1339.73</ele>
        <time>2013-12-15T13:45:07Z</time>
      </trkpt>
      <trkpt lat="44.17264" lon="6.08623">
        <ele>1336.37</ele>
        <time>2013-12-15T13:45:17Z</time>
      </trkpt>
      <trkpt lat="44.17266" lon="6.08619">
        <ele>1335.89</ele>
        <time>2013-12-15T13:45:30Z</time>
      </trkpt>
      <trkpt lat="44.1727" lon="6.08616">
        <ele>1334.93</ele>
        <time>2013-12-15T13:45:55Z</time>
      </trkpt>
      <trkpt lat="44.17279" lon="6.08616">
        <ele>1332.04</ele>
        <time>2013-12-15T13:46:09Z</time>
      </trkpt>
      <trkpt lat="44.17279" lon="6.08614">
        <ele>1328.2</ele>
        <time>2013-12-15T13:46:17Z</time>
      </trkpt>
      <trkpt lat="44.17278" lon="6.08599">
        <ele>1325.8</ele>
        <time>2013-12-15T13:46:32Z</time>
      </trkpt>
      <trkpt lat="44.17285" lon="6.08592">
        <ele>1322.43</ele>
        <time>2013-12-15T13:46:43Z</time>
      </trkpt>
      <trkpt lat="44.17289" lon="6.0859">
        <ele>1319.55</ele>
        <time>2013-12-15T13:46:51Z</time>
      </trkpt>
      <trkpt lat="44.17293" lon="6.08585">
        <ele>1317.62</ele>
        <time>2013-12-15T13:47:06Z</time>
      </trkpt>
      <trkpt lat="44.17295" lon="6.08581">
        <ele>1315.7</ele>
        <time>2013-12-15T13:47:16Z</time>
      </trkpt>
      <trkpt lat="44.17296" lon="6.08578">
        <ele>1314.26</ele>
        <time>2013-12-15T13:47:35Z</time>
      </trkpt>
      <trkpt lat="44.17297" lon="6.08574">
        <ele>1311.86</ele>
        <time>2013-12-15T13:47:45Z</time>
      </trkpt>
      <trkpt lat="44.17299" lon="6.08578">
        <ele>1312.34</ele>
        <time>2013-12-15T13:48:08Z</time>
      </trkpt>
      <trkpt lat="44.17297" lon="6.0857">
        <ele>1308.01</ele>
        <time>2013-12-15T13:48:18Z</time>
      </trkpt>
      <trkpt lat="44.17304" lon="6.08566">
        <ele>1308.01</ele>
        <time>2013-12-15T13:48:29Z</time>
      </trkpt>
      <trkpt lat="44.17307" lon="6.08566">
        <ele>1307.05</ele>
        <time>2013-12-15T13:48:45Z</time>
      </trkpt>
      <trkpt lat="44.17306" lon="6.08555">
        <ele>1303.2</ele>
        <time>2013-12-15T13:48:56Z</time>
      </trkpt>
      <trkpt lat="44.17306" lon="6.08555">
        <ele>1303.2</ele>
        <time>2013-12-15T13:48:57Z</time>
      </trkpt>
      <trkpt lat="44.17303" lon="6.08549">
        <ele>1301.76</ele>
        <time>2013-12-15T13:49:06Z</time>
      </trkpt>
      <trkpt lat="44.17306" lon="6.08547">
        <ele>1300.32</ele>
        <time>2013-12-15T13:49:09Z</time>
      </trkpt>
      <trkpt lat="44.17311" lon="6.08545">
        <ele>1299.84</ele>
        <time>2013-12-15T13:49:14Z</time>
      </trkpt>
      <trkpt lat="44.17312" lon="6.08536">
        <ele>1296.48</ele>
        <time>2013-12-15T13:49:23Z</time>
      </trkpt>
      <trkpt lat="44.17312" lon="6.08529">
        <ele>1294.07</ele>
        <time>2013-12-15T13:49:30Z</time>
      </trkpt>
      <trkpt lat="44.17315" lon="6.08519">
        <ele>1291.67</ele>
        <time>2013-12-15T13:49:41Z</time>
      </trkpt>
      <trkpt lat="44.17316" lon="6.08518">
        <ele>1290.23</ele>
        <time>2013-12-15T13:49:44Z</time>
      </trkpt>
      <trkpt lat="44.1732" lon="6.08513">
        <ele>1288.3</ele>
        <time>2013-12-15T13:49:58Z</time>
      </trkpt>
      <trkpt lat="44.17329" lon="6.08511">
        <ele>1284.94</ele>
        <time>2013-12-15T13:50:08Z</time>
      </trkpt>
      <trkpt lat="44.17337" lon="6.08508">
        <ele>1282.54</ele>
        <time>2013-12-15T13:50:20Z</time>
      </trkpt>
      <trkpt lat="44.17336" lon="6.085">
        <ele>1279.17</ele>
        <time>2013-12-15T13:50:30Z</time>
      </trkpt>
      <trkpt lat="44.17341" lon="6.08494">
        <ele>1276.29</ele>
        <time>2013-12-15T13:50:43Z</time>
      </trkpt>
      <trkpt lat="44.17343" lon="6.08494">
        <ele>1274.85</ele>
        <time>2013-12-15T13:50:54Z</time>
      </trkpt>
      <trkpt lat="44.17344" lon="6.08493">
        <ele>1274.85</ele>
        <time>2013-12-15T13:51:17Z</time>
      </trkpt>
      <trkpt lat="44.17348" lon="6.08487">
        <ele>1271.48</ele>
        <time>2013-12-15T13:51:29Z</time>
      </trkpt>
      <trkpt lat="44.17352" lon="6.08482">
        <ele>1268.6</ele>
        <time>2013-12-15T13:51:41Z</time>
      </trkpt>
      <trkpt lat="44.1735" lon="6.08479">
        <ele>1268.12</ele>
        <time>2013-12-15T13:51:45Z</time>
      </trkpt>
      <trkpt lat="44.17348" lon="6.08477">
        <ele>1267.16</ele>
        <time>2013-12-15T13:51:47Z</time>
      </trkpt>
      <trkpt lat="44.17348" lon="6.08469">
        <ele>1263.79</ele>
        <time>2013-12-15T13:51:58Z</time>
      </trkpt>
      <trkpt lat="44.1735" lon="6.0846">
        <ele>1260.43</ele>
        <time>2013-12-15T13:52:10Z</time>
      </trkpt>
      <trkpt lat="44.17354" lon="6.08452">
        <ele>1257.06</ele>
        <time>2013-12-15T13:52:23Z</time>
      </trkpt>
      <trkpt lat="44.17357" lon="6.08443">
        <ele>1253.7</ele>
        <time>2013-12-15T13:52:34Z</time>
      </trkpt>
      <trkpt lat="44.17362" lon="6.08434">
        <ele>1250.33</ele>
        <time>2013-12-15T13:52:46Z</time>
      </trkpt>
      <trkpt lat="44.17362" lon="6.0843">
        <ele>1248.89</ele>
        <time>2013-12-15T13:52:53Z</time>
      </trkpt>
      <trkpt lat="44.17364" lon="6.08428">
        <ele>1247.45</ele>
        <time>2013-12-15T13:52:57Z</time>
      </trkpt>
      <trkpt lat="44.17365" lon="6.08418">
        <ele>1245.04</ele>
        <time>2013-12-15T13:53:08Z</time>
      </trkpt>
      <trkpt lat="44.17368" lon="6.08415">
        <ele>1244.08</ele>
        <time>2013-12-15T13:53:19Z</time>
      </trkpt>
      <trkpt lat="44.17367" lon="6.08413">
        <ele>1243.6</ele>
        <time>2013-12-15T13:53:41Z</time>
      </trkpt>
      <trkpt lat="44.17374" lon="6.084">
        <ele>1240.72</ele>
        <time>2013-12-15T13:53:53Z</time>
      </trkpt>
      <trkpt lat="44.17377" lon="6.08393">
        <ele>1237.83</ele>
        <time>2013-12-15T13:54:01Z</time>
      </trkpt>
      <trkpt lat="44.17378" lon="6.08384">
        <ele>1234.47</ele>
        <time>2013-12-15T13:54:11Z</time>
      </trkpt>
      <trkpt lat="44.17384" lon="6.08374">
        <ele>1232.07</ele>
        <time>2013-12-15T13:54:24Z</time>
      </trkpt>
      <trkpt lat="44.17385" lon="6.0837">
        <ele>1231.11</ele>
        <time>2013-12-15T13:54:29Z</time>
      </trkpt>
      <trkpt lat="44.17386" lon="6.08361">
        <ele>1229.18</ele>
        <time>2013-12-15T13:54:37Z</time>
      </trkpt>
      <trkpt lat="44.17391" lon="6.08351">
        <ele>1226.3</ele>
        <time>2013-12-15T13:54:48Z</time>
      </trkpt>
      <trkpt lat="44.17396" lon="6.08341">
        <ele>1222.93</ele>
        <time>2013-12-15T13:55:00Z</time>
      </trkpt>
      <trkpt lat="44.17401" lon="6.08339">
        <ele>1221.97</ele>
        <time>2013-12-15T13:55:16Z</time>
      </trkpt>
      <trkpt lat="44.17404" lon="6.08336">
        <ele>1221.97</ele>
        <time>2013-12-15T13:55:40Z</time>
      </trkpt>
      <trkpt lat="44.17403" lon="6.08334">
        <ele>1221.01</ele>
        <time>2013-12-15T13:55:56Z</time>
      </trkpt>
      <trkpt lat="44.17403" lon="6.08324">
        <ele>1217.65</ele>
        <time>2013-12-15T13:56:07Z</time>
      </trkpt>
      <trkpt lat="44.17403" lon="6.08324">
        <ele>1217.65</ele>
        <time>2013-12-15T13:56:08Z</time>
      </trkpt>
      <trkpt lat="44.17405" lon="6.08321">
        <ele>1217.17</ele>
        <time>2013-12-15T13:56:12Z</time>
      </trkpt>
      <trkpt lat="44.17407" lon="6.08315">
        <ele>1214.76</ele>
        <time>2013-12-15T13:56:19Z</time>
      </trkpt>
      <trkpt lat="44.17404" lon="6.08306">
        <ele>1211.4</ele>
        <time>2013-12-15T13:56:29Z</time>
      </trkpt>
      <trkpt lat="44.17405" lon="6.08295">
        <ele>1208.03</ele>
        <time>2013-12-15T13:56:39Z</time>
      </trkpt>
      <trkpt lat="44.17403" lon="6.08286">
        <ele>1206.59</ele>
        <time>2013-12-15T13:56:48Z</time>
      </trkpt>
      <trkpt lat="44.17406" lon="6.08276">
        <ele>1204.19</ele>
        <time>2013-12-15T13:56:58Z</time>
      </trkpt>
      <trkpt lat="44.17407" lon="6.08275">
        <ele>1203.23</ele>
        <time>2013-12-15T13:57:00Z</time>
      </trkpt>
      <trkpt lat="44.17404" lon="6.08267">
        <ele>1200.82</ele>
        <time>2013-12-15T13:57:11Z</time>
      </trkpt>
      <trkpt lat="44.17413" lon="6.08264">
        <ele>1198.42</ele>
        <time>2013-12-15T13:57:20Z</time>
      </trkpt>
      <trkpt lat="44.17419" lon="6.08265">
        <ele>1197.46</ele>
        <time>2013-12-15T13:57:34Z</time>
      </trkpt>
      <trkpt lat="44.17422" lon="6.08264">
        <ele>1196.02</ele>
        <time>2013-12-15T13:57:51Z</time>
      </trkpt>
      <trkpt lat="44.17422" lon="6.08263">
        <ele>1195.54</ele>
        <time>2013-12-15T13:58:13Z</time>
      </trkpt>
      <trkpt lat="44.1742" lon="6.0826">
        <ele>1194.58</ele>
        <time>2013-12-15T13:58:17Z</time>
      </trkpt>
      <trkpt lat="44.17413" lon="6.08251">
        <ele>1191.21</ele>
        <time>2013-12-15T13:58:31Z</time>
      </trkpt>
      <trkpt lat="44.17416" lon="6.08244">
        <ele>1190.73</ele>
        <time>2013-12-15T13:58:37Z</time>
      </trkpt>
      <trkpt lat="44.17422" lon="6.08239">
        <ele>1186.88</ele>
        <time>2013-12-15T13:58:49Z</time>
      </trkpt>
      <trkpt lat="44.17422" lon="6.08234">
        <ele>1185.92</ele>
        <time>2013-12-15T13:58:54Z</time>
      </trkpt>
      <trkpt lat="44.17426" lon="6.0823">
        <ele>1184.48</ele>
        <time>2013-12-15T13:59:00Z</time>
      </trkpt>
      <trkpt lat="44.1743" lon="6.08229">
        <ele>1182.08</ele>
        <time>2013-12-15T13:59:09Z</time>
      </trkpt>
      <trkpt lat="44.17424" lon="6.08222">
        <ele>1180.16</ele>
        <time>2013-12-15T13:59:23Z</time>
      </trkpt>
      <trkpt lat="44.17433" lon="6.08214">
        <ele>1177.75</ele>
        <time>2013-12-15T13:59:35Z</time>
      </trkpt>
      <trkpt lat="44.17439" lon="6.0821">
        <ele>1174.87</ele>
        <time>2013-12-15T13:59:44Z</time>
      </trkpt>
      <trkpt lat="44.17448" lon="6.08204">
        <ele>1171.98</ele>
        <time>2013-12-15T14:00:00Z</time>
      </trkpt>
      <trkpt lat="44.17448" lon="6.08212">
        <ele>1171.98</ele>
        <time>2013-12-15T14:00:28Z</time>
      </trkpt>
      <trkpt lat="44.17444" lon="6.08206">
        <ele>1170.54</ele>
        <time>2013-12-15T14:00:51Z</time>
      </trkpt>
      <trkpt lat="44.17445" lon="6.08204">
        <ele>1170.54</ele>
        <time>2013-12-15T14:00:52Z</time>
      </trkpt>
      <trkpt lat="44.17447" lon="6.08192">
        <ele>1167.18</ele>
        <time>2013-12-15T14:01:03Z</time>
      </trkpt>
      <trkpt lat="44.17448" lon="6.08191">
        <ele>1167.18</ele>
        <time>2013-12-15T14:01:04Z</time>
      </trkpt>
      <trkpt lat="44.17455" lon="6.08182">
        <ele>1163.33</ele>
        <time>2013-12-15T14:01:13Z</time>
      </trkpt>
      <trkpt lat="44.1746" lon="6.08178">
        <ele>1162.85</ele>
        <time>2013-12-15T14:01:20Z</time>
      </trkpt>
      <trkpt lat="44.1746" lon="6.08171">
        <ele>1159.49</ele>
        <time>2013-12-15T14:01:28Z</time>
      </trkpt>
      <trkpt lat="44.17463" lon="6.08166">
        <ele>1158.53</ele>
        <time>2013-12-15T14:01:32Z</time>
      </trkpt>
      <trkpt lat="44.17468" lon="6.08156">
        <ele>1155.64</ele>
        <time>2013-12-15T14:01:43Z</time>
      </trkpt>
      <trkpt lat="44.17476" lon="6.08149">
        <ele>1152.28</ele>
        <time>2013-12-15T14:01:54Z</time>
      </trkpt>
      <trkpt lat="44.17482" lon="6.08142">
        <ele>1148.43</ele>
        <time>2013-12-15T14:02:03Z</time>
      </trkpt>
      <trkpt lat="44.17486" lon="6.0813">
        <ele>1145.55</ele>
        <time>2013-12-15T14:02:15Z</time>
      </trkpt>
      <trkpt lat="44.17486" lon="6.08121">
        <ele>1142.18</ele>
        <time>2013-12-15T14:02:23Z</time>
      </trkpt>
      <trkpt lat="44.17489" lon="6.08112">
        <ele>1139.78</ele>
        <time>2013-12-15T14:02:32Z</time>
      </trkpt>
      <trkpt lat="44.17496" lon="6.08103">
        <ele>1136.42</ele>
        <time>2013-12-15T14:02:43Z</time>
      </trkpt>
      <trkpt lat="44.17499" lon="6.08098">
        <ele>1135.94</ele>
        <time>2013-12-15T14:02:54Z</time>
      </trkpt>
      <trkpt lat="44.17497" lon="6.08092">
        <ele>1133.53</ele>
        <time>2013-12-15T14:03:12Z</time>
      </trkpt>
      <trkpt lat="44.17501" lon="6.08086">
        <ele>1132.57</ele>
        <time>2013-12-15T14:03:19Z</time>
      </trkpt>
      <trkpt lat="44.17504" lon="6.08078">
        <ele>1129.21</ele>
        <time>2013-12-15T14:03:29Z</time>
      </trkpt>
      <trkpt lat="44.17508" lon="6.0807">
        <ele>1126.32</ele>
        <time>2013-12-15T14:03:41Z</time>
      </trkpt>
      <trkpt lat="44.17505" lon="6.08062">
        <ele>1122.96</ele>
        <time>2013-12-15T14:03:52Z</time>
      </trkpt>
      <trkpt lat="44.17506" lon="6.08052">
        <ele>1120.07</ele>
        <time>2013-12-15T14:04:04Z</time>
      </trkpt>
      <trkpt lat="44.17507" lon="6.08051">
        <ele>1119.59</ele>
        <time>2013-12-15T14:04:05Z</time>
      </trkpt>
      <trkpt lat="44.17517" lon="6.08047">
        <ele>1117.67</ele>
        <time>2013-12-15T14:04:17Z</time>
      </trkpt>
      <trkpt lat="44.17519" lon="6.08046">
        <ele>1115.75</ele>
        <time>2013-12-15T14:04:23Z</time>
      </trkpt>
      <trkpt lat="44.17515" lon="6.08038">
        <ele>1112.86</ele>
        <time>2013-12-15T14:04:36Z</time>
      </trkpt>
      <trkpt lat="44.17518" lon="6.08031">
        <ele>1110.46</ele>
        <time>2013-12-15T14:04:46Z</time>
      </trkpt>
      <trkpt lat="44.17521" lon="6.0803">
        <ele>1109.5</ele>
        <time>2013-12-15T14:04:49Z</time>
      </trkpt>
      <trkpt lat="44.17524" lon="6.08029">
        <ele>1108.06</ele>
        <time>2013-12-15T14:04:54Z</time>
      </trkpt>
      <trkpt lat="44.17521" lon="6.08024">
        <ele>1106.13</ele>
        <time>2013-12-15T14:05:03Z</time>
      </trkpt>
      <trkpt lat="44.17517" lon="6.0802">
        <ele>1105.65</ele>
        <time>2013-12-15T14:05:11Z</time>
      </trkpt>
      <trkpt lat="44.1752" lon="6.08016">
        <ele>1103.73</ele>
        <time>2013-12-15T14:05:14Z</time>
      </trkpt>
      <trkpt lat="44.1753" lon="6.08012">
        <ele>1100.85</ele>
        <time>2013-12-15T14:05:25Z</time>
      </trkpt>
      <trkpt lat="44.17521" lon="6.08001">
        <ele>1097.48</ele>
        <time>2013-12-15T14:05:37Z</time>
      </trkpt>
      <trkpt lat="44.1752" lon="6.08">
        <ele>1096.52</ele>
        <time>2013-12-15T14:05:38Z</time>
      </trkpt>
      <trkpt lat="44.1752" lon="6.07994">
        <ele>1096.04</ele>
        <time>2013-12-15T14:05:42Z</time>
      </trkpt>
      <trkpt lat="44.17529" lon="6.0799">
        <ele>1093.64</ele>
        <time>2013-12-15T14:05:49Z</time>
      </trkpt>
      <trkpt lat="44.1754" lon="6.07992">
        <ele>1091.71</ele>
        <time>2013-12-15T14:06:00Z</time>
      </trkpt>
      <trkpt lat="44.17553" lon="6.08001">
        <ele>1089.79</ele>
        <time>2013-12-15T14:06:14Z</time>
      </trkpt>
      <trkpt lat="44.17552" lon="6.08004">
        <ele>1087.87</ele>
        <time>2013-12-15T14:06:28Z</time>
      </trkpt>
      <trkpt lat="44.17553" lon="6.07999">
        <ele>1086.43</ele>
        <time>2013-12-15T14:06:43Z</time>
      </trkpt>
      <trkpt lat="44.17551" lon="6.07986">
        <ele>1084.5</ele>
        <time>2013-12-15T14:06:57Z</time>
      </trkpt>
      <trkpt lat="44.17547" lon="6.07985">
        <ele>1083.06</ele>
        <time>2013-12-15T14:07:12Z</time>
      </trkpt>
      <trkpt lat="44.17542" lon="6.07976">
        <ele>1082.58</ele>
        <time>2013-12-15T14:07:29Z</time>
      </trkpt>
      <trkpt lat="44.17541" lon="6.07975">
        <ele>1081.62</ele>
        <time>2013-12-15T14:07:30Z</time>
      </trkpt>
      <trkpt lat="44.17538" lon="6.0796">
        <ele>1078.74</ele>
        <time>2013-12-15T14:07:44Z</time>
      </trkpt>
      <trkpt lat="44.17547" lon="6.07955">
        <ele>1075.37</ele>
        <time>2013-12-15T14:07:56Z</time>
      </trkpt>
      <trkpt lat="44.17553" lon="6.07956">
        <ele>1072.49</ele>
        <time>2013-12-15T14:08:07Z</time>
      </trkpt>
      <trkpt lat="44.17548" lon="6.07947">
        <ele>1069.12</ele>
        <time>2013-12-15T14:08:18Z</time>
      </trkpt>
      <trkpt lat="44.17553" lon="6.07938">
        <ele>1065.76</ele>
        <time>2013-12-15T14:08:30Z</time>
      </trkpt>
      <trkpt lat="44.17558" lon="6.07939">
        <ele>1063.84</ele>
        <time>2013-12-15T14:08:35Z</time>
      </trkpt>
      <trkpt lat="44.17564" lon="6.07934">
        <ele>1061.43</ele>
        <time>2013-12-15T14:08:46Z</time>
      </trkpt>
      <trkpt lat="44.17563" lon="6.07933">
        <ele>1061.43</ele>
        <time>2013-12-15T14:08:47Z</time>
      </trkpt>
      <trkpt lat="44.17556" lon="6.07918">
        <ele>1057.59</ele>
        <time>2013-12-15T14:09:00Z</time>
      </trkpt>
      <trkpt lat="44.17556" lon="6.07917">
        <ele>1057.59</ele>
        <time>2013-12-15T14:09:01Z</time>
      </trkpt>
      <trkpt lat="44.17559" lon="6.07913">
        <ele>1057.11</ele>
        <time>2013-12-15T14:09:13Z</time>
      </trkpt>
      <trkpt lat="44.17563" lon="6.07916">
        <ele>1056.63</ele>
        <time>2013-12-15T14:09:36Z</time>
      </trkpt>
      <trkpt lat="44.17568" lon="6.07915">
        <ele>1052.78</ele>
        <time>2013-12-15T14:09:44Z</time>
      </trkpt>
      <trkpt lat="44.17564" lon="6.07904">
        <ele>1050.86</ele>
        <time>2013-12-15T14:09:57Z</time>
      </trkpt>
      <trkpt lat="44.17563" lon="6.07897">
        <ele>1048.94</ele>
        <time>2013-12-15T14:10:10Z</time>
      </trkpt>
      <trkpt lat="44.17566" lon="6.07895">
        <ele>1047.97</ele>
        <time>2013-12-15T14:10:16Z</time>
      </trkpt>
      <trkpt lat="44.17568" lon="6.07896">
        <ele>1047.49</ele>
        <time>2013-12-15T14:10:18Z</time>
      </trkpt>
      <trkpt lat="44.17573" lon="6.07899">
        <ele>1047.01</ele>
        <time>2013-12-15T14:10:22Z</time>
      </trkpt>
      <trkpt lat="44.17573" lon="6.07894">
        <ele>1044.61</ele>
        <time>2013-12-15T14:10:31Z</time>
      </trkpt>
      <trkpt lat="44.17569" lon="6.07892">
        <ele>1043.17</ele>
        <time>2013-12-15T14:10:44Z</time>
      </trkpt>
      <trkpt lat="44.17567" lon="6.07884">
        <ele>1042.21</ele>
        <time>2013-12-15T14:10:50Z</time>
      </trkpt>
      <trkpt lat="44.17569" lon="6.07875">
        <ele>1039.32</ele>
        <time>2013-12-15T14:10:59Z</time>
      </trkpt>
      <trkpt lat="44.17582" lon="6.07881">
        <ele>1036.92</ele>
        <time>2013-12-15T14:11:09Z</time>
      </trkpt>
      <trkpt lat="44.17584" lon="6.07879">
        <ele>1035.48</ele>
        <time>2013-12-15T14:11:12Z</time>
      </trkpt>
      <trkpt lat="44.17584" lon="6.07878">
        <ele>1036.44</ele>
        <time>2013-12-15T14:11:13Z</time>
      </trkpt>
      <trkpt lat="44.17582" lon="6.07873">
        <ele>1034.52</ele>
        <time>2013-12-15T14:11:16Z</time>
      </trkpt>
      <trkpt lat="44.17576" lon="6.07863">
        <ele>1032.11</ele>
        <time>2013-12-15T14:11:30Z</time>
      </trkpt>
      <trkpt lat="44.17577" lon="6.07863">
        <ele>1032.11</ele>
        <time>2013-12-15T14:11:53Z</time>
      </trkpt>
      <trkpt lat="44.17578" lon="6.0786">
        <ele>1032.59</ele>
        <time>2013-12-15T14:12:19Z</time>
      </trkpt>
      <trkpt lat="44.17582" lon="6.07866">
        <ele>1032.11</ele>
        <time>2013-12-15T14:12:43Z</time>
      </trkpt>
      <trkpt lat="44.17575" lon="6.07859">
        <ele>1032.11</ele>
        <time>2013-12-15T14:13:06Z</time>
      </trkpt>
      <trkpt lat="44.17577" lon="6.07862">
        <ele>1032.59</ele>
        <time>2013-12-15T14:13:18Z</time>
      </trkpt>
      <trkpt lat="44.17576" lon="6.07864">
        <ele>1032.11</ele>
        <time>2013-12-15T14:13:29Z</time>
      </trkpt>
      <trkpt lat="44.17581" lon="6.07864">
        <ele>1032.11</ele>
        <time>2013-12-15T14:13:58Z</time>
      </trkpt>
      <trkpt lat="44.1758" lon="6.07861">
        <ele>1032.11</ele>
        <time>2013-12-15T14:14:27Z</time>
      </trkpt>
      <trkpt lat="44.17582" lon="6.0786">
        <ele>1032.11</ele>
        <time>2013-12-15T14:14:53Z</time>
      </trkpt>
      <trkpt lat="44.17578" lon="6.07857">
        <ele>1028.75</ele>
        <time>2013-12-15T14:15:02Z</time>
      </trkpt>
      <trkpt lat="44.17577" lon="6.07856">
        <ele>1032.11</ele>
        <time>2013-12-15T14:15:03Z</time>
      </trkpt>
      <trkpt lat="44.17577" lon="6.07852">
        <ele>1028.27</ele>
        <time>2013-12-15T14:15:16Z</time>
      </trkpt>
      <trkpt lat="44.17587" lon="6.0786">
        <ele>1026.83</ele>
        <time>2013-12-15T14:15:31Z</time>
      </trkpt>
      <trkpt lat="44.17593" lon="6.07862">
        <ele>1023.94</ele>
        <time>2013-12-15T14:15:43Z</time>
      </trkpt>
      <trkpt lat="44.17589" lon="6.0785">
        <ele>1022.02</ele>
        <time>2013-12-15T14:15:53Z</time>
      </trkpt>
      <trkpt lat="44.17587" lon="6.07835">
        <ele>1018.65</ele>
        <time>2013-12-15T14:16:04Z</time>
      </trkpt>
      <trkpt lat="44.17595" lon="6.07839">
        <ele>1015.77</ele>
        <time>2013-12-15T14:16:16Z</time>
      </trkpt>
      <trkpt lat="44.17596" lon="6.07838">
        <ele>1014.81</ele>
        <time>2013-12-15T14:16:31Z</time>
      </trkpt>
      <trkpt lat="44.17593" lon="6.07826">
        <ele>1011.44</ele>
        <time>2013-12-15T14:16:42Z</time>
      </trkpt>
      <trkpt lat="44.17599" lon="6.07824">
        <ele>1009.04</ele>
        <time>2013-12-15T14:16:53Z</time>
      </trkpt>
      <trkpt lat="44.17599" lon="6.07817">
        <ele>1007.12</ele>
        <time>2013-12-15T14:17:11Z</time>
      </trkpt>
      <trkpt lat="44.17601" lon="6.07817">
        <ele>1005.68</ele>
        <time>2013-12-15T14:17:22Z</time>
      </trkpt>
      <trkpt lat="44.17606" lon="6.07818">
        <ele>1004.72</ele>
        <time>2013-12-15T14:17:34Z</time>
      </trkpt>
      <trkpt lat="44.17613" lon="6.07813">
        <ele>1001.83</ele>
        <time>2013-12-15T14:17:47Z</time>
      </trkpt>
      <trkpt lat="44.17606" lon="6.07799">
        <ele>998.47</ele>
        <time>2013-12-15T14:17:59Z</time>
      </trkpt>
      <trkpt lat="44.17602" lon="6.07787">
        <ele>995.58</ele>
        <time>2013-12-15T14:18:10Z</time>
      </trkpt>
      <trkpt lat="44.17613" lon="6.07791">
        <ele>994.14</ele>
        <time>2013-12-15T14:18:23Z</time>
      </trkpt>
      <trkpt lat="44.1762" lon="6.07793">
        <ele>991.26</ele>
        <time>2013-12-15T14:18:31Z</time>
      </trkpt>
      <trkpt lat="44.1763" lon="6.07792">
        <ele>987.89</ele>
        <time>2013-12-15T14:18:45Z</time>
      </trkpt>
      <trkpt lat="44.17629" lon="6.07784">
        <ele>984.53</ele>
        <time>2013-12-15T14:18:54Z</time>
      </trkpt>
      <trkpt lat="44.17638" lon="6.0779">
        <ele>982.6</ele>
        <time>2013-12-15T14:19:06Z</time>
      </trkpt>
      <trkpt lat="44.17645" lon="6.07783">
        <ele>979.24</ele>
        <time>2013-12-15T14:19:19Z</time>
      </trkpt>
      <trkpt lat="44.17643" lon="6.07773">
        <ele>976.84</ele>
        <time>2013-12-15T14:19:34Z</time>
      </trkpt>
      <trkpt lat="44.17649" lon="6.0777">
        <ele>973.47</ele>
        <time>2013-12-15T14:19:42Z</time>
      </trkpt>
      <trkpt lat="44.1765" lon="6.07769">
        <ele>973.47</ele>
        <time>2013-12-15T14:19:43Z</time>
      </trkpt>
      <trkpt lat="44.17653" lon="6.07762">
        <ele>971.07</ele>
        <time>2013-12-15T14:19:53Z</time>
      </trkpt>
      <trkpt lat="44.17653" lon="6.07757">
        <ele>971.07</ele>
        <time>2013-12-15T14:20:09Z</time>
      </trkpt>
      <trkpt lat="44.17656" lon="6.0775">
        <ele>968.67</ele>
        <time>2013-12-15T14:20:31Z</time>
      </trkpt>
      <trkpt lat="44.1766" lon="6.07738">
        <ele>964.82</ele>
        <time>2013-12-15T14:20:41Z</time>
      </trkpt>
      <trkpt lat="44.17661" lon="6.07737">
        <ele>965.3</ele>
        <time>2013-12-15T14:20:42Z</time>
      </trkpt>
      <trkpt lat="44.17663" lon="6.07734">
        <ele>963.86</ele>
        <time>2013-12-15T14:20:55Z</time>
      </trkpt>
      <trkpt lat="44.17668" lon="6.07727">
        <ele>960.49</ele>
        <time>2013-12-15T14:21:05Z</time>
      </trkpt>
      <trkpt lat="44.17674" lon="6.07726">
        <ele>957.61</ele>
        <time>2013-12-15T14:21:13Z</time>
      </trkpt>
      <trkpt lat="44.17678" lon="6.07719">
        <ele>956.17</ele>
        <time>2013-12-15T14:21:24Z</time>
      </trkpt>
      <trkpt lat="44.17683" lon="6.07711">
        <ele>952.32</ele>
        <time>2013-12-15T14:21:35Z</time>
      </trkpt>
      <trkpt lat="44.17684" lon="6.07711">
        <ele>952.32</ele>
        <time>2013-12-15T14:21:36Z</time>
      </trkpt>
      <trkpt lat="44.17687" lon="6.07703">
        <ele>948.96</ele>
        <time>2013-12-15T14:21:45Z</time>
      </trkpt>
      <trkpt lat="44.17692" lon="6.07685">
        <ele>945.11</ele>
        <time>2013-12-15T14:21:59Z</time>
      </trkpt>
      <trkpt lat="44.17692" lon="6.07676">
        <ele>941.75</ele>
        <time>2013-12-15T14:22:08Z</time>
      </trkpt>
      <trkpt lat="44.17695" lon="6.0767">
        <ele>938.86</ele>
        <time>2013-12-15T14:22:17Z</time>
      </trkpt>
      <trkpt lat="44.17696" lon="6.07652">
        <ele>935.98</ele>
        <time>2013-12-15T14:22:32Z</time>
      </trkpt>
      <trkpt lat="44.17696" lon="6.07636">
        <ele>932.62</ele>
        <time>2013-12-15T14:22:45Z</time>
      </trkpt>
      <trkpt lat="44.17696" lon="6.0762">
        <ele>929.73</ele>
        <time>2013-12-15T14:22:58Z</time>
      </trkpt>
      <trkpt lat="44.17696" lon="6.07606">
        <ele>926.85</ele>
        <time>2013-12-15T14:23:10Z</time>
      </trkpt>
      <trkpt lat="44.17699" lon="6.07594">
        <ele>923.96</ele>
        <time>2013-12-15T14:23:22Z</time>
      </trkpt>
      <trkpt lat="44.17697" lon="6.07579">
        <ele>921.56</ele>
        <time>2013-12-15T14:23:36Z</time>
      </trkpt>
      <trkpt lat="44.17698" lon="6.07569">
        <ele>918.68</ele>
        <time>2013-12-15T14:23:45Z</time>
      </trkpt>
      <trkpt lat="44.177" lon="6.07553">
        <ele>916.75</ele>
        <time>2013-12-15T14:23:57Z</time>
      </trkpt>
      <trkpt lat="44.17705" lon="6.07536">
        <ele>913.39</ele>
        <time>2013-12-15T14:24:10Z</time>
      </trkpt>
      <trkpt lat="44.17705" lon="6.07531">
        <ele>913.39</ele>
        <time>2013-12-15T14:24:13Z</time>
      </trkpt>
      <trkpt lat="44.17705" lon="6.07507">
        <ele>910.03</ele>
        <time>2013-12-15T14:24:27Z</time>
      </trkpt>
      <trkpt lat="44.17704" lon="6.07495">
        <ele>908.1</ele>
        <time>2013-12-15T14:24:39Z</time>
      </trkpt>
      <trkpt lat="44.17702" lon="6.07485">
        <ele>907.14</ele>
        <time>2013-12-15T14:24:49Z</time>
      </trkpt>
      <trkpt lat="44.17702" lon="6.07463">
        <ele>904.74</ele>
        <time>2013-12-15T14:25:03Z</time>
      </trkpt>
      <trkpt lat="44.17706" lon="6.07451">
        <ele>903.3</ele>
        <time>2013-12-15T14:25:17Z</time>
      </trkpt>
      <trkpt lat="44.17709" lon="6.07446">
        <ele>901.85</ele>
        <time>2013-12-15T14:25:23Z</time>
      </trkpt>
      <trkpt lat="44.17717" lon="6.07431">
        <ele>899.45</ele>
        <time>2013-12-15T14:25:37Z</time>
      </trkpt>
      <trkpt lat="44.17719" lon="6.07422">
        <ele>898.97</ele>
        <time>2013-12-15T14:25:49Z</time>
      </trkpt>
      <trkpt lat="44.17721" lon="6.07401">
        <ele>896.57</ele>
        <time>2013-12-15T14:26:03Z</time>
      </trkpt>
      <trkpt lat="44.17724" lon="6.07382">
        <ele>894.64</ele>
        <time>2013-12-15T14:26:17Z</time>
      </trkpt>
      <trkpt lat="44.17723" lon="6.07374">
        <ele>892.72</ele>
        <time>2013-12-15T14:26:22Z</time>
      </trkpt>
      <trkpt lat="44.17727" lon="6.07354">
        <ele>890.8</ele>
        <time>2013-12-15T14:26:37Z</time>
      </trkpt>
      <trkpt lat="44.17729" lon="6.07333">
        <ele>887.43</ele>
        <time>2013-12-15T14:26:52Z</time>
      </trkpt>
      <trkpt lat="44.17734" lon="6.07313">
        <ele>884.07</ele>
        <time>2013-12-15T14:27:05Z</time>
      </trkpt>
      <trkpt lat="44.1774" lon="6.073">
        <ele>881.67</ele>
        <time>2013-12-15T14:27:19Z</time>
      </trkpt>
      <trkpt lat="44.17742" lon="6.07296">
        <ele>880.71</ele>
        <time>2013-12-15T14:27:40Z</time>
      </trkpt>
      <trkpt lat="44.17753" lon="6.07282">
        <ele>877.34</ele>
        <time>2013-12-15T14:27:51Z</time>
      </trkpt>
      <trkpt lat="44.17754" lon="6.07265">
        <ele>874.46</ele>
        <time>2013-12-15T14:28:04Z</time>
      </trkpt>
      <trkpt lat="44.17749" lon="6.07251">
        <ele>872.53</ele>
        <time>2013-12-15T14:28:16Z</time>
      </trkpt>
      <trkpt lat="44.17753" lon="6.07253">
        <ele>872.53</ele>
        <time>2013-12-15T14:28:30Z</time>
      </trkpt>
      <trkpt lat="44.17753" lon="6.07254">
        <ele>872.53</ele>
        <time>2013-12-15T14:28:50Z</time>
      </trkpt>
      <trkpt lat="44.17751" lon="6.07251">
        <ele>872.53</ele>
        <time>2013-12-15T14:29:17Z</time>
      </trkpt>
      <trkpt lat="44.17756" lon="6.07243">
        <ele>873.01</ele>
        <time>2013-12-15T14:29:30Z</time>
      </trkpt>
      <trkpt lat="44.17757" lon="6.07247">
        <ele>873.5</ele>
        <time>2013-12-15T14:29:54Z</time>
      </trkpt>
      <trkpt lat="44.17756" lon="6.07244">
        <ele>873.01</ele>
        <time>2013-12-15T14:30:16Z</time>
      </trkpt>
      <trkpt lat="44.17754" lon="6.07244">
        <ele>873.5</ele>
        <time>2013-12-15T14:30:36Z</time>
      </trkpt>
      <trkpt lat="44.17756" lon="6.07242">
        <ele>873.5</ele>
        <time>2013-12-15T14:31:00Z</time>
      </trkpt>
      <trkpt lat="44.17758" lon="6.07243">
        <ele>873.5</ele>
        <time>2013-12-15T14:31:20Z</time>
      </trkpt>
      <trkpt lat="44.17756" lon="6.07244">
        <ele>873.5</ele>
        <time>2013-12-15T14:31:46Z</time>
      </trkpt>
      <trkpt lat="44.17759" lon="6.07244">
        <ele>873.5</ele>
        <time>2013-12-15T14:32:05Z</time>
      </trkpt>
      <trkpt lat="44.17762" lon="6.0724">
        <ele>873.5</ele>
        <time>2013-12-15T14:32:32Z</time>
      </trkpt>
      <trkpt lat="44.17762" lon="6.0724">
        <ele>873.5</ele>
        <time>2013-12-15T14:32:57Z</time>
      </trkpt>
      <trkpt lat="44.17758" lon="6.07238">
        <ele>873.5</ele>
        <time>2013-12-15T14:33:12Z</time>
      </trkpt>
      <trkpt lat="44.17756" lon="6.07241">
        <ele>873.5</ele>
        <time>2013-12-15T14:33:31Z</time>
      </trkpt>
      <trkpt lat="44.17753" lon="6.07253">
        <ele>873.98</ele>
        <time>2013-12-15T14:33:42Z</time>
      </trkpt>
      <trkpt lat="44.17756" lon="6.07251">
        <ele>873.01</ele>
        <time>2013-12-15T14:33:58Z</time>
      </trkpt>
      <trkpt lat="44.17745" lon="6.07263">
        <ele>872.53</ele>
        <time>2013-12-15T14:34:13Z</time>
      </trkpt>
      <trkpt lat="44.17742" lon="6.07265">
        <ele>872.53</ele>
        <time>2013-12-15T14:34:16Z</time>
      </trkpt>
      <trkpt lat="44.17728" lon="6.07277">
        <ele>870.61</ele>
        <time>2013-12-15T14:34:31Z</time>
      </trkpt>
      <trkpt lat="44.17714" lon="6.07291">
        <ele>870.61</ele>
        <time>2013-12-15T14:34:47Z</time>
      </trkpt>
      <trkpt lat="44.17701" lon="6.07299">
        <ele>869.65</ele>
        <time>2013-12-15T14:35:01Z</time>
      </trkpt>
      <trkpt lat="44.1769" lon="6.073">
        <ele>868.21</ele>
        <time>2013-12-15T14:35:15Z</time>
      </trkpt>
      <trkpt lat="44.17683" lon="6.07309">
        <ele>867.73</ele>
        <time>2013-12-15T14:35:31Z</time>
      </trkpt>
      <trkpt lat="44.17675" lon="6.07322">
        <ele>866.29</ele>
        <time>2013-12-15T14:35:44Z</time>
      </trkpt>
      <trkpt lat="44.17675" lon="6.0733">
        <ele>864.36</ele>
        <time>2013-12-15T14:35:49Z</time>
      </trkpt>
      <trkpt lat="44.17675" lon="6.07336">
        <ele>864.84</ele>
        <time>2013-12-15T14:35:53Z</time>
      </trkpt>
      <trkpt lat="44.17674" lon="6.07357">
        <ele>861.96</ele>
        <time>2013-12-15T14:36:04Z</time>
      </trkpt>
      <trkpt lat="44.17672" lon="6.07361">
        <ele>863.88</ele>
        <time>2013-12-15T14:36:07Z</time>
      </trkpt>
      <trkpt lat="44.17671" lon="6.07371">
        <ele>861.96</ele>
        <time>2013-12-15T14:36:12Z</time>
      </trkpt>
      <trkpt lat="44.17668" lon="6.07383">
        <ele>861.96</ele>
        <time>2013-12-15T14:36:19Z</time>
      </trkpt>
      <trkpt lat="44.17666" lon="6.07387">
        <ele>861</ele>
        <time>2013-12-15T14:36:21Z</time>
      </trkpt>
      <trkpt lat="44.17664" lon="6.0739">
        <ele>861.96</ele>
        <time>2013-12-15T14:36:23Z</time>
      </trkpt>
      <trkpt lat="44.17647" lon="6.07409">
        <ele>859.56</ele>
        <time>2013-12-15T14:36:39Z</time>
      </trkpt>
      <trkpt lat="44.17642" lon="6.07416">
        <ele>859.08</ele>
        <time>2013-12-15T14:36:44Z</time>
      </trkpt>
      <trkpt lat="44.17627" lon="6.07436">
        <ele>856.19</ele>
        <time>2013-12-15T14:37:00Z</time>
      </trkpt>
      <trkpt lat="44.17625" lon="6.07437">
        <ele>856.67</ele>
        <time>2013-12-15T14:37:01Z</time>
      </trkpt>
      <trkpt lat="44.1762" lon="6.07441">
        <ele>856.19</ele>
        <time>2013-12-15T14:37:06Z</time>
      </trkpt>
      <trkpt lat="44.17604" lon="6.07456">
        <ele>854.75</ele>
        <time>2013-12-15T14:37:21Z</time>
      </trkpt>
      <trkpt lat="44.17595" lon="6.07469">
        <ele>853.31</ele>
        <time>2013-12-15T14:37:32Z</time>
      </trkpt>
      <trkpt lat="44.17586" lon="6.07491">
        <ele>851.38</ele>
        <time>2013-12-15T14:37:46Z</time>
      </trkpt>
      <trkpt lat="44.1758" lon="6.07487">
        <ele>851.38</ele>
        <time>2013-12-15T14:37:49Z</time>
      </trkpt>
      <trkpt lat="44.1758" lon="6.07466">
        <ele>849.94</ele>
        <time>2013-12-15T14:38:02Z</time>
      </trkpt>
      <trkpt lat="44.17585" lon="6.07444">
        <ele>847.54</ele>
        <time>2013-12-15T14:38:15Z</time>
      </trkpt>
      <trkpt lat="44.17586" lon="6.07442">
        <ele>847.54</ele>
        <time>2013-12-15T14:38:16Z</time>
      </trkpt>
      <trkpt lat="44.17588" lon="6.07434">
        <ele>847.06</ele>
        <time>2013-12-15T14:38:21Z</time>
      </trkpt>
      <trkpt lat="44.17595" lon="6.07415">
        <ele>844.66</ele>
        <time>2013-12-15T14:38:33Z</time>
      </trkpt>
      <trkpt lat="44.17602" lon="6.07402">
        <ele>844.66</ele>
        <time>2013-12-15T14:38:41Z</time>
      </trkpt>
      <trkpt lat="44.17611" lon="6.07386">
        <ele>843.21</ele>
        <time>2013-12-15T14:38:51Z</time>
      </trkpt>
      <trkpt lat="44.17612" lon="6.07371">
        <ele>841.77</ele>
        <time>2013-12-15T14:38:59Z</time>
      </trkpt>
      <trkpt lat="44.17609" lon="6.07355">
        <ele>838.89</ele>
        <time>2013-12-15T14:39:08Z</time>
      </trkpt>
      <trkpt lat="44.17606" lon="6.07352">
        <ele>840.81</ele>
        <time>2013-12-15T14:39:11Z</time>
      </trkpt>
      <trkpt lat="44.17605" lon="6.07343">
        <ele>837.93</ele>
        <time>2013-12-15T14:39:18Z</time>
      </trkpt>
      <trkpt lat="44.17606" lon="6.07337">
        <ele>837.45</ele>
        <time>2013-12-15T14:39:22Z</time>
      </trkpt>
      <trkpt lat="44.17609" lon="6.07316">
        <ele>836</ele>
        <time>2013-12-15T14:39:33Z</time>
      </trkpt>
      <trkpt lat="44.17614" lon="6.073">
        <ele>836.48</ele>
        <time>2013-12-15T14:39:44Z</time>
      </trkpt>
      <trkpt lat="44.17623" lon="6.07284">
        <ele>834.56</ele>
        <time>2013-12-15T14:39:55Z</time>
      </trkpt>
      <trkpt lat="44.17637" lon="6.0726">
        <ele>833.12</ele>
        <time>2013-12-15T14:40:10Z</time>
      </trkpt>
      <trkpt lat="44.17644" lon="6.07241">
        <ele>830.72</ele>
        <time>2013-12-15T14:40:26Z</time>
      </trkpt>
      <trkpt lat="44.17635" lon="6.07247">
        <ele>828.79</ele>
        <time>2013-12-15T14:40:39Z</time>
      </trkpt>
      <trkpt lat="44.17619" lon="6.07269">
        <ele>826.87</ele>
        <time>2013-12-15T14:40:56Z</time>
      </trkpt>
      <trkpt lat="44.17617" lon="6.07271">
        <ele>826.39</ele>
        <time>2013-12-15T14:40:58Z</time>
      </trkpt>
      <trkpt lat="44.17603" lon="6.07284">
        <ele>824.47</ele>
        <time>2013-12-15T14:41:13Z</time>
      </trkpt>
      <trkpt lat="44.17588" lon="6.07302">
        <ele>822.55</ele>
        <time>2013-12-15T14:41:29Z</time>
      </trkpt>
      <trkpt lat="44.17582" lon="6.0731">
        <ele>820.62</ele>
        <time>2013-12-15T14:41:36Z</time>
      </trkpt>
      <trkpt lat="44.17569" lon="6.0731">
        <ele>820.62</ele>
        <time>2013-12-15T14:41:41Z</time>
      </trkpt>
      <trkpt lat="44.17567" lon="6.07301">
        <ele>820.62</ele>
        <time>2013-12-15T14:41:46Z</time>
      </trkpt>
      <trkpt lat="44.17581" lon="6.07277">
        <ele>819.18</ele>
        <time>2013-12-15T14:42:03Z</time>
      </trkpt>
      <trkpt lat="44.17591" lon="6.0726">
        <ele>818.22</ele>
        <time>2013-12-15T14:42:15Z</time>
      </trkpt>
      <trkpt lat="44.17595" lon="6.07253">
        <ele>816.78</ele>
        <time>2013-12-15T14:42:19Z</time>
      </trkpt>
      <trkpt lat="44.17598" lon="6.07245">
        <ele>817.26</ele>
        <time>2013-12-15T14:42:24Z</time>
      </trkpt>
      <trkpt lat="44.176" lon="6.07241">
        <ele>815.82</ele>
        <time>2013-12-15T14:42:27Z</time>
      </trkpt>
      <trkpt lat="44.17602" lon="6.07238">
        <ele>817.74</ele>
        <time>2013-12-15T14:42:29Z</time>
      </trkpt>
      <trkpt lat="44.17609" lon="6.07219">
        <ele>815.82</ele>
        <time>2013-12-15T14:42:42Z</time>
      </trkpt>
      <trkpt lat="44.17619" lon="6.07208">
        <ele>813.41</ele>
        <time>2013-12-15T14:42:52Z</time>
      </trkpt>
      <trkpt lat="44.17622" lon="6.07201">
        <ele>812.45</ele>
        <time>2013-12-15T14:42:57Z</time>
      </trkpt>
      <trkpt lat="44.17628" lon="6.07197">
        <ele>812.93</ele>
        <time>2013-12-15T14:43:03Z</time>
      </trkpt>
      <trkpt lat="44.17635" lon="6.0719">
        <ele>811.01</ele>
        <time>2013-12-15T14:43:09Z</time>
      </trkpt>
      <trkpt lat="44.17646" lon="6.07169">
        <ele>808.13</ele>
        <time>2013-12-15T14:43:25Z</time>
      </trkpt>
      <trkpt lat="44.17642" lon="6.07174">
        <ele>808.13</ele>
        <time>2013-12-15T14:43:32Z</time>
      </trkpt>
      <trkpt lat="44.17633" lon="6.07189">
        <ele>806.68</ele>
        <time>2013-12-15T14:43:45Z</time>
      </trkpt>
      <trkpt lat="44.17615" lon="6.07195">
        <ele>802.84</ele>
        <time>2013-12-15T14:43:58Z</time>
      </trkpt>
      <trkpt lat="44.17591" lon="6.07195">
        <ele>801.88</ele>
        <time>2013-12-15T14:44:13Z</time>
      </trkpt>
      <trkpt lat="44.17572" lon="6.07187">
        <ele>799.95</ele>
        <time>2013-12-15T14:44:26Z</time>
      </trkpt>
      <trkpt lat="44.17571" lon="6.07186">
        <ele>799.95</ele>
        <time>2013-12-15T14:44:27Z</time>
      </trkpt>
      <trkpt lat="44.17551" lon="6.0717">
        <ele>798.03</ele>
        <time>2013-12-15T14:44:42Z</time>
      </trkpt>
      <trkpt lat="44.1755" lon="6.07146">
        <ele>794.67</ele>
        <time>2013-12-15T14:44:53Z</time>
      </trkpt>
      <trkpt lat="44.17551" lon="6.07145">
        <ele>794.67</ele>
        <time>2013-12-15T14:44:54Z</time>
      </trkpt>
      <trkpt lat="44.17564" lon="6.07124">
        <ele>792.26</ele>
        <time>2013-12-15T14:45:08Z</time>
      </trkpt>
      <trkpt lat="44.17567" lon="6.0712">
        <ele>792.74</ele>
        <time>2013-12-15T14:45:11Z</time>
      </trkpt>
      <trkpt lat="44.17572" lon="6.07115">
        <ele>791.3</ele>
        <time>2013-12-15T14:45:16Z</time>
      </trkpt>
      <trkpt lat="44.17587" lon="6.07103">
        <ele>789.38</ele>
        <time>2013-12-15T14:45:25Z</time>
      </trkpt>
      <trkpt lat="44.176" lon="6.07085">
        <ele>787.46</ele>
        <time>2013-12-15T14:45:41Z</time>
      </trkpt>
      <trkpt lat="44.17617" lon="6.07066">
        <ele>786.5</ele>
        <time>2013-12-15T14:45:55Z</time>
      </trkpt>
      <trkpt lat="44.17629" lon="6.07048">
        <ele>784.09</ele>
        <time>2013-12-15T14:46:08Z</time>
      </trkpt>
      <trkpt lat="44.17632" lon="6.07046">
        <ele>783.61</ele>
        <time>2013-12-15T14:46:10Z</time>
      </trkpt>
      <trkpt lat="44.17634" lon="6.07044">
        <ele>785.05</ele>
        <time>2013-12-15T14:46:12Z</time>
      </trkpt>
      <trkpt lat="44.17646" lon="6.07019">
        <ele>783.13</ele>
        <time>2013-12-15T14:46:27Z</time>
      </trkpt>
      <trkpt lat="44.1766" lon="6.07">
        <ele>781.21</ele>
        <time>2013-12-15T14:46:42Z</time>
      </trkpt>
      <trkpt lat="44.1767" lon="6.0699">
        <ele>779.29</ele>
        <time>2013-12-15T14:46:51Z</time>
      </trkpt>
      <trkpt lat="44.1768" lon="6.06969">
        <ele>778.32</ele>
        <time>2013-12-15T14:47:05Z</time>
      </trkpt>
      <trkpt lat="44.17684" lon="6.06959">
        <ele>776.4</ele>
        <time>2013-12-15T14:47:11Z</time>
      </trkpt>
      <trkpt lat="44.17687" lon="6.06958">
        <ele>776.4</ele>
        <time>2013-12-15T14:47:15Z</time>
      </trkpt>
      <trkpt lat="44.17701" lon="6.06937">
        <ele>774</ele>
        <time>2013-12-15T14:47:29Z</time>
      </trkpt>
      <trkpt lat="44.177" lon="6.06929">
        <ele>773.52</ele>
        <time>2013-12-15T14:47:35Z</time>
      </trkpt>
      <trkpt lat="44.17696" lon="6.06921">
        <ele>773.52</ele>
        <time>2013-12-15T14:47:43Z</time>
      </trkpt>
      <trkpt lat="44.17694" lon="6.06919">
        <ele>772.56</ele>
        <time>2013-12-15T14:47:45Z</time>
      </trkpt>
      <trkpt lat="44.17674" lon="6.06907">
        <ele>770.15</ele>
        <time>2013-12-15T14:47:56Z</time>
      </trkpt>
      <trkpt lat="44.17665" lon="6.06898">
        <ele>769.19</ele>
        <time>2013-12-15T14:48:05Z</time>
      </trkpt>
      <trkpt lat="44.17662" lon="6.06896">
        <ele>768.23</ele>
        <time>2013-12-15T14:48:07Z</time>
      </trkpt>
      <trkpt lat="44.17655" lon="6.06875">
        <ele>766.31</ele>
        <time>2013-12-15T14:48:20Z</time>
      </trkpt>
      <trkpt lat="44.17657" lon="6.06864">
        <ele>765.83</ele>
        <time>2013-12-15T14:48:25Z</time>
      </trkpt>
      <trkpt lat="44.1767" lon="6.06836">
        <ele>763.9</ele>
        <time>2013-12-15T14:48:41Z</time>
      </trkpt>
      <trkpt lat="44.17674" lon="6.06819">
        <ele>761.5</ele>
        <time>2013-12-15T14:48:51Z</time>
      </trkpt>
      <trkpt lat="44.17673" lon="6.06811">
        <ele>761.5</ele>
        <time>2013-12-15T14:48:57Z</time>
      </trkpt>
      <trkpt lat="44.17669" lon="6.06803">
        <ele>760.54</ele>
        <time>2013-12-15T14:49:02Z</time>
      </trkpt>
      <trkpt lat="44.17659" lon="6.06772">
        <ele>759.1</ele>
        <time>2013-12-15T14:49:19Z</time>
      </trkpt>
      <trkpt lat="44.1766" lon="6.06765">
        <ele>757.18</ele>
        <time>2013-12-15T14:49:22Z</time>
      </trkpt>
      <trkpt lat="44.17651" lon="6.06742">
        <ele>756.69</ele>
        <time>2013-12-15T14:49:36Z</time>
      </trkpt>
      <trkpt lat="44.1764" lon="6.0672">
        <ele>755.25</ele>
        <time>2013-12-15T14:49:51Z</time>
      </trkpt>
      <trkpt lat="44.17641" lon="6.06706">
        <ele>753.81</ele>
        <time>2013-12-15T14:50:05Z</time>
      </trkpt>
      <trkpt lat="44.1764" lon="6.06703">
        <ele>754.29</ele>
        <time>2013-12-15T14:50:13Z</time>
      </trkpt>
      <trkpt lat="44.17639" lon="6.06698">
        <ele>752.85</ele>
        <time>2013-12-15T14:50:18Z</time>
      </trkpt>
      <trkpt lat="44.17639" lon="6.06677">
        <ele>751.41</ele>
        <time>2013-12-15T14:50:32Z</time>
      </trkpt>
      <trkpt lat="44.17641" lon="6.06668">
        <ele>752.37</ele>
        <time>2013-12-15T14:50:37Z</time>
      </trkpt>
      <trkpt lat="44.17649" lon="6.06654">
        <ele>750.93</ele>
        <time>2013-12-15T14:50:48Z</time>
      </trkpt>
      <trkpt lat="44.17666" lon="6.06639">
        <ele>750.45</ele>
        <time>2013-12-15T14:51:04Z</time>
      </trkpt>
      <trkpt lat="44.17679" lon="6.0662">
        <ele>749.97</ele>
        <time>2013-12-15T14:51:14Z</time>
      </trkpt>
      <trkpt lat="44.17676" lon="6.06597">
        <ele>748.52</ele>
        <time>2013-12-15T14:51:28Z</time>
      </trkpt>
      <trkpt lat="44.1767" lon="6.0659">
        <ele>747.08</ele>
        <time>2013-12-15T14:51:35Z</time>
      </trkpt>
      <trkpt lat="44.17658" lon="6.06571">
        <ele>746.12</ele>
        <time>2013-12-15T14:51:47Z</time>
      </trkpt>
      <trkpt lat="44.17649" lon="6.06559">
        <ele>745.16</ele>
        <time>2013-12-15T14:51:58Z</time>
      </trkpt>
      <trkpt lat="44.17644" lon="6.06544">
        <ele>743.72</ele>
        <time>2013-12-15T14:52:12Z</time>
      </trkpt>
      <trkpt lat="44.17647" lon="6.06544">
        <ele>743.72</ele>
        <time>2013-12-15T14:52:32Z</time>
      </trkpt>
      <trkpt lat="44.17646" lon="6.06545">
        <ele>743.72</ele>
        <time>2013-12-15T14:52:57Z</time>
      </trkpt>
      <trkpt lat="44.1765" lon="6.06543">
        <ele>744.2</ele>
        <time>2013-12-15T14:53:11Z</time>
      </trkpt>
      <trkpt lat="44.17657" lon="6.06539">
        <ele>745.16</ele>
        <time>2013-12-15T14:53:29Z</time>
      </trkpt>
      <trkpt lat="44.17665" lon="6.06538">
        <ele>746.6</ele>
        <time>2013-12-15T14:53:46Z</time>
      </trkpt>
      <trkpt lat="44.17666" lon="6.06534">
        <ele>748.04</ele>
        <time>2013-12-15T14:54:02Z</time>
      </trkpt>
      <trkpt lat="44.17676" lon="6.06525">
        <ele>749</ele>
        <time>2013-12-15T14:54:18Z</time>
      </trkpt>
      <trkpt lat="44.17682" lon="6.06533">
        <ele>749.49</ele>
        <time>2013-12-15T14:54:34Z</time>
      </trkpt>
      <trkpt lat="44.17678" lon="6.06536">
        <ele>749.49</ele>
        <time>2013-12-15T14:54:54Z</time>
      </trkpt>
      <trkpt lat="44.17685" lon="6.06534">
        <ele>751.89</ele>
        <time>2013-12-15T14:55:15Z</time>
      </trkpt>
      <trkpt lat="44.17686" lon="6.06538">
        <ele>751.89</ele>
        <time>2013-12-15T14:55:33Z</time>
      </trkpt>
      <trkpt lat="44.17684" lon="6.06541">
        <ele>750.93</ele>
        <time>2013-12-15T14:55:55Z</time>
      </trkpt>
      <trkpt lat="44.17691" lon="6.06539">
        <ele>751.89</ele>
        <time>2013-12-15T14:56:08Z</time>
      </trkpt>
      <trkpt lat="44.17685" lon="6.06548">
        <ele>751.41</ele>
        <time>2013-12-15T14:56:24Z</time>
      </trkpt>
      <trkpt lat="44.17686" lon="6.06531">
        <ele>752.37</ele>
        <time>2013-12-15T14:56:41Z</time>
      </trkpt>
      <trkpt lat="44.17696" lon="6.06517">
        <ele>752.85</ele>
        <time>2013-12-15T14:56:58Z</time>
      </trkpt>
      <trkpt lat="44.17698" lon="6.06515">
        <ele>753.81</ele>
        <time>2013-12-15T14:57:17Z</time>
      </trkpt>
      <trkpt lat="44.17689" lon="6.06524">
        <ele>750.45</ele>
        <time>2013-12-15T14:57:32Z</time>
      </trkpt>
      <trkpt lat="44.17676" lon="6.06535">
        <ele>750.93</ele>
        <time>2013-12-15T14:57:48Z</time>
      </trkpt>
      <trkpt lat="44.17674" lon="6.06534">
        <ele>749.49</ele>
        <time>2013-12-15T14:58:03Z</time>
      </trkpt>
      <trkpt lat="44.17677" lon="6.06527">
        <ele>748.04</ele>
        <time>2013-12-15T14:58:22Z</time>
      </trkpt>
      <trkpt lat="44.17681" lon="6.06541">
        <ele>745.64</ele>
        <time>2013-12-15T14:58:45Z</time>
      </trkpt>
      <trkpt lat="44.17681" lon="6.06542">
        <ele>750.45</ele>
        <time>2013-12-15T14:58:46Z</time>
      </trkpt>
      <trkpt lat="44.17684" lon="6.06545">
        <ele>746.6</ele>
        <time>2013-12-15T14:58:51Z</time>
      </trkpt>
      <trkpt lat="44.17686" lon="6.06555">
        <ele>748.52</ele>
        <time>2013-12-15T14:59:11Z</time>
      </trkpt>
      <trkpt lat="44.17684" lon="6.06548">
        <ele>748.52</ele>
        <time>2013-12-15T14:59:29Z</time>
      </trkpt>
      <trkpt lat="44.17672" lon="6.06532">
        <ele>749.49</ele>
        <time>2013-12-15T14:59:47Z</time>
      </trkpt>
      <trkpt lat="44.17672" lon="6.06531">
        <ele>749</ele>
        <time>2013-12-15T14:59:48Z</time>
      </trkpt>
      <trkpt lat="44.17684" lon="6.06531">
        <ele>751.41</ele>
        <time>2013-12-15T15:00:08Z</time>
      </trkpt>
      <trkpt lat="44.17688" lon="6.06555">
        <ele>749.97</ele>
        <time>2013-12-15T15:00:24Z</time>
      </trkpt>
      <trkpt lat="44.17681" lon="6.06565">
        <ele>749.49</ele>
        <time>2013-12-15T15:00:38Z</time>
      </trkpt>
      <trkpt lat="44.17682" lon="6.06572">
        <ele>749</ele>
        <time>2013-12-15T15:00:45Z</time>
      </trkpt>
      <trkpt lat="44.17681" lon="6.06592">
        <ele>748.04</ele>
        <time>2013-12-15T15:01:01Z</time>
      </trkpt>
      <trkpt lat="44.1767" lon="6.06594">
        <ele>747.08</ele>
        <time>2013-12-15T15:01:06Z</time>
      </trkpt>
      <trkpt lat="44.17657" lon="6.06575">
        <ele>744.68</ele>
        <time>2013-12-15T15:01:18Z</time>
      </trkpt>
      <trkpt lat="44.1765" lon="6.06558">
        <ele>744.2</ele>
        <time>2013-12-15T15:01:31Z</time>
      </trkpt>
      <trkpt lat="44.17641" lon="6.06538">
        <ele>743.24</ele>
        <time>2013-12-15T15:01:45Z</time>
      </trkpt>
      <trkpt lat="44.17639" lon="6.06529">
        <ele>742.76</ele>
        <time>2013-12-15T15:01:57Z</time>
      </trkpt>
      <trkpt lat="44.17637" lon="6.06515">
        <ele>741.31</ele>
        <time>2013-12-15T15:02:07Z</time>
      </trkpt>
      <trkpt lat="44.17636" lon="6.06498">
        <ele>737.95</ele>
        <time>2013-12-15T15:02:21Z</time>
      </trkpt>
      <trkpt lat="44.17628" lon="6.06488">
        <ele>738.43</ele>
        <time>2013-12-15T15:02:27Z</time>
      </trkpt>
      <trkpt lat="44.17622" lon="6.06472">
        <ele>735.07</ele>
        <time>2013-12-15T15:02:39Z</time>
      </trkpt>
      <trkpt lat="44.17621" lon="6.06469">
        <ele>736.03</ele>
        <time>2013-12-15T15:02:41Z</time>
      </trkpt>
      <trkpt lat="44.17621" lon="6.06464">
        <ele>735.07</ele>
        <time>2013-12-15T15:02:57Z</time>
      </trkpt>
      <trkpt lat="44.17623" lon="6.06449">
        <ele>733.62</ele>
        <time>2013-12-15T15:03:15Z</time>
      </trkpt>
      <trkpt lat="44.17621" lon="6.06446">
        <ele>733.14</ele>
        <time>2013-12-15T15:03:38Z</time>
      </trkpt>
      <trkpt lat="44.17624" lon="6.06452">
        <ele>732.66</ele>
        <time>2013-12-15T15:03:58Z</time>
      </trkpt>
      <trkpt lat="44.17625" lon="6.06461">
        <ele>733.14</ele>
        <time>2013-12-15T15:04:20Z</time>
      </trkpt>
      <trkpt lat="44.17622" lon="6.06449">
        <ele>733.62</ele>
        <time>2013-12-15T15:04:50Z</time>
      </trkpt>
      <trkpt lat="44.17609" lon="6.06431">
        <ele>730.26</ele>
        <time>2013-12-15T15:05:05Z</time>
      </trkpt>
      <trkpt lat="44.17597" lon="6.06403">
        <ele>729.3</ele>
        <time>2013-12-15T15:05:22Z</time>
      </trkpt>
      <trkpt lat="44.17593" lon="6.06375">
        <ele>727.86</ele>
        <time>2013-12-15T15:05:39Z</time>
      </trkpt>
      <trkpt lat="44.17583" lon="6.06353">
        <ele>726.41</ele>
        <time>2013-12-15T15:05:56Z</time>
      </trkpt>
      <trkpt lat="44.17573" lon="6.06331">
        <ele>724.97</ele>
        <time>2013-12-15T15:06:10Z</time>
      </trkpt>
      <trkpt lat="44.17567" lon="6.06318">
        <ele>725.45</ele>
        <time>2013-12-15T15:06:21Z</time>
      </trkpt>
      <trkpt lat="44.17565" lon="6.06314">
        <ele>723.53</ele>
        <time>2013-12-15T15:06:24Z</time>
      </trkpt>
      <trkpt lat="44.17554" lon="6.06292">
        <ele>722.57</ele>
        <time>2013-12-15T15:06:38Z</time>
      </trkpt>
      <trkpt lat="44.17546" lon="6.06271">
        <ele>721.61</ele>
        <time>2013-12-15T15:06:52Z</time>
      </trkpt>
      <trkpt lat="44.17544" lon="6.06266">
        <ele>720.16</ele>
        <time>2013-12-15T15:06:55Z</time>
      </trkpt>
      <trkpt lat="44.1754" lon="6.06256">
        <ele>719.2</ele>
        <time>2013-12-15T15:07:04Z</time>
      </trkpt>
      <trkpt lat="44.17532" lon="6.06234">
        <ele>717.28</ele>
        <time>2013-12-15T15:07:19Z</time>
      </trkpt>
      <trkpt lat="44.17533" lon="6.06207">
        <ele>714.88</ele>
        <time>2013-12-15T15:07:34Z</time>
      </trkpt>
      <trkpt lat="44.17518" lon="6.06202">
        <ele>711.51</ele>
        <time>2013-12-15T15:07:44Z</time>
      </trkpt>
      <trkpt lat="44.17499" lon="6.06199">
        <ele>711.03</ele>
        <time>2013-12-15T15:07:58Z</time>
      </trkpt>
      <trkpt lat="44.17491" lon="6.06187">
        <ele>710.55</ele>
        <time>2013-12-15T15:08:13Z</time>
      </trkpt>
      <trkpt lat="44.17481" lon="6.06173">
        <ele>709.11</ele>
        <time>2013-12-15T15:08:27Z</time>
      </trkpt>
      <trkpt lat="44.17469" lon="6.06158">
        <ele>705.75</ele>
        <time>2013-12-15T15:08:38Z</time>
      </trkpt>
      <trkpt lat="44.1746" lon="6.06136">
        <ele>704.3</ele>
        <time>2013-12-15T15:08:50Z</time>
      </trkpt>
      <trkpt lat="44.17452" lon="6.06108">
        <ele>703.82</ele>
        <time>2013-12-15T15:09:06Z</time>
      </trkpt>
      <trkpt lat="44.17447" lon="6.06077">
        <ele>700.46</ele>
        <time>2013-12-15T15:09:22Z</time>
      </trkpt>
      <trkpt lat="44.17444" lon="6.06056">
        <ele>700.46</ele>
        <time>2013-12-15T15:09:31Z</time>
      </trkpt>
      <trkpt lat="44.17428" lon="6.06041">
        <ele>699.02</ele>
        <time>2013-12-15T15:09:48Z</time>
      </trkpt>
      <trkpt lat="44.17417" lon="6.06034">
        <ele>699.02</ele>
        <time>2013-12-15T15:09:55Z</time>
      </trkpt>
      <trkpt lat="44.17401" lon="6.06021">
        <ele>697.57</ele>
        <time>2013-12-15T15:10:06Z</time>
      </trkpt>
      <trkpt lat="44.17391" lon="6.06007">
        <ele>694.69</ele>
        <time>2013-12-15T15:10:15Z</time>
      </trkpt>
      <trkpt lat="44.17382" lon="6.05987">
        <ele>694.69</ele>
        <time>2013-12-15T15:10:28Z</time>
      </trkpt>
      <trkpt lat="44.17376" lon="6.05971">
        <ele>692.77</ele>
        <time>2013-12-15T15:10:39Z</time>
      </trkpt>
      <trkpt lat="44.17367" lon="6.05956">
        <ele>692.29</ele>
        <time>2013-12-15T15:10:55Z</time>
      </trkpt>
      <trkpt lat="44.17364" lon="6.05951">
        <ele>692.29</ele>
        <time>2013-12-15T15:11:08Z</time>
      </trkpt>
      <trkpt lat="44.17345" lon="6.05944">
        <ele>689.88</ele>
        <time>2013-12-15T15:11:23Z</time>
      </trkpt>
      <trkpt lat="44.17325" lon="6.05936">
        <ele>687</ele>
        <time>2013-12-15T15:11:36Z</time>
      </trkpt>
      <trkpt lat="44.17321" lon="6.05934">
        <ele>685.56</ele>
        <time>2013-12-15T15:11:40Z</time>
      </trkpt>
      <trkpt lat="44.17304" lon="6.05923">
        <ele>682.67</ele>
        <time>2013-12-15T15:11:55Z</time>
      </trkpt>
      <trkpt lat="44.17295" lon="6.05911">
        <ele>681.71</ele>
        <time>2013-12-15T15:12:06Z</time>
      </trkpt>
      <trkpt lat="44.17283" lon="6.05894">
        <ele>679.31</ele>
        <time>2013-12-15T15:12:22Z</time>
      </trkpt>
      <trkpt lat="44.17281" lon="6.05891">
        <ele>680.27</ele>
        <time>2013-12-15T15:12:24Z</time>
      </trkpt>
      <trkpt lat="44.17273" lon="6.05879">
        <ele>677.87</ele>
        <time>2013-12-15T15:12:31Z</time>
      </trkpt>
      <trkpt lat="44.17263" lon="6.05869">
        <ele>677.87</ele>
        <time>2013-12-15T15:12:40Z</time>
      </trkpt>
      <trkpt lat="44.17246" lon="6.05851">
        <ele>677.39</ele>
        <time>2013-12-15T15:12:57Z</time>
      </trkpt>
      <trkpt lat="44.17237" lon="6.05835">
        <ele>675.46</ele>
        <time>2013-12-15T15:13:11Z</time>
      </trkpt>
      <trkpt lat="44.17229" lon="6.05816">
        <ele>672.1</ele>
        <time>2013-12-15T15:13:28Z</time>
      </trkpt>
      <trkpt lat="44.17213" lon="6.058">
        <ele>669.22</ele>
        <time>2013-12-15T15:13:41Z</time>
      </trkpt>
      <trkpt lat="44.17192" lon="6.05783">
        <ele>666.33</ele>
        <time>2013-12-15T15:13:59Z</time>
      </trkpt>
      <trkpt lat="44.17169" lon="6.05763">
        <ele>665.37</ele>
        <time>2013-12-15T15:14:15Z</time>
      </trkpt>
      <trkpt lat="44.17165" lon="6.05757">
        <ele>664.89</ele>
        <time>2013-12-15T15:14:20Z</time>
      </trkpt>
      <trkpt lat="44.17156" lon="6.05743">
        <ele>663.93</ele>
        <time>2013-12-15T15:14:32Z</time>
      </trkpt>
      <trkpt lat="44.17149" lon="6.05732">
        <ele>662.97</ele>
        <time>2013-12-15T15:14:42Z</time>
      </trkpt>
      <trkpt lat="44.17145" lon="6.05724">
        <ele>662.49</ele>
        <time>2013-12-15T15:14:51Z</time>
      </trkpt>
      <trkpt lat="44.17135" lon="6.05712">
        <ele>661.04</ele>
        <time>2013-12-15T15:15:04Z</time>
      </trkpt>
      <trkpt lat="44.17125" lon="6.05693">
        <ele>657.68</ele>
        <time>2013-12-15T15:15:18Z</time>
      </trkpt>
      <trkpt lat="44.17121" lon="6.05682">
        <ele>657.2</ele>
        <time>2013-12-15T15:15:30Z</time>
      </trkpt>
      <trkpt lat="44.17111" lon="6.05664">
        <ele>654.8</ele>
        <time>2013-12-15T15:15:44Z</time>
      </trkpt>
      <trkpt lat="44.17106" lon="6.05648">
        <ele>653.35</ele>
        <time>2013-12-15T15:15:55Z</time>
      </trkpt>
      <trkpt lat="44.17094" lon="6.05626">
        <ele>649.99</ele>
        <time>2013-12-15T15:16:10Z</time>
      </trkpt>
      <trkpt lat="44.17089" lon="6.05615">
        <ele>648.55</ele>
        <time>2013-12-15T15:16:23Z</time>
      </trkpt>
      <trkpt lat="44.17078" lon="6.0559">
        <ele>646.14</ele>
        <time>2013-12-15T15:16:40Z</time>
      </trkpt>
      <trkpt lat="44.17073" lon="6.05569">
        <ele>644.22</ele>
        <time>2013-12-15T15:16:52Z</time>
      </trkpt>
      <trkpt lat="44.17068" lon="6.05547">
        <ele>643.26</ele>
        <time>2013-12-15T15:17:05Z</time>
      </trkpt>
      <trkpt lat="44.17065" lon="6.05527">
        <ele>640.38</ele>
        <time>2013-12-15T15:17:18Z</time>
      </trkpt>
      <trkpt lat="44.17061" lon="6.05507">
        <ele>638.93</ele>
        <time>2013-12-15T15:17:28Z</time>
      </trkpt>
      <trkpt lat="44.1706" lon="6.05503">
        <ele>638.45</ele>
        <time>2013-12-15T15:17:30Z</time>
      </trkpt>
      <trkpt lat="44.17059" lon="6.05492">
        <ele>637.01</ele>
        <time>2013-12-15T15:17:37Z</time>
      </trkpt>
      <trkpt lat="44.17058" lon="6.05478">
        <ele>637.01</ele>
        <time>2013-12-15T15:17:45Z</time>
      </trkpt>
      <trkpt lat="44.17059" lon="6.05449">
        <ele>633.17</ele>
        <time>2013-12-15T15:18:00Z</time>
      </trkpt>
      <trkpt lat="44.17066" lon="6.05428">
        <ele>632.2</ele>
        <time>2013-12-15T15:18:11Z</time>
      </trkpt>
      <trkpt lat="44.17068" lon="6.05424">
        <ele>630.76</ele>
        <time>2013-12-15T15:18:14Z</time>
      </trkpt>
      <trkpt lat="44.17077" lon="6.05396">
        <ele>629.8</ele>
        <time>2013-12-15T15:18:31Z</time>
      </trkpt>
      <trkpt lat="44.1708" lon="6.05374">
        <ele>626.44</ele>
        <time>2013-12-15T15:18:42Z</time>
      </trkpt>
      <trkpt lat="44.17086" lon="6.05344">
        <ele>623.07</ele>
        <time>2013-12-15T15:19:00Z</time>
      </trkpt>
      <trkpt lat="44.17085" lon="6.0533">
        <ele>621.15</ele>
        <time>2013-12-15T15:19:10Z</time>
      </trkpt>
      <trkpt lat="44.1709" lon="6.05295">
        <ele>618.26</ele>
        <time>2013-12-15T15:19:28Z</time>
      </trkpt>
      <trkpt lat="44.17091" lon="6.05267">
        <ele>616.82</ele>
        <time>2013-12-15T15:19:41Z</time>
      </trkpt>
      <trkpt lat="44.17086" lon="6.05241">
        <ele>614.9</ele>
        <time>2013-12-15T15:19:57Z</time>
      </trkpt>
      <trkpt lat="44.17081" lon="6.05249">
        <ele>614.9</ele>
        <time>2013-12-15T15:20:09Z</time>
      </trkpt>
      <trkpt lat="44.17079" lon="6.0525">
        <ele>616.34</ele>
        <time>2013-12-15T15:20:12Z</time>
      </trkpt>
      <trkpt lat="44.17076" lon="6.05257">
        <ele>616.34</ele>
        <time>2013-12-15T15:20:28Z</time>
      </trkpt>
      <trkpt lat="44.17067" lon="6.05255">
        <ele>617.78</ele>
        <time>2013-12-15T15:20:44Z</time>
      </trkpt>
      <trkpt lat="44.17068" lon="6.05239">
        <ele>618.26</ele>
        <time>2013-12-15T15:20:55Z</time>
      </trkpt>
      <trkpt lat="44.17076" lon="6.05233">
        <ele>617.78</ele>
        <time>2013-12-15T15:21:10Z</time>
      </trkpt>
      <trkpt lat="44.1707" lon="6.05236">
        <ele>617.78</ele>
        <time>2013-12-15T15:21:32Z</time>
      </trkpt>
      <trkpt lat="44.17067" lon="6.05228">
        <ele>617.78</ele>
        <time>2013-12-15T15:21:53Z</time>
      </trkpt>
      <trkpt lat="44.17069" lon="6.05226">
        <ele>618.26</ele>
        <time>2013-12-15T15:22:06Z</time>
      </trkpt>
      <trkpt lat="44.17069" lon="6.05237">
        <ele>616.82</ele>
        <time>2013-12-15T15:22:19Z</time>
      </trkpt>
      <trkpt lat="44.1706" lon="6.05242">
        <ele>617.78</ele>
        <time>2013-12-15T15:22:37Z</time>
      </trkpt>
      <trkpt lat="44.17061" lon="6.05239">
        <ele>617.78</ele>
        <time>2013-12-15T15:22:59Z</time>
      </trkpt>
    </trkseg>
  </trk>
</gpx>